[[{"header":{"parameterUnit":"m.s-1","parameterCategory":1,"la1":31.0,"la2":29.5877,"lo1":-88.7671,"lo2":-86.6584,"dy":0.0162,"dx":0.0185,"nx":115,"ny":88,"refTime":"2023-06-07T18:00:00:Z","depth":0,"parameterNumber":2,"parameterNumberName":"U-component_of_WINDS"},"data":[0.0,0.0,0.0,0.0,0.0,0.0,0.0,0.0,0.0,0.0,0.0,0.0,0.0,0.0,0.0,0.0,0.0,0.0,0.0,0.0,0.0,0.0,0.0,0.0,0.0,0.0,0.0,0.0,0.0,0.0,0.0,0.0,0.0,0.0,0.0,0.0,0.0,0.0,0.0,0.0,0.0,0.0,0.0,0.0,0.0,0.0,0.0,0.0,0.0,0.0,0.0,0.0,0.0,0.0,0.0,0.0,0.0,0.0,0.0,0.0,0.0,0.0,0.0,0.0,0.0,0.0,0.0,0.0,0.0,0.0,0.0,0.0,0.0,0.0,0.0,0.0,0.0,0.0,0.0,0.0,0.0,0.0,0.0,0.0,0.0,0.0,0.0,0.0,0.0,0.0,0.0,0.0,0.0,0.0,0.0,0.0,0.0,0.0,0.0,0.0,0.0,0.0,0.0,0.0,0.0,0.0,0.0,0.0,0.0,0.0,0.0,0.0,0.0,0.0,0.0,0.0,0.0,0.0,0.0,0.0,0.0,0.0,0.0,0.0,0.0,0.0,0.0,0.0,0.0,0.0,0.0,0.0,0.0,0.0,0.0,0.0,0.0,0.0,0.0,0.0,0.0,0.0,0.0,0.0,0.0,0.0,0.0,0.0,0.0,0.0,0.0,0.0,0.0,0.0,0.0,0.0,0.0,0.0,0.0,0.0,0.0,0.0,0.0,0.0,0.0,0.0,0.0,0.0,0.0,0.0,0.0,0.0,0.0,0.0,0.0,0.0,0.0,0.0,0.0,0.0,0.0,0.0,0.0,0.0,0.0,0.0,0.0,0.0,0.0,0.0,0.0,0.0,0.0,0.0,0.0,0.0,0.0,0.0,0.0,0.0,0.0,0.0,0.0,0.0,0.0,0.0,0.0,0.0,0.0,0.0,0.0,0.0,0.0,0.0,0.0,0.0,0.0,0.0,0.0,0.0,0.0,0.0,0.0,0.0,0.0,0.0,0.0,0.0,0.0,0.0,0.0,0.0,0.0,0.0,0.0,0.0,0.0,0.0,0.0,0.0,0.0,0.0,0.0,0.0,0.0,0.0,0.0,0.0,0.0,0.0,0.0,0.0,0.0,0.0,0.0,0.0,0.0,0.0,0.0,0.0,0.0,0.0,0.0,0.0,0.0,0.0,0.0,0.0,0.0,0.0,0.0,0.0,0.0,0.0,0.0,0.0,0.0,0.0,0.0,0.0,0.0,0.0,0.0,0.0,0.0,0.0,0.0,0.0,0.0,0.0,0.0,0.0,0.0,0.0,0.0,0.0,0.0,0.0,0.0,0.0,0.0,0.0,0.0,0.0,0.0,0.0,0.0,0.0,0.0,0.0,0.0,0.0,0.0,0.0,0.0,0.0,0.0,0.0,0.0,0.0,0.0,0.0,0.0,0.0,0.0,0.0,0.0,0.0,0.0,0.0,0.0,0.0,0.0,0.0,0.0,0.0,0.0,0.0,0.0,0.0,0.0,0.0,0.0,0.0,0.0,0.0,0.0,0.0,0.0,0.0,0.0,0.0,0.0,0.0,0.0,0.0,0.0,0.0,0.0,0.0,0.0,0.0,0.0,0.0,0.0,0.0,0.0,0.0,0.0,0.0,0.0,0.0,0.0,0.0,0.0,0.0,0.0,0.0,0.0,0.0,0.0,0.0,0.0,0.0,0.0,0.0,0.0,0.0,0.0,0.0,0.0,0.0,0.0,0.0,0.0,0.0,0.0,0.0,0.0,0.0,0.0,0.0,0.0,0.0,0.0,0.0,0.0,0.0,0.0,0.0,0.0,0.0,0.0,0.0,0.0,0.0,0.0,0.0,0.0,0.0,0.0,0.0,0.0,0.0,0.0,0.0,0.0,0.0,0.0,0.0,0.0,0.0,0.0,0.0,0.0,0.0,0.0,0.0,0.0,0.0,0.0,0.0,0.0,0.0,0.0,0.0,0.0,0.0,0.0,0.0,0.0,0.0,0.0,0.0,0.0,0.0,0.0,0.0,0.0,0.0,0.0,0.0,0.0,0.0,0.0,0.0,0.0,0.0,0.0,0.0,0.0,0.0,0.0,0.0,0.0,0.0,0.0,0.0,0.0,0.0,0.0,0.0,0.0,0.0,0.0,0.0,0.0,0.0,0.0,0.0,0.0,0.0,0.0,0.0,0.0,0.0,0.0,0.0,0.0,0.0,0.0,0.0,0.0,0.0,0.0,0.0,0.0,0.0,0.0,0.0,0.0,0.0,0.0,0.0,0.0,0.0,0.0,0.0,0.0,0.0,0.0,0.0,0.0,0.0,0.0,0.0,0.0,0.0,0.0,0.0,0.0,0.0,0.0,0.0,0.0,0.0,0.0,0.0,0.0,0.0,0.0,0.0,0.0,0.0,0.0,0.0,0.0,0.0,0.0,0.0,0.0,0.0,0.0,0.0,0.0,0.0,0.0,0.0,0.0,0.0,0.0,0.0,0.0,0.0,0.0,0.0,0.0,0.0,0.0,0.0,0.0,0.0,0.0,0.0,0.0,0.0,0.0,0.0,0.0,0.0,0.0,0.0,0.0,0.0,0.0,0.0,0.0,0.0,0.0,0.0,0.0,0.0,0.0,0.0,0.0,0.0,0.0,0.0,0.0,0.0,0.0,0.0,0.0,0.0,0.0,0.0,0.0,0.0,0.0,0.0,0.0,0.0,0.0,0.0,0.0,0.0,0.0,0.0,0.0,0.0,0.0,0.0,0.0,0.0,0.0,0.0,0.0,0.0,0.0,0.0,0.0,0.0,0.0,0.0,0.0,0.0,0.0,0.0,0.0,0.0,0.0,0.0,0.0,0.0,0.0,0.0,0.0,0.0,0.0,0.0,0.0,0.0,0.0,0.0,0.0,0.0,0.0,0.0,0.0,0.0,0.0,0.0,0.0,0.0,0.0,0.0,0.0,0.0,0.0,0.0,0.0,0.0,0.0,0.0,0.0,0.0,0.0,0.0,0.0,0.0,0.0,0.0,0.0,0.0,0.0,0.0,0.0,0.0,0.0,0.0,0.0,0.0,0.0,0.0,0.0,0.0,0.0,0.0,0.0,0.0,0.0,0.0,0.0,0.0,0.0,0.0,0.0,0.0,0.0,0.0,0.0,0.0,0.0,0.0,0.0,0.0,0.0,0.0,0.0,0.0,0.0,0.0,0.0,0.0,0.0,0.0,0.0,0.0,0.0,0.0,0.0,0.0,0.0,0.0,0.0,0.0,0.0,0.0,0.0,0.0,0.0,0.0,0.0,0.0,0.0,0.0,0.0,0.0,0.0,0.0,0.0,0.0,0.0,0.0,0.0,0.0,0.0,0.0,0.0,0.0,0.0,0.0,0.0,0.0,0.0,0.0,0.0,0.0,0.0,0.0,0.0,0.0,0.0,0.0,0.0,0.0,0.0,0.0,0.0,0.0,0.0,0.0,0.0,0.0,0.0,0.0,0.0,0.0,0.0,0.0,0.0,0.0,0.0,0.0,0.0,0.0,0.0,0.0,0.0,0.0,0.0,0.0,0.0,0.0,0.0,0.0,0.0,0.0,0.0,0.0,0.0,0.0,0.0,0.0,0.0,0.0,0.0,0.0,0.0,0.0,0.0,0.0,0.0,0.0,0.0,0.0,0.0,0.0,0.0,0.0,0.0,0.0,0.0,0.0,0.0,0.0,0.0,0.0,0.0,0.0,0.0,0.0,0.0,0.0,0.0,0.0,0.0,0.0,0.0,0.0,0.0,0.0,0.0,0.0,0.0,0.0,0.0,0.0,0.0,0.0,0.0,0.0,0.0,0.0,0.0,0.0,0.0,0.0,0.0,0.0,0.0,0.0,0.0,0.0,0.0,0.0,0.0,0.0,0.0,0.0,0.0,0.0,0.0,0.0,0.0,0.0,0.0,0.0,0.0,0.0,0.0,0.0,0.0,0.0,0.0,0.0,0.0,0.0,0.0,0.0,0.0,0.0,0.0,0.0,0.0,0.0,0.0,0.0,0.0,0.0,0.0,0.0,0.0,0.0,0.0,0.0,0.0,0.0,0.0,0.0,0.0,0.0,0.0,0.0,0.0,0.0,0.0,0.0,0.0,0.0,0.0,0.0,0.0,0.0,0.0,0.0,0.0,0.0,0.0,0.0,0.0,0.0,0.0,0.0,0.0,0.0,0.0,0.0,0.0,0.0,0.0,0.0,0.0,0.0,0.0,0.0,0.0,0.0,0.0,0.0,0.0,0.0,0.0,0.0,0.0,0.0,-0.4498,0.0,0.0,0.0,0.0,0.0,0.0,0.0,0.0,0.0,0.0,0.0,0.0,0.0,0.0,0.0,0.0,0.0,0.0,0.0,0.0,0.0,0.0,0.0,0.0,0.0,0.0,0.0,0.0,0.0,0.0,0.0,0.0,0.0,0.0,0.0,0.0,0.0,0.0,0.0,0.0,0.0,0.0,0.0,0.0,0.0,0.0,0.0,0.0,0.0,0.0,0.0,0.0,0.0,0.0,0.0,0.0,0.0,0.0,0.0,0.0,0.0,0.0,0.0,0.0,0.0,0.0,0.0,0.0,0.0,0.0,0.0,0.0,0.0,0.0,0.0,0.0,0.0,0.0,0.0,0.0,0.0,0.0,0.0,0.0,0.0,0.0,0.0,0.0,0.0,0.0,0.0,0.0,0.0,0.0,0.0,0.0,0.0,0.0,0.0,0.0,0.0,0.0,0.0,0.0,0.0,0.0,0.0,0.0,0.0,0.0,-0.3247,-0.3828,-0.4661,-0.4972,-0.4697,0.0,0.0,0.0,0.0,0.0,0.0,0.0,0.0,0.0,0.0,0.0,0.0,0.0,0.0,0.0,0.0,0.0,0.0,0.0,0.0,0.0,0.0,0.0,0.0,0.0,0.0,0.0,0.0,0.0,0.0,0.0,0.0,0.0,0.0,0.0,0.0,0.0,0.0,0.0,0.0,0.0,0.0,0.0,0.0,0.0,0.0,0.0,0.0,0.0,0.0,0.0,0.0,0.0,0.0,0.0,0.0,0.0,0.0,0.0,0.0,0.0,0.0,0.0,0.0,0.0,0.0,0.0,0.0,0.0,0.0,0.0,0.0,0.0,0.0,0.0,0.0,0.0,0.0,0.0,0.0,0.0,0.0,0.0,0.0,0.0,0.0,0.0,0.0,0.0,0.0,0.0,0.0,0.0,0.0,0.0,0.0,0.0,0.0,0.0,0.0,0.0,0.0,0.0,0.0,0.0,0.0,0.0,0.0,0.0,0.0,0.0,0.0,-0.4828,-0.5174,-0.5132,0.0,0.0,0.0,0.0,0.0,0.0,0.0,0.0,0.0,0.0,0.0,0.0,0.0,0.0,0.0,0.0,0.0,0.0,0.0,0.0,0.0,0.0,0.0,0.0,0.0,0.0,0.0,0.0,0.0,0.0,0.0,0.0,0.0,0.0,0.0,0.0,0.0,0.0,0.0,0.0,0.0,0.0,0.0,0.0,0.0,0.0,0.0,0.0,0.0,0.0,0.0,0.0,0.0,0.0,0.0,0.0,0.0,0.0,0.0,0.0,0.0,0.0,0.0,0.0,0.0,0.0,0.0,0.0,0.0,0.0,0.0,0.0,0.0,0.0,0.0,0.0,0.0,0.0,0.0,0.0,0.0,0.0,0.0,0.0,0.0,0.0,0.0,0.0,0.0,0.0,0.0,0.0,0.0,0.0,0.0,0.0,0.0,0.0,0.0,0.0,0.0,0.0,0.0,0.0,0.0,0.0,0.0,0.0,0.0,0.0,-0.409,-0.5385,-0.6198,0.0,-0.5869,0.0,0.0,0.0,0.0,0.0,0.0,0.0,0.0,0.0,0.0,0.0,0.0,0.0,0.0,0.0,0.0,0.0,0.0,0.0,0.0,0.0,0.0,0.0,0.0,0.0,0.0,0.0,0.0,0.0,0.0,0.0,0.0,0.0,0.0,0.0,0.0,0.0,0.0,0.0,0.0,0.0,0.0,0.0,0.0,0.0,0.0,0.0,0.0,0.0,0.0,0.0,0.0,0.0,0.0,0.0,0.0,0.0,0.0,0.0,0.0,0.0,0.0,0.0,0.0,0.0,0.0,0.0,0.0,0.0,0.0,0.0,0.0,0.0,0.0,0.0,0.0,0.0,0.0,0.0,0.0,0.0,0.0,0.0,0.0,0.0,0.0,0.0,0.0,0.0,0.0,0.0,0.0,0.0,0.0,0.0,0.0,0.0,0.0,0.0,0.0,0.0,0.0,0.0,0.0,0.0,0.0,0.0,0.0,0.0,0.0,-0.4102,-0.5459,-0.5932,-0.5681,0.0,0.0,0.0,0.0,0.0,0.0,0.0,0.0,0.0,0.0,0.0,0.0,0.0,0.0,0.0,0.0,0.0,0.0,0.0,0.0,0.0,0.0,0.0,0.0,0.0,0.0,0.0,0.0,0.0,0.0,0.0,0.0,0.0,0.0,0.0,0.0,0.0,0.0,0.0,0.0,0.0,0.0,0.0,0.0,0.0,0.0,0.0,0.0,0.0,0.0,0.0,0.0,0.0,0.0,0.0,0.0,0.0,0.0,0.0,0.0,0.0,0.0,0.0,0.0,0.0,0.0,0.0,0.0,0.0,0.0,0.0,0.0,0.0,0.0,0.0,0.0,0.0,0.0,0.0,0.0,0.0,0.0,0.0,0.0,0.0,0.0,0.0,0.0,0.0,0.0,0.0,0.0,0.0,0.0,0.0,0.0,0.0,0.0,0.0,0.0,0.0,0.0,0.0,0.0,0.0,0.0,0.0,0.0,0.0,0.0,-0.3392,-0.4236,-0.5658,-0.5282,-0.4743,-0.413,0.0,0.0,0.0,0.0,0.0,0.0,0.0,0.0,0.0,0.0,0.0,0.0,0.0,0.0,0.0,0.0,0.0,0.0,0.0,0.0,0.0,0.0,0.0,0.0,0.0,0.0,0.0,0.0,0.0,0.0,0.0,0.0,0.0,0.0,0.0,0.0,0.0,0.0,0.0,0.0,0.0,0.0,0.0,0.0,0.0,0.0,0.0,0.0,0.0,0.0,0.0,0.0,0.0,0.0,0.0,0.0,0.0,0.0,0.0,0.0,0.0,0.0,0.0,0.0,0.0,0.0,0.0,0.0,0.0,0.0,0.0,0.0,0.0,0.0,0.0,0.0,0.0,0.0,0.0,0.0,0.0,0.0,0.0,0.0,0.0,0.0,0.0,0.0,0.0,0.0,0.0,0.0,0.0,0.0,0.0,0.0,0.0,0.0,0.0,0.0,0.0,0.0,0.0,0.0,0.0,0.0,0.0,0.0,0.0,-0.4245,-0.4704,-0.6455,-0.4535,-0.3928,0.0,0.0,0.0,0.0,0.0,0.0,0.0,0.0,0.0,0.0,0.0,0.0,0.0,0.0,0.0,0.0,0.0,0.0,0.0,0.0,0.0,0.0,0.0,0.0,0.0,0.0,0.0,0.0,0.0,0.0,0.0,0.0,0.0,0.0,0.0,0.0,0.0,0.0,0.0,0.0,0.0,0.0,0.0,0.0,0.0,0.0,0.0,0.0,0.0,0.0,0.0,0.0,0.0,0.0,0.0,0.0,0.0,0.0,0.0,0.0,0.0,0.0,0.0,0.0,0.0,0.0,0.0,0.0,0.0,0.0,0.0,0.0,0.0,0.0,0.0,0.0,0.0,0.0,0.0,0.0,0.0,0.0,0.0,0.0,0.0,0.0,0.0,0.0,0.0,0.0,0.0,0.0,0.0,0.0,0.0,0.0,0.0,0.0,0.0,0.0,0.0,0.0,0.0,0.0,0.0,0.0,0.0,0.0,0.0,-0.3274,-0.3749,-0.4253,-0.4853,-0.4173,-0.382,0.0,0.0,0.0,0.0,0.0,0.0,0.0,0.0,0.0,0.0,0.0,0.0,0.0,0.0,0.0,0.0,0.0,0.0,0.0,0.0,0.0,0.0,0.0,0.0,0.0,0.0,0.0,0.0,0.0,0.0,0.0,0.0,0.0,0.0,0.0,0.0,0.0,0.0,0.0,0.0,0.0,0.0,0.0,0.0,0.0,0.0,0.0,0.0,0.0,0.0,0.0,0.0,0.0,0.0,0.0,0.0,0.0,0.0,0.0,0.0,0.0,0.0,0.0,0.0,0.0,0.0,0.0,0.0,0.0,0.0,0.0,0.0,0.0,0.0,0.0,0.0,0.0,0.0,0.0,0.0,0.0,0.0,0.0,0.0,0.0,0.0,0.0,0.0,0.0,0.0,0.0,0.0,0.0,0.0,0.0,0.0,0.0,0.0,0.0,0.0,0.0,0.0,0.0,0.0,0.0,0.0,0.0,0.0,0.0,-0.22,0.0,-0.3745,0.0,-0.3575,-0.334,0.0,0.0,0.0,0.0,0.0,0.0,0.0,0.0,0.0,0.0,0.0,0.0,0.0,0.0,0.0,0.0,0.0,0.0,0.0,0.0,0.0,0.0,0.0,0.0,0.0,0.0,0.0,0.0,0.0,0.0,0.0,0.0,0.0,0.0,0.0,0.0,0.0,0.0,0.0,0.0,0.0,0.0,0.0,0.0,0.0,0.0,0.0,0.0,0.0,0.0,0.0,0.0,0.0,0.0,0.0,0.0,0.0,0.0,0.0,0.0,0.0,0.0,0.0,0.0,0.0,0.0,0.0,0.0,0.0,0.0,0.0,0.0,0.0,0.0,0.0,0.0,0.0,0.0,0.0,0.0,0.0,0.0,0.0,0.0,0.0,0.0,0.0,0.0,0.0,0.0,0.0,0.0,0.0,0.0,0.0,0.0,0.0,0.0,0.0,0.0,0.0,0.0,0.0,0.0,0.0,0.0,0.0,0.0,-0.1271,-0.2172,-0.2909,-0.3107,-0.2825,-0.2592,-0.2419,0.0,0.0,0.0,0.0,0.0,0.0,0.0,0.0,0.0,0.0,0.0,0.0,0.0,0.0,0.0,0.0,0.0,0.0,0.0,0.0,0.0,0.0,0.0,0.0,0.0,0.0,0.0,0.0,0.0,0.0,0.0,0.0,0.0,0.0,0.0,0.0,0.0,0.0,0.0,0.0,0.0,0.0,0.0,0.0,0.0,0.0,0.0,0.0,0.0,0.0,0.0,0.0,0.0,0.0,0.0,0.0,0.0,0.0,0.0,0.0,0.0,0.0,0.0,0.0,0.0,0.0,0.0,0.0,0.0,0.0,0.0,0.0,0.0,0.0,0.0,0.0,0.0,0.0,0.0,0.0,0.0,0.0,0.0,0.0,0.0,0.0,0.0,0.0,0.0,0.0,0.0,0.0,0.0,0.0,0.0,0.0,0.0,0.0,0.0,0.0,0.0,0.0,0.0,0.0,0.0,0.0,0.0,0.0,0.0,-0.1766,-0.1938,-0.2023,-0.2122,-0.182,-0.1714,0.0,0.0,0.0,0.0,0.0,0.0,0.0,0.0,0.0,0.0,0.0,0.0,0.0,0.0,0.0,0.0,0.0,0.0,0.0,0.0,0.0,0.0,0.0,0.0,0.0,0.0,0.0,0.0,0.0,0.0,0.0,0.0,0.0,0.0,0.0,0.0,0.0,0.0,0.0,0.0,0.0,0.0,0.0,0.0,0.0,0.0,0.0,0.0,0.0,0.0,0.0,0.0,0.0,0.0,0.0,0.0,0.0,0.0,0.0,0.0,0.0,0.0,0.0,0.0,0.0,0.0,0.0,0.0,0.0,0.0,0.0,0.0,0.0,0.0,0.0,0.0,0.0,0.0,0.0,0.0,0.0,0.0,0.0,0.0,0.0,0.0,0.0,0.0,0.0,0.0,0.0,0.0,0.0,0.0,0.0,0.0,0.0,0.0,0.0,0.0,0.0,0.0,0.0,0.0,0.0,0.0,0.0,0.0,0.0,-0.1338,-0.1314,-0.1313,-0.1474,-0.1463,-0.1324,-0.1176,0.0,0.0,0.0,0.0,0.0,0.0,0.0,0.0,0.0,0.0,0.0,0.0,0.0,0.0,0.0,0.0,0.0,0.0,0.0,0.0,0.0,0.0,0.0,0.0,0.0,0.0,0.0,0.0,0.0,0.0,0.0,0.0,0.0,0.0,0.0,0.0,0.0,0.0,0.0,0.0,0.0,0.0,0.0,0.0,0.0,0.0,0.0,0.0,0.0,0.0,0.0,0.0,0.0,0.0,0.0,0.0,0.0,0.0,0.0,0.0,0.0,0.0,0.0,0.0,0.0,0.0,0.0,0.0,0.0,0.0,0.0,0.0,0.0,0.0,0.0,0.0,0.0,0.0,0.0,0.0,0.0,0.0,0.0,0.0,0.0,0.0,0.0,0.0,0.0,0.0,0.0,0.0,0.0,0.0,0.0,0.0,0.0,0.0,0.0,0.0,0.0,0.0,0.0,0.0,0.0,0.0,0.0,0.0,-0.0862,-0.0936,-0.0925,-0.0921,-0.1306,-0.1189,0.0,0.0,0.0,0.0,0.0,0.0,0.0,0.0,0.0,0.0,0.0,0.0,0.0,0.0,0.0,0.0,0.0,0.0,0.0,0.0,0.0,0.0,0.0,0.0,0.0,0.0,0.0,0.0,0.0,0.0,0.0,0.0,0.0,0.0,0.0,0.0,0.0,0.0,0.0,0.0,0.0,0.0,0.0,0.0,0.0,0.0,0.0,0.0,0.0,0.0,0.0,0.0,0.0,0.0,0.0,0.0,0.0,0.0,0.0,0.0,0.0,0.0,0.0,0.0,0.0,0.0,0.0,0.0,0.0,0.0,0.0,0.0,0.0,0.0,0.0,0.0,0.0,0.0,0.0,0.0,0.0,0.0,0.0,0.0,0.0,0.0,0.0,0.0,0.0,0.0,0.0,0.0,0.0,0.0,0.0,0.0,0.0,0.0,0.0,0.0,0.0,0.0,0.0,0.0,0.0,0.0,0.0,0.0,0.0,0.0363,0.0058,-0.0061,-0.0059,-0.0444,-0.0176,0.0,0.0,0.0,0.0,0.0,0.0,0.0,0.0,0.0,0.0,0.0,0.0,0.0,0.0,0.0,0.0,0.0,0.0,0.0,0.0,0.0,0.0,0.0,0.0,0.0,0.0,0.0,0.0,0.0,0.0,0.0,0.0,0.0,0.0,0.0,0.0,0.0,0.0,0.0,0.0,0.0,0.0,0.0,0.0,0.0,0.0,0.0,0.0,0.0,0.0,0.0,0.0,0.0,0.0,0.0,0.0,0.0,0.0,0.0,0.0,0.0,0.0,0.0,0.0,0.0,0.0,0.0,0.0,0.0,0.0,0.0,0.0,0.0,0.0,0.0,0.0,0.0,0.0,0.0,0.0,0.0,0.0,0.0,0.0,0.0,0.0,0.0,0.0,0.0,0.0,0.0,0.0,0.0,0.0,0.0,0.0,0.0,0.0,0.0,0.0,0.0,0.0,0.0,0.0,0.0,0.0,0.0,0.0,0.0677,0.1021,0.08,0.0852,0.1175,0.0645,0.0706,0.0,0.0,0.0,0.0,0.0,0.0,0.0,0.0,0.0,0.0,0.0,0.0,0.0,0.0,0.0,0.0,0.0,0.0,0.0,0.0,0.0,0.0,0.0,0.0,0.0,0.0,0.0,0.0,0.0,0.0,0.0,0.0,0.0,0.0,0.0,0.0,0.0,0.0,0.0,0.0,0.0,0.0,0.0,0.0,0.0,0.0,0.0,0.0,0.0,0.0,0.0,0.0,0.0,0.0,0.0,0.0,0.0,0.0,0.0,0.0,0.0,0.0,0.0,0.0,0.0,0.0,0.0,0.0,0.0,0.0,0.0,0.0,0.0,0.0,0.0,0.0,0.0,0.0,0.0,0.0,0.0,0.0,0.0,0.0,0.0,0.0,0.0,0.0,0.0,0.0,0.0,0.0,0.0,0.0,0.0,0.0,0.0,0.0,0.0,0.0,0.0,0.0,0.0,0.0,0.0,0.0,0.0,0.0,0.1449,0.142,0.1453,0.1859,0.249,0.1776,0.1444,0.0,0.0,0.0,0.0,0.0,0.0,0.0,0.0,0.0,0.0,0.0,0.0,0.0,0.0,0.0,0.0,0.0,0.0,0.0,0.0,0.0,0.0,0.0,0.0,0.0,0.0,0.0,0.0,0.0,0.0,0.0,0.0,0.0,0.0,0.0,0.0,0.0,0.0,0.0,0.0,0.0,0.0,0.0,0.0,0.0,0.0,0.0,0.0,0.0,0.0,0.0,0.0,0.0,0.0,0.0,0.0,0.0,0.0,0.0,0.0,0.0,0.0,0.0,0.0,0.0,0.0,0.0,0.0,0.0,0.0,0.0,0.0,0.0,0.0,0.0,0.0,0.0,0.0,0.0,0.0,0.0,0.0,0.0,0.0,0.0,0.0,0.0,0.0,0.0,0.0,0.0,0.0,0.0,0.0,0.0,0.0,0.0,0.0,0.0,0.0,0.0,0.0,0.0,0.0,0.0,0.0,0.0,0.0,0.1709,0.2674,0.2421,0.2634,0.3325,0.2255,0.1864,0.0,0.0,0.0,0.0,0.0,0.0,0.0,0.0,0.0,0.0,0.0,0.0,0.0,0.0,0.0,0.0,0.0,0.0,0.0,0.0,0.0,0.0,0.0,0.0,0.0,0.0,0.0,0.0,0.0,0.0,0.0,0.0,0.0,0.0,0.0,0.0,0.0,0.0,0.0,0.0,0.0,0.0,0.0,0.0,0.0,0.0,0.0,0.0,-0.1752,0.0,0.0,0.0,0.0,0.0,0.0,0.0,0.0,0.0,0.0,0.0,0.0,0.0,0.0,0.0,0.0,0.0,0.0,0.0,0.0,0.0,0.0,0.0,0.0,0.0,0.0,0.0,0.0,0.0,0.0,0.0,0.0,0.0,0.0,0.0,0.0,0.0,0.0,0.0,0.0,0.0,0.0,0.0,0.0,0.0,0.0,0.0,0.0,0.0,0.0,0.0,0.0,0.0,0.0,0.0,0.0,0.0,0.0,0.0,0.2399,0.3213,0.3165,0.331,0.3685,0.2999,0.2608,0.0,0.0,0.0,0.0,0.0,0.0,0.0,0.0,0.0,0.0,0.0,0.0,0.0,0.0,0.0,0.0,0.0,0.0,0.0,0.0,0.0,0.0,0.0,0.0,0.0,0.0,0.0,0.0,0.0,0.0,0.0,0.0,0.0,0.0,0.0,0.0,0.0,0.0,0.0,0.0,0.0,0.0,0.0,0.0,0.0,0.0,0.0,0.0,0.0,0.0,0.0,0.0,0.0,0.0,0.0,0.0,0.0,0.0,0.0,0.0,0.0,0.0,0.0,0.0,0.0,0.0,0.0,0.0,0.0,0.0,0.0,0.0,0.0,0.0,0.0,0.0,0.0,0.0,0.0,0.0,0.0,0.0,0.0,0.0,0.0,0.0,0.0,0.0,0.0,0.0,0.0,0.0,0.0,0.0,0.0,0.0,0.0,0.0,0.0,0.0,0.0,0.0,0.0,0.0,0.0,0.0,0.0,0.2593,0.2954,0.3375,0.3695,0.3828,0.3761,0.3579,0.3201,0.2732,0.0,0.0,0.0,0.0,0.0,0.0,0.0,0.0,0.0,0.0,0.0,0.0,0.0,0.0,0.0,0.0,0.0,0.0,0.0,0.0,0.0,0.0,0.0,0.0,0.0,0.0,0.0,0.0,0.0,0.0,0.0,0.0,0.0,0.0,0.0,0.0,0.0,0.0,-0.0144,-0.0769,0.0,0.0,0.0,0.0,0.0,0.0,0.0,0.0,-0.2169,0.0,0.0,0.0,0.0,0.0,0.0,0.0,0.0,0.0,0.0,0.0,0.0,0.0,0.0,0.0,0.0,0.0,0.0,0.0,0.0,0.0,0.0,0.0,0.0,0.0,0.0,0.0,0.0,0.0,0.0,0.0,0.0,0.0,0.0,0.0,0.0,0.0,0.0,0.0,0.0,0.0,0.0,0.0,0.0,0.0,0.0,0.0,0.0,0.0,0.0,0.0,0.0,0.0,0.0,0.0,0.0,0.2385,0.238,0.2732,0.3456,0.3603,0.3699,0.3752,0.3518,0.3394,0.3259,0.0,0.0,0.0,0.0,0.0,0.0,0.0,0.0,0.0,0.0,0.0,0.0,0.0,0.0,0.0,0.0,0.0,0.0,0.0,0.0,0.0,0.0,0.0,0.0,0.0,0.0,0.0,0.0,0.0,0.0,0.0,0.0,0.0,0.0,0.0,0.0,0.0,0.0,0.0,-0.1071,-0.1405,0.0,0.0,0.0,0.0,0.0,0.0,0.0,0.0,-0.1693,0.0,0.0,0.0,0.0,0.0,0.0,0.0,0.0,0.0,0.0,0.0,0.0,0.0,0.0,0.0,0.0,0.0,0.0,0.0,0.0,0.0,0.0,0.0,0.0,0.0,0.0,0.0,0.0,0.0,0.0,0.0,0.0,0.0,0.0,0.0,0.0,0.0,0.0,0.0,0.0,0.0,0.0,0.0,0.0,0.0,0.0,0.0,0.0,0.0,0.0,0.0,0.0,0.0,0.0,0.0,0.2351,0.2605,0.2938,0.3413,0.3558,0.3646,0.3687,0.3695,0.3616,0.0,0.0,0.0,0.0,0.0,0.0,0.0,0.0,0.0,0.0,0.0,0.0,0.0,0.0,0.0,0.0,0.0,0.0,0.0,0.0,0.0,0.0,0.0,0.0,0.0,0.0,0.0,0.0,0.0,0.0,0.0,0.0,0.0,0.0,0.0,0.0,0.0,0.0,0.0,0.0,-0.1299,-0.1593,-0.1873,0.0,0.0,0.0,0.0,0.0,0.0,-0.2674,-0.2653,0.0,0.0,0.0,0.0,0.0,0.0,0.0,0.0,0.0,0.0,0.0,0.0,0.0,0.0,0.0,0.0,0.0,0.0,0.0,0.0,0.0,0.0,0.0,0.0,0.0,0.0,0.0,0.0,0.0,0.0,0.0,0.0,0.0,0.0,0.0,0.0,0.0,0.0,0.0,0.0,0.0,0.0,0.0,0.0,0.0,0.0,0.0,0.0,0.0,0.0,0.0,0.0,0.0,0.0,0.0,0.2423,0.2828,0.3144,0.3426,0.3499,0.3583,0.3595,0.3763,0.3716,0.0,0.0,0.0,0.0,0.0,0.0,0.0,0.0,0.0,0.0,0.0,0.0,0.0,0.0,0.0,0.0,0.0,0.0,0.0,0.0,0.0,0.0,0.0,0.0,0.0,0.0,0.0,0.0,0.0,0.0,0.0,0.0,0.0,0.0,0.0,0.0,0.0,0.0,0.0,0.0,0.0,-0.1994,-0.2249,-0.2542,0.0,0.0,0.0,0.0,-0.3388,-0.3545,0.0,0.0,0.0,0.0,0.0,0.0,0.0,0.0,0.0,0.0,0.0,0.0,0.0,0.0,0.0,0.0,0.0,0.0,0.0,0.0,0.0,0.0,0.0,0.0,0.0,0.0,0.0,0.0,0.0,0.0,0.0,0.0,0.0,0.0,0.0,0.0,0.0,0.0,0.0,0.0,0.0,0.0,0.0,0.0,0.0,0.0,0.0,0.0,0.0,0.0,0.0,0.0,0.0,0.0,0.0,0.0,0.2417,0.2651,0.3022,0.3344,0.3383,0.3434,0.3507,0.3328,0.3409,0.0,0.0,0.0,0.0,0.0,0.0,0.0,0.0,0.0,0.0,0.0,0.0,0.0,0.0,0.0,0.0,0.0,0.0,0.0,0.0,0.0,0.0,0.0,0.0,0.0,0.0,0.0,0.0,0.0,0.0,0.0,0.0,0.0,0.0,0.0,0.0,0.0,0.0,0.0,0.0,0.0,-0.2936,-0.2693,-0.3063,-0.3444,0.0,0.0,-0.3883,-0.415,-0.364,0.0,0.0,0.0,0.0,0.0,0.0,0.0,0.0,0.0,0.0,0.0,0.0,0.0,0.0,0.0,0.0,0.0,0.0,0.0,0.0,0.0,0.0,0.0,0.0,0.0,0.0,0.0,0.0,0.0,0.0,0.0,0.0,0.0,0.0,0.0,0.0,0.0,0.0,0.0,0.0,0.0,0.0,0.0,0.0,0.0,0.0,0.0,0.0,0.0,0.0,0.0,0.0,0.0,0.0,0.0,0.225,0.2373,0.2785,0.3077,0.3279,0.3336,0.3453,0.3422,0.3469,0.3626,0.0,0.0,0.0,0.0,0.0,0.0,0.0,0.0,0.0,0.0,0.0,0.0,0.0,0.0,0.0,0.0,0.0,0.0,0.0,0.0,0.0,0.0,0.0,0.0,0.0,0.0,0.0,0.0,0.0,0.0,0.0,0.0,0.0,0.0,0.0,0.0,0.0,0.0,0.0,0.0,0.0,0.0,-0.3126,-0.3494,0.0,0.0,0.0,-0.4562,-0.4459,0.0,0.0,0.0,0.0,0.0,0.0,0.0,0.0,0.0,0.0,0.0,0.0,0.0,0.0,0.0,0.0,0.0,0.0,0.0,0.0,0.0,0.0,0.0,0.0,0.0,0.0,0.0,0.0,0.0,0.0,0.0,0.0,0.0,0.0,0.0,0.0,0.0,0.0,0.0,0.0,0.0,0.0,0.0,0.0,0.0,0.0,0.0,0.0,0.0,0.0,0.0,0.0,0.0,0.0,0.0,0.0,0.0,0.2423,0.2862,0.3134,0.3224,0.3293,0.333,0.3326,0.3502,0.0,0.0,0.0,0.0,0.0,0.0,0.0,0.0,0.0,0.0,0.0,0.0,0.0,0.0,0.0,0.0,0.0,0.0,0.0,0.0,0.0,0.0,0.0,0.0,0.0,0.0,0.0,-0.0589,0.0,0.0,0.0,0.0,0.0,0.0,0.0,0.0,0.0,0.0,0.0,0.0,0.0,0.0,-0.2934,-0.3673,-0.4015,-0.4401,0.0,0.0,-0.5072,-0.4849,-0.5194,-0.5434,0.0,0.0,0.0,0.0,0.0,0.0,0.0,0.0,0.0,0.0,0.0,0.0,0.0,0.0,0.0,0.0,0.0,0.0,0.0,0.0,0.0,0.0,0.0,0.0,0.0,0.0,0.0,0.0,0.0,0.0,0.0,0.0,0.0,0.0,0.0,0.0,0.0,0.0,0.0,0.0,0.0,0.0,0.0,0.0,0.0,0.0,0.0,0.0,0.0,0.0,0.0,0.0,0.0,0.0,0.0,0.2429,0.286,0.3134,0.3224,0.3232,0.3236,0.3234,0.314,0.3151,0.0,0.0,0.0,0.0,0.0,0.0,0.0,0.0,0.0,0.0,0.0,0.0,0.0,0.0,0.0,0.0,0.0,0.0,0.0,0.0,0.0,0.0,0.0,0.0,0.0,0.0,0.0,0.0,0.0,0.0,0.0,0.0,0.0,0.0,0.0,0.0,0.0,0.0,0.0,0.0,0.0,-0.3791,-0.4346,-0.4758,-0.5128,0.0,0.0,-0.5329,-0.5519,-0.5805,-0.5825,-0.5188,0.0,0.0,0.0,0.0,0.0,0.0,0.0,0.0,0.0,0.0,0.0,0.0,0.0,0.0,0.0,0.0,0.0,0.0,0.0,0.0,0.0,0.0,0.0,0.0,0.0,0.0,0.0,0.0,0.0,0.0,0.0,0.0,0.0,0.0,0.0,0.0,0.0,0.0,0.0,0.0,0.0,0.0,0.0,0.0,0.0,0.0,0.0,0.0,0.0,0.0,0.0,0.0,0.0,0.2327,0.2419,0.2805,0.3077,0.322,0.3226,0.3226,0.3226,0.3138,0.3175,0.0,0.0,0.0,0.0,0.0,0.0,0.0,0.0,0.0,0.0,0.0,0.0,0.0,0.0,0.0,0.0,0.0,0.0,0.0,0.0,0.0,0.0,0.0,0.0,0.0,0.0,0.0,0.0,-0.1097,-0.1265,-0.1219,0.0,0.0,0.0,0.0,0.0,0.0,0.0,0.0,0.0,0.0,-0.4368,-0.4773,-0.5129,0.0,0.0,-0.5636,-0.5588,-0.5862,-0.5927,-0.5751,-0.5354,-0.4723,0.0,0.0,0.0,0.0,0.0,0.0,0.0,0.0,0.0,0.0,0.0,0.0,0.0,0.0,0.0,0.0,0.0,0.0,0.0,0.0,0.0,0.0,0.0,0.0,0.0,0.0,0.0,0.0,0.0,0.0,0.0,0.0,0.0,0.0,0.0,0.0,0.0,0.0,0.0,0.0,0.0,0.0,0.0,0.0,0.0,0.0,0.0,0.0,0.0,0.0,0.0,0.0,0.2352,0.2419,0.2797,0.3071,0.3224,0.3226,0.3226,0.3226,0.3164,0.3172,0.0,0.0,0.0,0.0,0.0,0.0,0.0,0.0,0.0,0.0,0.0,0.0,0.0,0.0,0.0,0.0,0.0,0.0,0.0,0.0,0.0,0.0,0.0,0.0,0.0,0.0,0.0,0.0,-0.1056,-0.1167,-0.1399,0.0,0.0,0.0,0.0,0.0,0.0,0.0,0.0,0.0,0.0,-0.4838,-0.5186,-0.5555,-0.5835,-0.5961,-0.5817,-0.5797,-0.6133,-0.5774,-0.5307,-0.4988,0.0,0.0,0.0,0.0,0.0,0.0,0.0,0.0,0.0,0.0,0.0,0.0,0.0,0.0,0.0,0.0,0.0,0.0,0.0,0.0,0.0,0.0,0.0,0.0,0.0,0.0,0.0,0.0,0.0,0.0,0.4573,0.0,0.0,0.0,0.0,0.0,0.0,0.0,0.0,0.0,0.0,0.0,0.0,0.0,0.0,0.0,0.0,0.0,0.0,0.0,0.0,0.0,0.0,0.2415,0.2423,0.2856,0.3132,0.3224,0.3226,0.3226,0.3226,0.3224,0.3136,0.3013,0.0,0.0,0.0,0.0,0.0,0.0,0.0,0.0,0.0,0.0,0.0,0.0,0.0,0.0,0.0,0.0,0.0,0.0,0.0,0.0,0.0,0.0,0.0,0.0,0.0,0.0,-0.0921,-0.1041,-0.1367,0.0,0.0,0.0,0.0,0.0,0.0,0.0,0.0,0.0,0.0,-0.4799,-0.5123,-0.5787,-0.603,-0.6124,-0.6199,-0.6014,-0.5962,-0.6346,-0.5322,-0.4385,0.0,0.0,0.0,0.0,0.0,0.0,0.0,0.0,0.0,0.0,0.0,0.0,0.0,0.0,0.0,0.0,0.0,0.0,0.0,0.0,0.0,0.0,0.0,0.0,0.0,0.0,0.0,0.3549,0.3817,0.0,0.0,0.0,0.0,0.0,0.0,0.0,0.0,0.0,0.0,0.0,0.4599,0.4235,0.0,0.0,0.0,0.0,0.0,0.0,0.0,0.0,0.0,0.0,0.0,0.0,0.2419,0.2438,0.286,0.3134,0.3224,0.3226,0.3226,0.3226,0.3226,0.3113,0.2877,0.0,0.0,0.0,0.0,0.0,0.0,0.0,0.0,0.0,0.0,0.0,0.0,0.0,0.0,0.0,0.0,0.0,0.0,0.0,0.0,0.0,0.0,0.0,0.0,0.0,-0.1141,0.0,0.0,0.0,0.0,0.0,0.0,0.0,0.0,0.0,0.0,0.0,-0.3337,-0.474,-0.5191,-0.5576,-0.588,-0.5754,-0.5767,0.0,0.0,0.0,0.0,0.0,0.0,0.0,0.0,0.0,0.0,0.0,0.0,0.0,0.0,-0.5041,-0.4815,-0.4362,-0.4041,-0.4213,0.0,0.0,0.0,0.0,0.0,0.0,0.0,0.0,0.0,0.0,0.0,0.0,0.0,0.0,0.3863,0.0,0.3964,0.0,0.0,0.0,0.0,0.0,0.0,0.0,0.0,0.4481,0.4341,0.414,0.3831,0.3702,0.0,0.3687,0.3623,0.0,0.0,0.0,0.0,0.0,0.0,0.0,0.0,0.2574,0.2532,0.2926,0.3164,0.3224,0.3226,0.3226,0.3226,0.3226,0.3144,0.297,0.2993,0.2847,0.0,0.0,0.0,0.0,0.0,0.0,0.0,0.0,0.0,0.0,0.0,0.0,0.0,0.0,0.0,0.0,0.0,0.0,0.0,0.0,0.0,0.0,0.0,-0.1396,0.0,0.0,0.0,0.0,0.0,0.0,0.0,0.0,0.0,-0.3624,-0.3978,-0.4317,-0.4578,-0.498,-0.5251,-0.5311,0.0,0.0,0.0,0.0,0.0,0.0,0.0,-0.4389,-0.3946,-0.4321,-0.4862,-0.5257,-0.5432,-0.5586,-0.5568,0.0,0.0,-0.5244,-0.4985,-0.4884,-0.5222,-0.461,-0.4401,-0.569,-0.5582,-0.5538,0.0,0.0,0.0,0.0,0.0,0.0,0.0,0.0,0.4407,0.4445,0.0,0.4462,0.0,0.0,0.0,0.0,0.0,0.3879,0.0,0.0,0.4815,0.4757,0.388,0.39,0.3871,0.3869,0.372,0.3595,0.3491,0.3444,0.0,0.0,0.0,0.0,0.0,0.0,0.2924,0.2709,0.3044,0.3226,0.3226,0.3226,0.3226,0.3226,0.3226,0.3224,0.3215,0.2979,0.2838,0.2823,0.2285,0.0,0.0,0.0,0.0,0.0,0.0,0.0,0.0,0.0,0.0,0.0,0.0,0.0,0.0,0.0,0.0,0.0,0.0,0.0,0.0,-0.1311,0.0,0.0,0.0,0.0,0.0,0.0,0.0,0.0,0.0,0.0,-0.5216,-0.5288,-0.4961,-0.4099,0.0,0.0,0.0,0.0,-0.4758,-0.5151,-0.5177,-0.5164,-0.5137,-0.4626,-0.3961,-0.3062,0.0,0.0,-0.5708,-0.5576,-0.5521,-0.5586,-0.5627,-0.5573,-0.5439,-0.5627,-0.5668,-0.549,-0.5596,-0.6076,-0.6769,-0.6535,-0.6338,0.5644,0.0,0.0,0.0,0.0,0.4508,0.4726,0.4842,0.4482,0.4317,0.421,0.4115,0.0,0.0,0.0,0.0,0.0,0.0,0.4143,0.4081,0.4036,0.3997,0.3864,0.3955,0.4001,0.4001,0.3918,0.3871,0.3781,0.3716,0.3438,0.2977,0.0,0.0,0.0,0.0,0.2772,0.2805,0.3077,0.3226,0.3226,0.3226,0.3226,0.3226,0.3226,0.3226,0.3226,0.3152,0.3052,0.2919,0.2713,0.0,0.0,0.0,0.0,0.0,0.0,0.0,0.0,0.0,0.0,0.0,0.0,0.0,0.0,0.0,0.0,0.0,0.0,0.0,-0.1467,-0.163,-0.1639,0.0,0.0,0.0,0.0,0.0,0.0,0.0,0.0,0.0,-0.5381,-0.5329,-0.5318,0.0,0.0,-0.493,-0.5068,-0.4953,-0.4882,-0.5083,0.0,0.0,0.0,-0.4865,-0.4575,-0.4273,-0.4916,-0.5571,-0.5862,-0.5986,-0.6017,-0.6061,-0.6143,-0.6105,-0.6016,-0.5878,-0.6093,-0.6602,-0.6415,-0.636,-0.7135,-0.7108,-0.7003,0.6322,0.5789,0.5483,0.5271,0.5114,0.499,0.506,0.5161,0.4869,0.472,0.4625,0.4418,0.4593,0.496,0.3903,0.0,0.0,0.0,0.4387,0.429,0.3869,0.3818,0.4008,0.4097,0.4161,0.4189,0.4157,0.4112,0.4055,0.3932,0.3718,0.3409,0.0,0.0,0.2943,0.2966,0.3022,0.3046,0.3197,0.3281,0.3281,0.3246,0.3226,0.3226,0.3226,0.3226,0.3226,0.3226,0.3175,0.3064,0.2911,0.2695,0.0,0.0,0.0,0.0,0.0,0.0,0.0,0.0,0.0,0.0,0.0,0.0254,-0.0,0.0,0.0,0.0,-0.0864,-0.1346,-0.1567,-0.1672,0.0,0.0,0.0,0.0,0.0,0.0,0.0,-0.4353,-0.4972,-0.5207,-0.4961,-0.4647,-0.4619,-0.4968,-0.4648,-0.447,-0.4773,0.0,-0.4696,-0.4972,-0.4979,-0.4948,-0.4971,-0.5074,-0.5115,-0.5241,-0.5631,-0.5939,-0.6095,-0.62,-0.6257,-0.6261,-0.6261,-0.6261,-0.6261,-0.618,-0.6403,-0.7298,-0.6908,-0.6736,-0.7614,-0.7664,-0.7702,0.638,0.6211,0.6117,0.6254,0.6358,0.5606,0.5401,0.5515,0.5605,0.5515,0.5567,0.5227,0.5064,0.501,0.4107,0.0,0.5281,0.493,0.4667,0.4512,0.4193,0.4116,0.4206,0.4277,0.4357,0.4442,0.4359,0.432,0.4312,0.4151,0.4018,0.3916,0.3669,0.3487,0.3385,0.3446,0.3448,0.3365,0.3362,0.3365,0.3362,0.3275,0.3226,0.3226,0.3228,0.3228,0.3226,0.3228,0.3228,0.3151,0.2929,0.2797,0.2781,0.0,0.0,0.0,0.0,0.0,0.0,0.0,0.0,0.0,0.0,0.0,0.0,0.0,0.0,0.0,-0.0533,0.0,-0.1298,-0.1511,0.0,0.0,0.0,-0.2263,-0.2451,-0.3444,-0.4183,-0.4357,0.0,0.0,-0.4311,0.0,-0.329,-0.3844,-0.3589,-0.3427,-0.3974,-0.417,-0.4382,-0.4836,-0.4952,-0.4958,-0.5006,-0.5216,-0.5518,-0.5798,-0.6186,-0.6252,-0.6297,-0.6257,-0.6261,-0.6261,-0.6261,-0.6261,-0.6261,-0.6475,-0.6795,-0.7342,-0.7172,-0.7215,-0.8,-0.8135,-0.8163,0.6746,0.6613,0.6608,0.6529,0.6394,0.6106,0.6045,0.6097,0.6097,0.6045,0.5942,0.5681,0.5461,0.5276,0.4888,0.4988,0.5465,0.522,0.5107,0.4928,0.451,0.4389,0.4473,0.4428,0.4451,0.4534,0.4518,0.4508,0.4504,0.4393,0.4261,0.4108,0.3975,0.3761,0.3477,0.3422,0.3385,0.3365,0.3365,0.3365,0.3362,0.3275,0.3226,0.3226,0.3627,0.3627,0.3228,0.3627,0.3491,0.2887,0.2967,0.2906,0.2465,0.2468,0.0,0.0,0.0,0.0,0.0,0.0,0.0,0.0,0.0,0.0266,0.0056,0.0,-0.0867,0.0,-0.0922,-0.1139,-0.1403,-0.1267,0.0,0.0,-0.1349,-0.1589,-0.2273,-0.2507,-0.2833,-0.3444,-0.4587,-0.4971,-0.3816,-0.2473,-0.2308,-0.4156,-0.4085,-0.3958,-0.4172,-0.4595,-0.4864,-0.5034,-0.5179,-0.5257,-0.527,-0.5362,-0.5503,-0.5689,-0.6044,-0.6297,-0.6251,-0.6261,-0.6261,-0.6261,-0.6261,-0.6261,-0.6261,-0.649,-0.6714,-0.6945,-0.7013,-0.7304,-0.8045,-0.818,-0.8235,0.7013,0.6934,0.6872,0.6654,0.6431,0.654,0.6556,0.651,0.6564,0.6488,0.6309,0.613,0.5912,0.5692,0.5598,0.5544,0.5615,0.5496,0.5279,0.4957,0.4682,0.4524,0.4569,0.452,0.4545,0.463,0.4591,0.4594,0.4626,0.454,0.4449,0.4351,0.4259,0.4075,0.3803,0.363,0.356,0.3601,0.3522,0.3442,0.3436,0.3313,0.3334,0.356,0.3779,0.3823,0.3493,0.3709,0.3554,0.2908,0.3039,0.2955,0.2654,0.2289,0.2122,0.0,0.0,0.0,0.0,0.0,0.0,0.0,0.0,0.0,0.0,0.0,-0.0782,-0.1083,-0.1131,-0.1155,-0.1266,-0.1138,-0.1136,-0.1198,-0.1072,-0.1329,-0.2107,-0.2206,-0.2486,-0.3195,-0.3972,-0.4167,-0.3529,-0.2824,-0.2762,-0.4018,-0.422,-0.4389,-0.4734,-0.5071,-0.5311,-0.5254,-0.542,-0.5532,-0.5474,-0.5454,-0.5486,-0.5647,-0.5919,-0.6205,-0.657,-0.6357,-0.6225,-0.6587,-0.6384,-0.6186,-0.6244,-0.649,-0.6637,-0.6788,-0.7026,-0.7469,-0.7943,-0.8081,-0.8316,0.7065,0.7133,0.6931,0.6679,0.6492,0.6915,0.6893,0.6719,0.6825,0.676,0.6567,0.6475,0.6323,0.6135,0.6146,0.5955,0.5756,0.5578,0.5284,0.4984,0.4689,0.4596,0.4606,0.4596,0.4636,0.472,0.4643,0.4647,0.472,0.4645,0.4596,0.4571,0.4491,0.4365,0.4185,0.3942,0.383,0.3863,0.3718,0.3563,0.3401,0.3362,0.3513,0.3897,0.3838,0.3771,0.3771,0.3675,0.3381,0.2954,0.2954,0.2958,0.2909,0.2105,0.1675,0.0,0.1058,0.0,0.0,0.0,0.0,0.0,0.0,0.0,0.0,-0.0311,-0.0622,-0.0999,-0.1149,-0.1216,-0.1064,-0.1125,-0.1138,-0.1042,-0.098,-0.1254,-0.196,-0.217,-0.2464,-0.3013,-0.3019,-0.3048,-0.3393,-0.3781,-0.4119,-0.4035,-0.4257,-0.472,-0.5325,-0.5532,-0.5559,-0.5433,-0.5703,-0.5799,-0.5717,-0.5567,-0.552,-0.5867,-0.6146,-0.635,-0.7073,-0.6577,-0.6241,-0.6729,-0.6406,-0.6088,-0.6234,-0.649,-0.6556,-0.6703,-0.7103,-0.7446,-0.7809,-0.8267,-0.8475,0.7135,0.7152,0.7105,0.7076,0.7056,0.7103,0.6777,0.6225,0.6246,0.6285,0.6342,0.6407,0.6412,0.6377,0.6372,0.6165,0.5887,0.526,0.5052,0.5083,0.4814,0.472,0.4777,0.4716,0.4728,0.4806,0.4792,0.4794,0.481,0.4794,0.4712,0.4575,0.4555,0.4455,0.4277,0.0,0.0,0.0,0.3718,0.3685,0.3575,0.3362,0.3311,0.3355,0.3636,0.0,0.3226,0.3576,0.3383,0.259,0.2833,0.0,0.0,0.0,0.0,0.0,0.0,0.0,0.0,0.0,0.0,0.0,-0.0861,-0.0789,-0.0529,-0.0714,-0.0905,-0.1056,-0.1044,-0.1041,-0.1057,-0.1125,-0.1138,-0.11,-0.1104,-0.1186,-0.1573,-0.1651,-0.1727,-0.1879,-0.1736,-0.1955,-0.2985,-0.4581,-0.5528,-0.4873,-0.4695,-0.4959,-0.5651,-0.5745,-0.5745,-0.5728,-0.5929,-0.6093,-0.6211,-0.585,-0.6037,-0.696,-0.7616,-0.7711,-0.775,-0.7289,-0.6636,-0.6463,-0.6101,-0.6078,-0.6307,-0.6335,-0.6563,-0.6703,-0.6942,-0.7161,-0.768,-0.8761,-0.962,0.7154,0.0,0.7154,0.7202,0.0,0.7089,0.6706,0.6274,0.651,0.6616,0.6627,0.6684,0.6676,0.6613,0.6457,0.6168,0.5763,0.492,0.4704,0.4901,0.4758,0.471,0.4832,0.4792,0.4792,0.4832,0.4832,0.4832,0.4832,0.4832,0.479,0.4702,0.4661,0.4571,0.4434,0.4302,0.4099,0.383,0.383,0.3787,0.3689,0.3475,0.3477,0.3701,0.0,0.0,0.0,0.0,0.0,0.0,0.0,0.0,0.0,0.0,0.0,0.1301,0.0763,0.007,-0.0642,-0.0714,-0.0861,-0.1164,-0.1165,-0.1075,-0.0895,-0.1029,-0.1105,-0.1118,-0.1094,-0.1082,-0.1096,-0.1098,-0.1172,-0.119,-0.1277,-0.1365,-0.16,-0.175,-0.1759,-0.1632,-0.1561,-0.1863,-0.2786,-0.4869,-0.6074,-0.5715,-0.551,-0.5494,-0.5925,-0.5962,-0.5935,-0.6003,-0.6099,-0.6576,-0.7317,-0.7147,-0.7012,-0.797,-0.8317,-0.8284,-0.7962,-0.7371,-0.6897,-0.6913,-0.678,-0.6746,-0.7359,-0.7484,-0.7557,-0.7927,-0.8003,-0.8111,-0.8311,-0.895,-0.9636,0.7154,0.7154,0.7154,0.7155,0.7192,0.6973,0.6749,0.6586,0.0,0.0,0.0,0.6942,0.6896,0.679,0.6519,0.6165,0.5536,0.471,0.4385,0.4618,0.462,0.4696,0.483,0.4832,0.4832,0.4832,0.4832,0.4832,0.4832,0.4832,0.4832,0.4828,0.4765,0.4677,0.4567,0.4391,0.4228,0.4085,0.3979,0.3879,0.3785,0.3599,0.3678,0.4089,0.3673,0.3489,0.3537,0.3281,0.2678,0.1741,0.1662,0.1692,0.177,0.0686,0.0212,0.0711,-0.0364,-0.1044,-0.1218,-0.122,-0.123,-0.1335,-0.1336,-0.1226,-0.115,-0.1163,-0.1174,-0.1174,-0.1218,-0.1199,-0.1129,-0.1129,-0.1202,-0.1349,-0.1378,-0.1544,-0.1773,-0.1996,-0.1943,-0.1824,-0.1831,-0.2147,-0.3031,-0.4934,-0.6308,-0.6297,-0.6063,-0.6112,-0.621,-0.6218,-0.6173,-0.6246,-0.6565,-0.7257,-0.8463,-0.8773,-0.8685,-0.8898,-0.8881,-0.8651,-0.8231,-0.7453,-0.7316,-0.7923,-0.7698,-0.7786,-0.85,-0.8551,-0.8851,-0.9145,-0.914,-0.9064,-0.8937,-0.8817,-0.8987,0.7154,0.7154,0.7154,0.7246,0.7216,0.7216,0.7084,0.7032,0.6801,0.6687,0.6676,0.6782,0.682,0.6806,0.6768,0.6363,0.576,0.4771,0.4415,0.0,0.4798,0.481,0.4832,0.4832,0.4832,0.4832,0.4832,0.4832,0.4832,0.4832,0.4832,0.4832,0.482,0.4734,0.4569,0.4389,0.4287,0.4259,0.4099,0.3973,0.3881,0.3632,0.3495,0.3545,0.2749,0.2242,0.2257,0.1576,0.105,0.0962,0.0855,0.0945,0.1038,0.0855,0.0585,0.015,-0.0077,-0.0467,-0.125,-0.1251,-0.1253,-0.1335,-0.1336,-0.1329,-0.1239,-0.1218,-0.1206,-0.1204,-0.1399,-0.145,-0.1233,-0.1305,-0.1389,-0.1268,-0.1278,-0.1442,-0.1857,-0.194,-0.202,-0.2262,-0.2427,-0.2655,-0.3591,-0.5157,-0.6251,-0.6257,-0.6227,-0.6311,-0.6398,-0.6395,-0.644,-0.6499,-0.7343,-0.8491,-0.9476,-0.9884,-0.9985,-1.0421,-0.9829,-0.9469,-0.9498,-0.8744,-0.8264,-0.8398,-0.8373,-0.8477,-0.8737,-0.8703,-0.8927,-0.9226,-0.8983,-0.8903,-0.9296,-0.8604,-0.8128,0.7154,0.7154,0.7154,0.7154,0.7154,0.7154,0.7154,0.7141,0.698,0.6912,0.6918,0.6967,0.6994,0.6986,0.7034,0.6582,0.5794,0.5116,0.4766,0.4832,0.4787,0.4818,0.4898,0.4859,0.4832,0.4832,0.4832,0.4832,0.4832,0.4832,0.4832,0.483,0.479,0.47,0.4573,0.444,0.4346,0.4295,0.4126,0.4016,0.3969,0.3707,0.3344,0.29,0.2362,0.1883,0.1448,0.1046,0.0698,0.0345,0.0283,0.0289,0.0366,-0.0,-0.0229,-0.0077,-0.0468,-0.0863,-0.1258,-0.1336,-0.1336,-0.1336,-0.1336,-0.1336,-0.1336,-0.1245,-0.1236,-0.1235,-0.136,-0.134,-0.134,-0.134,-0.1421,-0.174,-0.1533,-0.1552,-0.1958,-0.1964,-0.2043,-0.2354,-0.2275,-0.2584,-0.3671,-0.5249,-0.6278,-0.6264,-0.6261,-0.6493,-0.7022,-0.7173,-0.7318,-0.7456,-0.8147,-0.9231,-1.0402,-1.0396,-1.053,-1.1037,-1.0627,-1.0143,-0.9935,-0.9337,-0.9119,-0.9134,-0.9211,-0.9479,-0.9825,-0.9981,-1.0132,-1.0207,-1.0235,-1.0084,-0.9599,-0.8505,-0.7966,0.7154,0.7154,0.7154,0.7154,0.7154,0.7154,0.7154,0.7154,0.7152,0.7154,0.7154,0.7154,0.7154,0.7138,0.7194,0.6725,0.5858,0.5401,0.5058,0.4885,0.4828,0.4871,0.4981,0.4908,0.4865,0.476,0.4744,0.4832,0.4832,0.4832,0.4832,0.4824,0.4749,0.4663,0.4573,0.4481,0.4389,0.4295,0.3886,0.38,0.3944,0.3551,0.3049,0.2437,0.1944,0.1402,0.0808,0.059,0.0222,-0.0295,-0.0377,-0.0382,-0.0306,-0.0933,-0.102,-0.047,-0.0942,-0.1336,-0.1336,-0.1336,-0.1336,-0.1336,-0.1336,-0.1336,-0.1336,-0.1336,-0.1336,-0.1333,-0.1313,-0.1375,-0.1375,-0.1375,-0.1451,-0.1912,-0.1709,-0.1648,-0.1962,-0.2042,-0.2118,-0.2348,-0.2503,-0.3125,-0.4219,-0.5482,-0.6271,-0.6264,-0.6261,-0.6721,-0.748,-0.7859,-0.8169,-0.8632,-0.9008,-0.9836,-1.1091,-1.0917,-1.0812,-1.1329,-1.0887,-1.0437,-1.0025,-0.9862,-0.9783,-0.9895,-1.0079,-1.0329,-1.0956,-1.1037,-1.1037,-1.1111,-1.1091,-1.0738,-0.9064,-0.8156,-0.7696,0.7154,0.7154,0.7154,0.7154,0.7154,0.7154,0.7154,0.7154,0.7154,0.7043,0.6824,0.7046,0.7046,0.6826,0.7035,0.6623,0.5755,0.5526,0.5258,0.5088,0.5075,0.5079,0.5086,0.5002,0.4957,0.4842,0.4774,0.4841,0.4832,0.4832,0.4832,0.4824,0.4751,0.4663,0.4571,0.4481,0.4391,0.4297,0.3325,0.317,0.3861,0.3049,0.2581,0.2501,0.1013,0.0154,0.0076,-0.0694,-0.1081,-0.1137,-0.1158,-0.1174,-0.1175,-0.1256,-0.1257,-0.1178,-0.1257,-0.1336,-0.1336,-0.1336,-0.1336,-0.1336,-0.1336,-0.1336,-0.1336,-0.1336,-0.1336,-0.1335,-0.149,-0.1486,-0.1331,-0.1487,-0.1484,-0.1484,-0.1411,-0.1415,-0.1728,-0.2275,-0.2504,-0.2033,-0.3443,-0.5015,-0.5721,-0.6119,-0.6271,-0.6261,-0.6261,-0.6644,-0.7561,-0.8169,-0.8851,-0.9539,-1.0067,-1.0501,-1.1093,-1.1248,-1.118,-1.1254,-1.0645,-1.0381,-1.0513,-1.0375,-1.0029,-1.0558,-1.0846,-1.0956,-1.1037,-1.1117,-1.1117,-1.1111,-1.0929,-1.0349,-0.7995,-0.7234,-0.7475,0.7154,0.7154,0.7154,0.7154,0.7154,0.7154,0.7154,0.7154,0.7046,0.6824,0.6712,0.6715,0.6606,0.6495,0.6611,0.6362,0.5762,0.5545,0.5308,0.5265,0.5216,0.519,0.5177,0.5096,0.5026,0.4973,0.4932,0.4888,0.4843,0.4832,0.4832,0.4832,0.4798,0.4714,0.4581,0.4534,0.417,0.3496,0.2982,0.2592,0.2391,0.1968,0.1521,0.1038,0.0316,-0.0234,-0.0698,-0.1094,-0.1251,-0.1241,-0.125,-0.1336,-0.1336,-0.1336,-0.1336,-0.1336,-0.1336,-0.1492,-0.1962,-0.1571,-0.1492,-0.1962,-0.1571,-0.1336,-0.1336,-0.1336,-0.1336,-0.1336,-0.1415,-0.1415,-0.1493,-0.1415,-0.1493,-0.1573,-0.1493,-0.1571,-0.2273,-0.2507,-0.2741,-0.3361,-0.3984,-0.4846,-0.5951,-0.6268,-0.6264,-0.6261,-0.6257,-0.6718,-0.794,-0.8475,-0.9231,-1.0288,-1.0738,-1.0881,-1.1093,-1.1174,-1.126,-1.118,-1.0881,-1.0812,-1.0893,-1.0887,-1.0738,-1.1111,-1.1111,-1.1117,-1.1117,-1.1117,-1.1117,-1.0974,-1.0137,-0.917,-0.7003,-0.6938,-0.7223,0.7154,0.7154,0.7154,0.7154,0.7154,0.7154,0.7154,0.7154,0.6935,0.6712,0.6604,0.6497,0.6274,0.6161,0.6272,0.6049,0.5712,0.5493,0.5382,0.5375,0.5312,0.5282,0.5273,0.519,0.5098,0.5018,0.4981,0.4924,0.4843,0.4832,0.4832,0.4832,0.4832,0.4761,0.4626,0.4415,0.3776,0.2921,0.2321,0.159,0.0967,0.0677,0.0329,-0.0,-0.024,-0.0632,-0.1258,-0.1336,-0.1336,-0.1336,-0.1336,-0.1336,-0.1336,-0.1336,-0.1336,-0.1336,-0.1336,-0.1649,-0.2431,-0.1962,-0.1962,-0.2665,-0.2119,-0.1649,-0.1571,-0.1414,-0.1336,-0.1336,-0.1336,-0.1336,-0.1493,-0.1415,-0.1415,-0.173,-0.1649,-0.1961,-0.2586,-0.2898,-0.36,-0.4375,-0.4608,-0.4919,-0.5944,-0.6261,-0.6261,-0.6261,-0.6335,-0.6872,-0.8246,-0.8703,-0.9301,-1.0807,-1.1111,-1.1111,-1.1117,-1.1117,-1.1117,-1.1117,-1.1037,-1.1037,-1.1117,-1.1111,-1.1111,-1.1111,-1.1117,-1.1117,-1.1117,-1.1117,-1.1129,-1.0836,-1.0073,-0.8775,-0.7246,-0.7253,-0.7253,0.7154,0.7154,0.7154,0.7154,0.7154,0.7154,0.7154,0.7154,0.7154,0.6826,0.6383,0.6604,0.6381,0.5933,0.6161,0.5942,0.5491,0.5493,0.5493,0.538,0.5371,0.5373,0.5369,0.5279,0.519,0.5102,0.502,0.493,0.4839,0.4832,0.4832,0.4832,0.4832,0.479,0.4508,0.371,0.3097,0.2646,0.1112,0.0092,-0.0,-0.0796,-0.0763,-0.0246,-0.0812,-0.1205,-0.1262,-0.1336,-0.1336,-0.1336,-0.1336,-0.1336,-0.1336,-0.1336,-0.1336,-0.1336,-0.1336,-0.1649,-0.2354,-0.2433,-0.2743,-0.3443,-0.282,-0.2431,-0.2276,-0.1728,-0.1336,-0.1336,-0.1336,-0.1336,-0.1414,-0.1493,-0.1414,-0.1492,-0.2041,-0.2431,-0.2588,-0.391,-0.4691,-0.4846,-0.5473,-0.5944,-0.6257,-0.6261,-0.6261,-0.6261,-0.6261,-0.6872,-0.8246,-0.8703,-0.9458,-1.0588,-1.1117,-1.1117,-1.1117,-1.1117,-1.1117,-1.1117,-1.1117,-1.1117,-1.1117,-1.1117,-1.1117,-1.1117,-1.1117,-1.1117,-1.1117,-1.1129,-1.1079,-1.0854,-1.031,-0.9165,-0.8349,-0.7872,-0.7633,0.7154,0.7154,0.7154,0.7154,0.7154,0.7154,0.7154,0.7154,0.6935,0.6715,0.6604,0.6495,0.6272,0.6158,0.6272,0.6163,0.6054,0.594,0.5828,0.5712,0.5712,0.5603,0.5377,0.5345,0.5284,0.5192,0.5104,0.4981,0.4847,0.4832,0.4832,0.4832,0.4832,0.4491,0.3734,0.3329,0.2424,0.1143,0.028,-0.0277,-0.0924,-0.126,-0.1224,-0.0934,-0.1156,-0.1298,-0.1286,-0.1347,-0.1336,-0.1336,-0.1336,-0.1336,-0.1336,-0.1336,-0.1336,-0.1336,-0.1336,-0.1649,-0.2354,-0.251,-0.2899,-0.3599,-0.2976,-0.2511,-0.2353,-0.1806,-0.1336,-0.1336,-0.1336,-0.1493,-0.1962,-0.2041,-0.2041,-0.2198,-0.2821,-0.3522,-0.4068,-0.4691,-0.516,-0.5631,-0.6103,-0.6261,-0.6261,-0.6261,-0.6261,-0.6261,-0.6261,-0.7026,-0.8246,-0.8703,-0.9306,-1.0657,-1.1117,-1.1117,-1.1117,-1.1117,-1.1117,-1.1117,-1.1117,-1.1117,-1.1117,-1.1117,-1.1117,-1.1117,-1.1117,-1.1117,-1.1117,-1.1117,-1.1073,-1.0952,-1.0483,-1.0181,-0.9937,-0.8813,-0.8021,0.7154,0.7154,0.7154,0.7154,0.7154,0.7154,0.7154,0.7154,0.6935,0.6826,0.6715,0.6604,0.6495,0.6495,0.65,0.6611,0.6606,0.6609,0.6274,0.5822,0.5819,0.5603,0.5382,0.5382,0.5333,0.5126,0.4693,0.4484,0.4314,0.3974,0.3758,0.3758,0.3758,0.3422,0.2677,0.2273,0.1276,0.0097,-0.0381,-0.0847,-0.1401,-0.1466,-0.1436,-0.1403,-0.1356,-0.1321,-0.1304,-0.1283,-0.1346,-0.1338,-0.1336,-0.1336,-0.1336,-0.1336,-0.1336,-0.1336,-0.1336,-0.1649,-0.2354,-0.251,-0.2899,-0.3675,-0.3056,-0.2516,-0.2454,-0.1735,-0.1497,-0.1661,-0.1811,-0.2119,-0.2743,-0.3134,-0.3212,-0.3134,-0.3677,-0.438,-0.4927,-0.524,-0.5705,-0.6103,-0.6257,-0.6261,-0.6261,-0.6261,-0.6261,-0.6261,-0.657,-0.7415,-0.8399,-0.9008,-0.9533,-1.0812,-1.1117,-1.1117,-1.1117,-1.1117,-1.1117,-1.1117,-1.1117,-1.1117,-1.1117,-1.1117,-1.1117,-1.1117,-1.1117,-1.1117,-1.1117,-1.1117,-1.1067,-1.1033,-1.0865,-1.0622,-1.0035,-0.9357,-0.8484,0.7154,0.7154,0.7154,0.7154,0.7154,0.7154,0.7154,0.7154,0.7154,0.7046,0.6826,0.7046,0.6937,0.6829,0.6953,0.7062,0.6824,0.6951,0.6616,0.5933,0.5822,0.5601,0.527,0.5156,0.5,0.4804,0.3909,0.3353,0.3173,0.2503,0.2069,0.1759,0.1859,0.1842,0.1613,0.0704,0.0101,-0.03,-0.0985,-0.1455,-0.1526,-0.1493,-0.1461,-0.1433,-0.1402,-0.1363,-0.131,-0.1303,-0.1286,-0.134,-0.1336,-0.1336,-0.1336,-0.1336,-0.1336,-0.1336,-0.1336,-0.1727,-0.2276,-0.2431,-0.2899,-0.3366,-0.2979,-0.2538,-0.2489,-0.191,-0.1746,-0.2328,-0.2699,-0.3136,-0.3754,-0.4392,-0.4548,-0.4064,-0.4533,-0.5082,-0.524,-0.5786,-0.6257,-0.6261,-0.6261,-0.6264,-0.6342,-0.6362,-0.6373,-0.6525,-0.6987,-0.7821,-0.8556,-0.916,-1.0067,-1.0818,-1.1117,-1.1117,-1.1117,-1.1117,-1.1117,-1.1117,-1.1117,-1.1117,-1.1117,-1.1117,-1.1117,-1.1117,-1.1117,-1.1117,-1.1117,-1.1117,-1.1117,-1.1067,-1.098,-1.0905,-1.0466,-0.9792,-0.8861,0.7154,0.7154,0.7154,0.7154,0.7154,0.7154,0.7154,0.7154,0.7154,0.7154,0.7046,0.7168,0.7173,0.7067,0.7184,0.6279,0.4921,0.6281,0.6847,0.6161,0.6047,0.5373,0.4367,0.4143,0.3661,0.3058,0.3239,0.2886,0.2339,0.2432,0.2426,0.1684,0.1561,0.1239,0.0513,0.0101,-0.0303,-0.1108,-0.1389,-0.1557,-0.1526,-0.1497,-0.1467,-0.1438,-0.1425,-0.1401,-0.1365,-0.1324,-0.1289,-0.1339,-0.1336,-0.1336,-0.1336,-0.1336,-0.1336,-0.1336,-0.1336,-0.1335,-0.1649,-0.2196,-0.2588,-0.2829,-0.2701,-0.2572,-0.2591,-0.2338,-0.2254,-0.2669,-0.3175,-0.3832,-0.447,-0.4925,-0.5007,-0.4623,-0.5395,-0.587,-0.5867,-0.6103,-0.6257,-0.6261,-0.6261,-0.6302,-0.6458,-0.6486,-0.6558,-0.6486,-0.6878,-0.7395,-0.844,-0.9013,-0.9685,-1.0738,-1.0887,-1.1117,-1.1117,-1.1117,-1.1117,-1.1117,-1.1117,-1.1117,-1.1117,-1.1117,-1.1117,-1.1117,-1.1117,-1.1117,-1.1117,-1.1117,-1.1117,-1.1117,-1.1043,-1.098,-1.0992,-1.0229,-0.9079,0.7154,0.7154,0.7154,0.7154,0.7154,0.7154,0.7154,0.7154,0.7163,0.7165,0.7168,0.7179,0.6619,0.6168,0.6743,0.5837,0.403,0.6063,0.6512,0.5487,0.5262,0.4365,0.3134,0.3469,0.3564,0.3087,0.2846,0.2395,0.1626,0.14,0.0964,0.0425,0.0315,0.0104,-0.0514,-0.0609,-0.1009,-0.1513,-0.1598,-0.1573,-0.1546,-0.1524,-0.1494,-0.1459,-0.1452,-0.1431,-0.1393,-0.1353,-0.1316,-0.1281,-0.1343,-0.1336,-0.1336,-0.1336,-0.1336,-0.1336,-0.1336,-0.1414,-0.1727,-0.1962,-0.2198,-0.2363,-0.2244,-0.212,-0.2128,-0.2127,-0.2197,-0.2616,-0.3347,-0.4144,-0.4862,-0.543,-0.5601,-0.5488,-0.5999,-0.6312,-0.6281,-0.6261,-0.6261,-0.6261,-0.6261,-0.641,-0.651,-0.6638,-0.6669,-0.6616,-0.6827,-0.7327,-0.844,-0.8975,-0.9938,-1.0669,-1.0962,-1.1117,-1.1117,-1.1117,-1.1117,-1.1117,-1.1117,-1.1117,-1.1117,-1.1117,-1.1117,-1.1117,-1.1117,-1.1117,-1.1117,-1.1117,-1.1117,-1.1117,-1.1117,-1.1049,-1.0905,-0.9916,-0.8927,0.7154,0.7154,0.7154,0.7154,0.7154,0.7154,0.7154,0.7157,0.7173,0.7065,0.6842,0.7075,0.5721,0.4369,0.5276,0.4825,0.4032,0.505,0.539,0.4143,0.3582,0.2799,0.1903,0.235,0.3018,0.3568,0.2644,0.1764,0.1112,-0.0,-0.1628,-0.1396,-0.1386,-0.1573,-0.1435,-0.152,-0.1515,-0.1515,-0.1615,-0.1598,-0.157,-0.1568,-0.1538,-0.1482,-0.1476,-0.1452,-0.1405,-0.1382,-0.1354,-0.1307,-0.1352,-0.1336,-0.1336,-0.1336,-0.1336,-0.1336,-0.1336,-0.1728,-0.2119,-0.1962,-0.1884,-0.2437,-0.2173,-0.1399,-0.1756,-0.2159,-0.2482,-0.3096,-0.3804,-0.4415,-0.5227,-0.5885,-0.6381,-0.6352,-0.6386,-0.6373,-0.6376,-0.6285,-0.6386,-0.6315,-0.6302,-0.6349,-0.6599,-0.6789,-0.6767,-0.6819,-0.7178,-0.7745,-0.8492,-0.9097,-1.0052,-1.0628,-1.0935,-1.1154,-1.1166,-1.1117,-1.1117,-1.1117,-1.1117,-1.1123,-1.1117,-1.1117,-1.1117,-1.1117,-1.1117,-1.1117,-1.1117,-1.1117,-1.1117,-1.1117,-1.1117,-1.1117,-1.0738,-0.9981,-0.9236,0.7154,0.7154,0.7154,0.7154,0.7154,0.7154,0.7154,0.7157,0.7173,0.6272,0.526,0.6403,0.4711,-0.0,-0.0,0.1457,-0.0,-0.0,0.2805,0.3366,0.2353,0.1345,0.0448,-0.0112,-0.0112,0.0447,0.1559,0.1114,-0.056,0.0334,-0.0111,-0.177,-0.1725,-0.1698,-0.1678,-0.1637,-0.1618,-0.1617,-0.1617,-0.1603,-0.1578,-0.1573,-0.1542,-0.1487,-0.1483,-0.1463,-0.1423,-0.1381,-0.1343,-0.1305,-0.1274,-0.1336,-0.1338,-0.134,-0.1341,-0.1339,-0.1338,-0.165,-0.228,-0.2359,-0.2434,-0.2752,-0.3014,-0.3099,-0.281,-0.375,-0.435,-0.4869,-0.543,-0.5912,-0.6188,-0.6533,-0.6753,-0.6729,-0.6522,-0.6369,-0.6396,-0.6503,-0.6534,-0.6559,-0.6397,-0.6548,-0.6732,-0.687,-0.6979,-0.6925,-0.7052,-0.7371,-0.8197,-0.9007,-0.9802,-1.0308,-1.0714,-1.1,-1.1202,-1.1141,-1.1117,-1.1117,-1.1117,-1.1129,-1.1129,-1.1129,-1.1123,-1.1117,-1.1117,-1.1117,-1.1117,-1.1117,-1.1117,-1.1117,-1.1117,-1.1117,-1.1111,-1.0588,-0.9695,0.7154,0.7154,0.7154,0.7154,0.7154,0.7154,0.7154,0.716,0.7179,0.5826,0.414,0.3811,0.2689,-0.0,-0.0,-0.0,-0.0,-0.0,-0.0,0.157,0.0561,-0.0336,-0.0897,-0.157,-0.1346,-0.0224,0.1232,0.1904,0.1457,0.112,-0.0446,-0.1548,-0.1742,-0.1712,-0.1682,-0.1656,-0.1628,-0.162,-0.1616,-0.1607,-0.1592,-0.159,-0.1566,-0.1528,-0.1517,-0.15,-0.1455,-0.1397,-0.1352,-0.1323,-0.1294,-0.1276,-0.1277,-0.129,-0.129,-0.1359,-0.1688,-0.2263,-0.2986,-0.3227,-0.3467,-0.3808,-0.4172,-0.3908,-0.378,-0.4491,-0.493,-0.4915,-0.5762,-0.6124,-0.629,-0.6528,-0.6854,-0.6858,-0.6637,-0.6458,-0.6481,-0.661,-0.6566,-0.6532,-0.6582,-0.6672,-0.682,-0.7018,-0.7052,-0.6983,-0.6943,-0.7337,-0.7875,-0.8755,-0.9494,-1.0095,-1.0727,-1.1254,-1.1317,-1.1232,-1.1135,-1.1123,-1.1244,-1.1232,-1.1154,-1.116,-1.1178,-1.1172,-1.1141,-1.1117,-1.1117,-1.1117,-1.1117,-1.1117,-1.1117,-1.1117,-1.1117,-1.0634,-0.9813,0.7154,0.7154,0.7154,0.7154,0.7154,0.7154,0.7157,0.7163,0.7184,0.6061,0.4032,0.1232,-0.0,-0.0,-0.0,-0.0,-0.0,-0.0,-0.0,-0.0,-0.0673,-0.1234,-0.1346,-0.1458,-0.0673,0.0672,0.1458,0.258,0.2806,0.0448,-0.1113,-0.1544,-0.1753,-0.1719,-0.1684,-0.1664,-0.1645,-0.1622,-0.1617,-0.1615,-0.1611,-0.161,-0.1593,-0.1566,-0.1551,-0.1526,-0.1477,-0.1425,-0.1383,-0.1274,-0.1326,-0.1309,-0.131,-0.1334,-0.1498,-0.1726,-0.2481,-0.3336,-0.4016,-0.4248,-0.4684,-0.5282,-0.4944,-0.4504,-0.469,-0.4961,-0.4961,-0.505,-0.5286,-0.5861,-0.6024,-0.6434,-0.6759,-0.6929,-0.682,-0.6688,-0.659,-0.6641,-0.6589,-0.6488,-0.685,-0.6979,-0.6984,-0.6963,-0.7087,-0.7065,-0.7027,-0.7204,-0.7881,-0.8774,-0.9417,-0.9978,-1.0745,-1.1534,-1.1479,-1.1329,-1.1214,-1.1154,-1.1359,-1.1389,-1.122,-1.1208,-1.125,-1.1244,-1.1154,-1.1111,-1.1111,-1.1111,-1.1043,-1.1141,-1.1085,-1.1148,-1.1067,-1.0236,-0.9433,0.7154,0.7154,0.7154,0.7154,0.7154,0.7154,0.7163,0.7179,0.719,0.6857,0.5504,0.1906,-0.0,-0.0,-0.0,-0.0,-0.0,-0.0,-0.0,-0.0,-0.0224,-0.0673,-0.1009,-0.1121,-0.0785,-0.0112,-0.0224,0.0112,0.0561,0.1681,0.1007,-0.1114,-0.165,-0.1731,-0.1698,-0.1673,-0.1647,-0.1622,-0.1617,-0.1617,-0.1617,-0.1616,-0.1603,-0.1575,-0.1552,-0.1521,-0.1484,-0.1446,-0.1423,-0.1406,-0.137,-0.1425,-0.1508,-0.2017,-0.2436,-0.2679,-0.3348,-0.4285,-0.4946,-0.5215,-0.5558,-0.631,-0.6291,-0.6365,-0.6464,-0.6373,-0.6377,-0.6467,-0.6621,-0.6663,-0.6657,-0.6857,-0.695,-0.7051,-0.7041,-0.697,-0.6871,-0.677,-0.6806,-0.6863,-0.699,-0.7058,-0.6997,-0.7078,-0.7105,-0.7044,-0.7099,-0.7131,-0.7782,-0.8687,-0.9428,-0.9945,-1.1103,-1.1822,-1.1721,-1.1552,-1.1312,-1.1153,-1.1301,-1.1504,-1.1336,-1.1323,-1.1395,-1.1298,-1.1135,-1.1111,-1.1111,-1.0743,-1.0599,-1.0865,-1.1121,-1.1022,-1.0726,-0.9898,-0.9247,0.7154,0.7154,0.7154,0.716,0.7168,0.7168,0.7176,0.719,0.7198,0.7203,0.6186,0.2131,-0.0,-0.0,-0.0,-0.0,-0.0,-0.0,-0.0,-0.0,-0.0,-0.0224,-0.0336,-0.0448,-0.0448,-0.0,-0.0448,-0.0448,0.0112,-0.0,0.0672,-0.0897,-0.1555,-0.1747,-0.171,-0.1688,-0.1659,-0.1625,-0.1617,-0.1617,-0.1617,-0.1616,-0.1612,-0.159,-0.1564,-0.1538,-0.1524,-0.148,-0.1461,-0.1536,-0.1854,-0.207,-0.2059,-0.2497,-0.3014,-0.3498,-0.4389,-0.5009,-0.5529,-0.6043,-0.6411,-0.6883,-0.701,-0.7058,-0.7119,-0.7139,-0.7139,-0.7139,-0.7048,-0.7136,-0.7139,-0.7136,-0.7139,-0.7139,-0.7139,-0.7014,-0.6957,-0.694,-0.6927,-0.6977,-0.6984,-0.7112,-0.7139,-0.7139,-0.7139,-0.7136,-0.7136,-0.7176,-0.7614,-0.8533,-0.9366,-1.0204,-1.1472,-1.2098,-1.1992,-1.1799,-1.1522,-1.1307,-1.1187,-1.1449,-1.1504,-1.1522,-1.157,-1.1383,-1.1172,-1.1117,-1.1043,-1.0599,-1.0396,-1.0744,-1.0988,-1.0889,-1.047,-0.9581,-0.9178,0.7154,0.7154,0.7157,0.7168,0.7182,0.673,0.6847,0.7198,0.7206,0.6524,0.5508,0.157,-0.0,-0.0,-0.0,-0.0,-0.0,-0.0,-0.0,-0.0,-0.0,-0.0,-0.0,-0.0,-0.0,-0.0,-0.0,-0.0,-0.0,-0.0,-0.0,-0.0897,-0.157,-0.1765,-0.1723,-0.1703,-0.1678,-0.1635,-0.1621,-0.1617,-0.1617,-0.1617,-0.1615,-0.2009,-0.1692,-0.1768,-0.1845,-0.1706,-0.1485,-0.1572,-0.2357,-0.2845,-0.3081,-0.3268,-0.3556,-0.4437,-0.5378,-0.5934,-0.6113,-0.6574,-0.7024,-0.7139,-0.7136,-0.7136,-0.7139,-0.7139,-0.7139,-0.7139,-0.7139,-0.7139,-0.7139,-0.7139,-0.7139,-0.7139,-0.7139,-0.7139,-0.7139,-0.7139,-0.6994,-0.694,-0.6994,-0.7132,-0.7139,-0.7139,-0.7139,-0.7139,-0.7139,-0.7228,-0.7665,-0.8269,-0.91,-1.0029,-1.1144,-1.2016,-1.208,-1.1921,-1.1667,-1.1504,-1.1286,-1.1417,-1.1623,-1.1588,-1.1546,-1.1389,-1.1232,-1.119,-1.0992,-1.0594,-1.0553,-1.0843,-1.0509,-1.0149,-0.9663,-0.9189,-0.9129,0.7154,0.7157,0.7171,0.7182,0.6842,0.515,0.5384,0.698,0.6868,0.4828,-0.0,-0.0,-0.0,-0.0,-0.0,-0.0,-0.0,-0.0,-0.0,-0.0,-0.0,-0.0,-0.0,-0.0,-0.0,-0.0,-0.0,-0.0,-0.0,-0.0,-0.0,-0.0897,-0.1458,-0.1773,-0.1742,-0.1718,-0.1691,-0.1652,-0.1632,-0.1622,-0.1617,-0.1717,-0.2119,-0.2621,-0.2207,-0.229,-0.2547,-0.2018,-0.1507,-0.1574,-0.2448,-0.3223,-0.4003,-0.4725,-0.5166,-0.551,-0.6228,-0.6694,-0.6786,-0.6962,-0.7139,-0.7139,-0.7139,-0.7139,-0.7139,-0.7139,-0.7139,-0.7139,-0.7139,-0.7139,-0.7139,-0.7139,-0.7139,-0.7139,-0.7139,-0.7139,-0.7139,-0.7153,-0.7139,-0.7001,-0.7119,-0.7139,-0.7139,-0.7139,-0.7139,-0.7139,-0.7139,-0.7139,-0.7316,-0.8013,-0.8873,-0.9822,-1.0768,-1.1562,-1.2064,-1.1932,-1.1745,-1.1685,-1.163,-1.1654,-1.1733,-1.1618,-1.1492,-1.1534,-1.1425,-1.131,-1.1017,-1.0721,-1.0714,-1.0906,-1.0164,-0.933,-0.9015,-0.8786,-0.9201,0.7168,0.7171,0.7184,0.5717,0.3917,0.5044,0.4599,0.3478,0.3366,0.2243,-0.0,-0.0,-0.0,-0.0,-0.0,-0.0,-0.0,-0.0,-0.0,-0.0,-0.0,-0.0,-0.0,-0.0,-0.0,-0.0,-0.0,-0.0,-0.0,-0.0,-0.0897,-0.1009,-0.1458,-0.178,-0.1755,-0.1735,-0.1703,-0.1671,-0.1648,-0.1631,-0.1719,-0.2018,-0.2722,-0.2923,-0.3224,-0.3307,-0.2976,-0.2797,-0.2372,-0.2433,-0.3097,-0.4039,-0.4914,-0.5811,-0.6435,-0.6523,-0.6874,-0.7139,-0.7139,-0.7139,-0.7139,-0.7139,-0.7139,-0.7139,-0.7139,-0.7139,-0.7139,-0.7139,-0.7139,-0.7139,-0.7139,-0.7139,-0.7139,-0.7139,-0.7143,-0.7146,-0.716,-0.7217,-0.7204,-0.7163,-0.7143,-0.7139,-0.7139,-0.7139,-0.7139,-0.7139,-0.7139,-0.7139,-0.7139,-0.7753,-0.854,-0.9497,-1.0524,-1.1464,-1.2093,-1.218,-1.1939,-1.183,-1.1897,-1.1921,-1.1964,-1.186,-1.1902,-1.1962,-1.1781,-1.1449,-1.1312,-1.1106,-1.1041,-1.0884,-1.0194,-0.9518,-0.8823,-0.8642,-0.895,0.7184,0.7184,0.7195,0.4372,0.1119,0.4038,0.3591,-0.0,-0.0,-0.0,-0.0,-0.0,-0.0,-0.0,-0.0,-0.0,-0.0,-0.0,-0.0,-0.0,-0.0,-0.0,-0.0,-0.0,-0.0,-0.0,-0.0,-0.0,-0.0,-0.1121,-0.1458,-0.1346,-0.1683,-0.1785,-0.1763,-0.1751,-0.1717,-0.1694,-0.1665,-0.175,-0.213,-0.2723,-0.3525,-0.3725,-0.4526,-0.4423,-0.4104,-0.3588,-0.3431,-0.3569,-0.4127,-0.4912,-0.5722,-0.6637,-0.7098,-0.7183,-0.716,-0.7143,-0.7139,-0.7139,-0.7139,-0.7139,-0.7139,-0.7139,-0.7139,-0.7139,-0.7139,-0.7139,-0.7139,-0.7139,-0.7139,-0.7139,-0.7139,-0.7153,-0.717,-0.7197,-0.7231,-0.7355,-0.7552,-0.7413,-0.7262,-0.7228,-0.7316,-0.7944,-0.8124,-0.7404,-0.7401,-0.7316,-0.7316,-0.7492,-0.8277,-0.9235,-1.0255,-1.1406,-1.2102,-1.2487,-1.2316,-1.2032,-1.2083,-1.2158,-1.2237,-1.2216,-1.2252,-1.2234,-1.1842,-1.1552,-1.1516,-1.1522,-1.1349,-1.0998,-1.0374,-0.9907,-0.9582,-0.8634,-0.8292,0.7187,0.7195,0.7089,0.4375,-0.0,-0.0,-0.0,-0.0,-0.0,-0.0,-0.0,-0.0,-0.0,-0.0,-0.0,-0.0,-0.0,-0.0,-0.0,-0.0,-0.0,-0.0,-0.0,-0.0,-0.0,-0.0,-0.0,-0.0,-0.0,-0.1234,-0.1795,-0.1683,-0.1683,-0.1792,-0.1782,-0.1765,-0.1747,-0.1731,-0.1688,-0.2057,-0.2832,-0.3123,-0.4228,-0.5229,-0.5427,-0.5227,-0.5508,-0.4865,-0.4484,-0.4456,-0.5129,-0.5557,-0.5916,-0.6734,-0.7238,-0.7302,-0.7231,-0.7143,-0.716,-0.7146,-0.716,-0.7163,-0.7163,-0.7146,-0.7163,-0.7166,-0.7163,-0.7139,-0.7139,-0.7139,-0.7139,-0.7139,-0.7139,-0.7193,-0.7255,-0.7309,-0.7353,-0.7724,-0.7916,-0.7923,-0.7849,-0.7609,-0.758,-0.848,-0.9112,-0.8296,-0.7665,-0.7577,-0.7753,-0.8013,-0.8536,-0.9579,-1.0366,-1.1434,-1.2178,-1.2566,-1.2506,-1.2284,-1.23,-1.2359,-1.2425,-1.2403,-1.2457,-1.2343,-1.1974,-1.1793,-1.183,-1.175,-1.1544,-1.1346,-1.1123,-1.0849,-1.0502,-0.9432,-0.8139,0.7198,0.6977,0.4265,0.1905,-0.0,-0.0,-0.0,-0.0,-0.0,-0.0,-0.0,-0.0,-0.0,-0.0,-0.0,-0.0,-0.0,-0.0,-0.0,-0.0,-0.0,-0.0,-0.0,-0.0,-0.0,-0.0,-0.0,-0.0,-0.0,-0.0785,-0.1458,-0.1795,-0.1795,-0.1795,-0.1795,-0.1782,-0.1765,-0.1738,-0.18,-0.2264,-0.3039,-0.3825,-0.4826,-0.6334,-0.6431,-0.6531,-0.6291,-0.5989,-0.5603,-0.5573,-0.5906,-0.6296,-0.6673,-0.7184,-0.7499,-0.7495,-0.7444,-0.7366,-0.7282,-0.7197,-0.7207,-0.7258,-0.7272,-0.7278,-0.7272,-0.7268,-0.7224,-0.7146,-0.7143,-0.7143,-0.7143,-0.7139,-0.72,-0.7261,-0.7507,-0.7583,-0.7816,-0.8214,-0.8387,-0.8458,-0.8527,-0.8621,-0.8723,-0.9336,-0.9878,-0.9161,-0.8623,-0.854,-0.8711,-0.9144,-0.9662,-1.0351,-1.0966,-1.1569,-1.2237,-1.2644,-1.2638,-1.2524,-1.2539,-1.2545,-1.2559,-1.2536,-1.256,-1.2596,-1.2433,-1.2294,-1.2216,-1.2089,-1.1831,-1.195,-1.2017,-1.1338,-1.0567,-0.9786,-0.8653,0.6529,0.5056,0.1458,-0.0,-0.0,-0.0,-0.0,-0.0,-0.0,-0.0,-0.0,-0.0,-0.0,-0.0,-0.0,-0.0,-0.0,-0.0,-0.0,-0.0,-0.0,-0.0,-0.0,-0.0,-0.0,-0.0,-0.0,-0.0,-0.0,-0.0673,-0.1234,-0.1795,-0.1795,-0.1795,-0.1795,-0.1791,-0.1778,-0.1856,-0.2126,-0.2696,-0.3666,-0.474,-0.5734,-0.6734,-0.7441,-0.764,-0.6918,-0.6709,-0.664,-0.6608,-0.6599,-0.6892,-0.7379,-0.7516,-0.7645,-0.7648,-0.7628,-0.759,-0.7485,-0.7397,-0.7343,-0.7383,-0.7431,-0.7428,-0.7428,-0.7424,-0.7366,-0.7231,-0.7217,-0.7193,-0.716,-0.717,-0.7396,-0.7656,-0.7829,-0.8007,-0.8255,-0.8882,-0.9379,-0.9525,-0.9851,-1.0382,-1.0487,-1.0636,-1.0539,-0.9927,-0.9666,-0.9497,-0.9666,-0.9923,-1.0265,-1.0783,-1.1139,-1.1666,-1.2351,-1.2693,-1.2699,-1.2668,-1.2686,-1.2649,-1.2656,-1.2584,-1.2584,-1.2632,-1.2693,-1.2632,-1.2457,-1.2318,-1.221,-1.2278,-1.214,-1.1139,-1.0338,-0.963,-0.8924,0.4609,0.0448,-0.0,-0.0,-0.0,-0.0,-0.0,-0.0,-0.0,-0.0,-0.0,-0.0,-0.0,-0.0,-0.0,-0.0,-0.0,-0.0,-0.0,-0.0,-0.0,-0.0,-0.0,-0.0,-0.0,-0.0,-0.0,-0.0,-0.0,-0.0673,-0.1234,-0.1683,-0.1795,-0.1795,-0.1795,-0.1793,-0.2001,-0.2188,-0.2679,-0.3679,-0.4637,-0.5691,-0.6648,-0.7537,-0.7939,-0.7935,-0.7829,-0.7612,-0.7547,-0.7544,-0.7442,-0.7377,-0.76,-0.7756,-0.7794,-0.7797,-0.7797,-0.7777,-0.7716,-0.76,-0.7567,-0.7573,-0.7594,-0.76,-0.758,-0.7584,-0.7509,-0.7383,-0.736,-0.7299,-0.7261,-0.7337,-0.7854,-0.8246,-0.8615,-0.9158,-0.946,-0.9835,-1.0319,-1.0657,-1.104,-1.146,-1.175,-1.1739,-1.1435,-1.0895,-1.0885,-1.0712,-1.0279,-1.0361,-1.0616,-1.0961,-1.123,-1.1752,-1.2443,-1.2705,-1.2705,-1.2705,-1.2705,-1.2699,-1.2662,-1.2656,-1.262,-1.265,-1.2705,-1.2705,-1.2693,-1.2548,-1.2487,-1.2608,-1.2151,-1.108,-0.9749,-0.8693,-0.815,0.1683,-0.0,-0.0,-0.0,-0.0,-0.0,-0.0,-0.0,-0.0,-0.0,-0.0,-0.0,-0.0,-0.0,-0.0,-0.0,-0.0,-0.0,-0.0,-0.0,-0.0,-0.0,-0.0,-0.0,-0.0,-0.0,-0.0,-0.0561,-0.0,-0.1009,-0.1234,-0.157,-0.1907,-0.1795,-0.1795,-0.1905,-0.222,-0.2849,-0.3353,-0.4154,-0.5803,-0.6264,-0.7015,-0.7942,-0.8038,-0.8038,-0.7932,-0.7888,-0.796,-0.7933,-0.7885,-0.7858,-0.7841,-0.7909,-0.7929,-0.7936,-0.7933,-0.7936,-0.7896,-0.7756,-0.7641,-0.7746,-0.7801,-0.7824,-0.7743,-0.7828,-0.7753,-0.7664,-0.7512,-0.7458,-0.7461,-0.8018,-0.8686,-0.893,-0.9421,-1.0071,-1.061,-1.0985,-1.1056,-1.1287,-1.1817,-1.2254,-1.2532,-1.2809,-1.2366,-1.1871,-1.194,-1.1929,-1.1316,-1.1058,-1.1311,-1.1483,-1.1752,-1.1923,-1.2613,-1.2705,-1.2705,-1.2705,-1.2705,-1.2705,-1.2705,-1.2699,-1.2674,-1.2699,-1.2705,-1.2705,-1.2705,-1.2705,-1.2699,-1.2699,-1.2003,-1.0869,-0.9472,-0.808,-0.7706,-0.0,-0.0,-0.0,-0.0,-0.0,-0.0,-0.0,-0.0,-0.0,-0.0,-0.0,-0.0,-0.0,-0.0,-0.0,-0.0,-0.0,-0.0,-0.0,-0.0,-0.0,-0.0,-0.0,-0.0,-0.0,-0.0,-0.0,-0.0561,-0.157,-0.1346,-0.1458,-0.1794,-0.213,-0.2242,-0.1907,-0.2241,-0.2782,-0.3415,-0.4329,-0.4929,-0.6567,-0.6986,-0.7235,-0.7945,-0.8038,-0.8038,-0.8038,-0.8021,-0.8024,-0.8021,-0.8014,-0.8028,-0.8031,-0.8038,-0.8038,-0.8038,-0.8038,-0.8038,-0.7977,-0.7892,-0.7777,-0.7879,-0.795,-0.795,-0.7913,-0.7976,-0.7818,-0.7685,-0.7658,-0.7743,-0.7918,-0.8734,-0.9638,-1.0062,-1.0696,-1.1346,-1.1733,-1.221,-1.1957,-1.187,-1.2484,-1.296,-1.3153,-1.33,-1.2784,-1.2353,-1.2369,-1.2272,-1.21,-1.1923,-1.218,-1.2351,-1.2443,-1.2528,-1.2705,-1.2705,-1.2705,-1.2705,-1.2705,-1.2705,-1.2705,-1.2705,-1.2705,-1.2705,-1.2705,-1.2705,-1.2705,-1.2705,-1.2705,-1.2699,-1.1705,-1.0469,-0.9407,-0.8174,-0.77,-0.0,-0.0,-0.0,-0.0,-0.0,-0.0,-0.0,-0.0,-0.0,-0.0,-0.0,-0.0,-0.0,-0.0,-0.0,-0.0,-0.0,-0.0,-0.0,-0.0,-0.0,-0.0,-0.0,-0.0,-0.0,-0.0,-0.0,-0.067,-0.2018,-0.2242,-0.2242,-0.2465,-0.3135,-0.3136,-0.2131,-0.3024,-0.3579,-0.3893,-0.5623,-0.6399,-0.6942,-0.761,-0.7908,-0.7945,-0.8038,-0.8038,-0.8038,-0.8038,-0.8038,-0.8038,-0.8038,-0.8038,-0.8038,-0.8038,-0.8038,-0.8038,-0.8038,-0.8038,-0.8031,-0.8018,-0.8001,-0.7991,-0.8028,-0.8014,-0.8021,-0.8007,-0.7963,-0.7821,-0.8004,-0.8413,-0.8855,-0.9502,-1.0524,-1.1248,-1.1802,-1.2384,-1.2772,-1.3009,-1.2755,-1.2763,-1.3199,-1.361,-1.3634,-1.3594,-1.3124,-1.2763,-1.2741,-1.2619,-1.2534,-1.2534,-1.2705,-1.2705,-1.2705,-1.2705,-1.2705,-1.2705,-1.2705,-1.2705,-1.2705,-1.2705,-1.2705,-1.2705,-1.2705,-1.2705,-1.2705,-1.2705,-1.2705,-1.2705,-1.2404,-1.2025,-1.1185,-1.0023,-0.9018,-0.8283,-0.7823,-0.0,-0.0,-0.0,-0.0,-0.0,-0.0,-0.0,-0.0,-0.0,-0.0,-0.0,-0.0,-0.0,-0.0,-0.0,-0.0,-0.0,-0.0,-0.0,-0.0,-0.0,-0.0,-0.0,-0.0,-0.0,-0.0,-0.0,-0.178,-0.3696,-0.381,-0.4142,-0.4362,-0.4472,-0.4583,-0.436,-0.4806,-0.5027,-0.5791,-0.6668,-0.7088,-0.7836,-0.8084,-0.8136,-0.8048,-0.8048,-0.8038,-0.8038,-0.8038,-0.8038,-0.8038,-0.8038,-0.8038,-0.8038,-0.8038,-0.8038,-0.8038,-0.8038,-0.8038,-0.8038,-0.8031,-0.8035,-0.8038,-0.8038,-0.8038,-0.8038,-0.8038,-0.8001,-0.8167,-0.8724,-0.9162,-0.9478,-1.0918,-1.1934,-1.2151,-1.2637,-1.3205,-1.3635,-1.3635,-1.3572,-1.3755,-1.4039,-1.3564,-1.3513,-1.3738,-1.3404,-1.3,-1.2874,-1.2747,-1.2631,-1.2625,-1.2711,-1.2705,-1.2705,-1.2705,-1.2717,-1.2813,-1.2843,-1.2843,-1.2777,-1.2705,-1.2705,-1.2729,-1.2705,-1.2705,-1.2705,-1.2705,-1.2637,-1.2416,-1.181,-1.1191,-1.0437,-0.9514,-0.8455,-0.8031,-0.7903,-0.0,-0.0,-0.0,-0.0,-0.0,-0.0,-0.0,-0.0,-0.0,-0.0,-0.0,-0.0,-0.0,-0.0,-0.0,-0.0,-0.0,-0.0,-0.0,-0.0,-0.0,-0.0,-0.0,-0.0,-0.0,-0.1772,-0.2887,-0.4223,-0.4925,-0.5487,-0.5708,-0.5813,-0.6031,-0.6255,-0.6255,-0.6478,-0.6255,-0.6882,-0.7314,-0.7846,-0.8279,-0.8347,-0.8163,-0.8116,-0.8082,-0.8038,-0.8038,-0.8038,-0.8038,-0.8038,-0.8038,-0.8038,-0.8038,-0.8038,-0.8038,-0.8038,-0.8038,-0.8038,-0.8038,-0.8038,-0.8038,-0.8038,-0.8038,-0.8038,-0.8038,-0.8038,-0.8336,-0.8722,-0.9521,-1.0194,-1.0769,-1.2339,-1.2758,-1.2869,-1.3348,-1.3926,-1.4026,-1.4026,-1.4039,-1.4232,-1.425,-1.3696,-1.3414,-1.354,-1.3628,-1.3308,-1.3006,-1.2892,-1.2789,-1.2789,-1.2795,-1.2789,-1.2825,-1.2874,-1.294,-1.3037,-1.3043,-1.2994,-1.2922,-1.285,-1.2795,-1.2831,-1.2765,-1.2705,-1.2717,-1.2643,-1.2502,-1.2221,-1.1519,-1.085,-1.0054,-0.9087,-0.7891,-0.7749,-0.7821,-0.0,-0.0,-0.0,-0.0,-0.0,-0.0,-0.0,-0.0,-0.0,-0.0,-0.0,-0.0,-0.0,-0.0,-0.0,-0.0,-0.0,-0.0,-0.0,-0.0,-0.0,-0.0,-0.0,-0.0,-0.307,-0.5964,-0.7216,-0.6227,-0.6265,-0.6601,-0.6932,-0.7138,-0.7138,-0.7558,-0.777,-0.7683,-0.7235,-0.7615,-0.7945,-0.8268,-0.8499,-0.8289,-0.8177,-0.8133,-0.8099,-0.8048,-0.8038,-0.8038,-0.8038,-0.8038,-0.8038,-0.8038,-0.8038,-0.8038,-0.8038,-0.8038,-0.8038,-0.8038,-0.8038,-0.8038,-0.8038,-0.8038,-0.8233,-0.8038,-0.8233,-0.8432,-0.8825,-0.9509,-1.0199,-1.1268,-1.2242,-1.2732,-1.3312,-1.3657,-1.4046,-1.425,-1.425,-1.425,-1.425,-1.4298,-1.4298,-1.4064,-1.3962,-1.3984,-1.3857,-1.3586,-1.332,-1.3242,-1.3133,-1.2988,-1.2982,-1.2946,-1.3,-1.3091,-1.3169,-1.326,-1.3272,-1.3236,-1.3188,-1.3115,-1.3043,-1.2976,-1.294,-1.2886,-1.2777,-1.2709,-1.279,-1.2148,-1.1312,-1.0513,-0.977,-0.8875,-0.7858,-0.7846,-0.7868,-0.0,-0.0,-0.0,-0.0,-0.0,-0.0,-0.0,-0.0,-0.0,-0.0,-0.0,-0.0,-0.0,-0.0,-0.0,-0.0,-0.0,-0.0,-0.0,-0.0,-0.0,-0.0,-0.0,-0.3019,-0.5571,-0.6858,-0.779,-0.8128,-0.7826,-0.7943,-0.8094,-0.8247,-0.81,-0.8481,-0.8451,-0.8388,-0.8272,-0.8234,-0.8444,-0.8481,-0.8472,-0.8279,-0.8194,-0.813,-0.8085,-0.8041,-0.8038,-0.8038,-0.8035,-0.8028,-0.8035,-0.8038,-0.8038,-0.8038,-0.8038,-0.8038,-0.8038,-0.8038,-0.8038,-0.8038,-0.8038,-0.8333,-0.8627,-0.9114,-0.9118,-0.9316,-0.9706,-1.0386,-1.1072,-1.2145,-1.2829,-1.3318,-1.3709,-1.4004,-1.4298,-1.4298,-1.4298,-1.4298,-1.4298,-1.4298,-1.4298,-1.4345,-1.4266,-1.4285,-1.4045,-1.3809,-1.3646,-1.3574,-1.3465,-1.3314,-1.3194,-1.3157,-1.3212,-1.3314,-1.3393,-1.3568,-1.3574,-1.3477,-1.3435,-1.3405,-1.3369,-1.3296,-1.3188,-1.3109,-1.3061,-1.3145,-1.3302,-1.2359,-1.1111,-1.0139,-0.9362,-0.8645,-0.8021,-0.7889,-0.794,-0.0,-0.0,-0.0,-0.0,-0.0,-0.0,-0.0,-0.0,-0.0,-0.0,-0.0,-0.0,-0.0,-0.0,-0.0,-0.0,-0.0,-0.0,-0.0,-0.0,-0.2269,-0.0,-0.0,-0.4285,-0.5884,-0.7076,-0.7802,-0.8238,-0.8491,-0.8709,-0.8756,-0.8632,-0.8821,-0.8726,-0.8578,-0.8635,-0.8625,-0.8588,-0.8638,-0.8584,-0.8465,-0.8319,-0.8211,-0.8133,-0.8082,-0.8041,-0.8038,-0.8038,-0.8014,-0.7987,-0.7984,-0.8001,-0.7997,-0.7991,-0.8035,-0.8038,-0.8038,-0.8333,-0.8531,-0.8134,-0.8333,-0.8726,-0.9316,-0.9702,-1.0092,-1.0288,-1.0877,-1.156,-1.2242,-1.2829,-1.3414,-1.3811,-1.4106,-1.4298,-1.4298,-1.4298,-1.4298,-1.4298,-1.4298,-1.4298,-1.4274,-1.4321,-1.4315,-1.4274,-1.422,-1.3972,-1.3876,-1.3894,-1.3779,-1.3628,-1.3483,-1.3387,-1.3459,-1.3556,-1.3726,-1.3823,-1.3896,-1.3803,-1.3725,-1.3694,-1.3676,-1.3556,-1.3393,-1.3369,-1.3393,-1.329,-1.3088,-1.1973,-1.0872,-1.0049,-0.9208,-0.8387,-0.8028,-0.796,-0.8004,-0.0,-0.0,-0.0,-0.0,-0.0,-0.0,-0.0,-0.0,-0.0,-0.0,-0.0,-0.0,-0.0,-0.0,-0.0,-0.0,-0.0,-0.0,-0.3073,-0.6251,-0.553,-0.478,-0.4048,-0.4181,-0.6039,-0.7276,-0.8033,-0.8323,-0.8582,-0.8783,-0.8815,-0.8713,-0.8689,-0.8645,-0.8645,-0.8703,-0.8696,-0.8638,-0.8672,-0.8676,-0.854,-0.8397,-0.8272,-0.8211,-0.8123,-0.8038,-0.8038,-0.8014,-0.7974,-0.7933,-0.7926,-0.7967,-0.7957,-0.7967,-0.8021,-0.8038,-0.8038,-0.8528,-0.892,-0.8722,-0.9019,-0.941,-0.9801,-1.0583,-1.1072,-1.1263,-1.1853,-1.2538,-1.3221,-1.3414,-1.3908,-1.41,-1.4202,-1.4298,-1.4298,-1.4298,-1.4298,-1.4298,-1.4298,-1.4298,-1.4292,-1.4345,-1.4351,-1.4298,-1.4274,-1.4075,-1.4045,-1.4117,-1.4057,-1.3906,-1.3803,-1.3658,-1.367,-1.3761,-1.3918,-1.402,-1.4159,-1.4153,-1.402,-1.3972,-1.4036,-1.3779,-1.3574,-1.3543,-1.343,-1.2951,-1.2456,-1.1392,-1.0628,-1.0145,-0.9311,-0.8301,-0.8035,-0.8031,-0.8031,-0.0,-0.0,-0.0,-0.0,-0.0,-0.0,-0.0,-0.0,-0.0,-0.0,-0.0,-0.0,-0.0,-0.0,-0.0,-0.0,-0.0,-0.2846,-0.5377,-0.6344,-0.6586,-0.6233,-0.5741,-0.5618,-0.6489,-0.7093,-0.7738,-0.8301,-0.8679,-0.8736,-0.876,-0.8699,-0.8638,-0.8584,-0.8567,-0.8632,-0.8655,-0.8604,-0.8726,-0.8598,-0.8306,-0.8377,-0.8357,-0.8187,-0.8038,-0.8038,-0.8038,-0.8031,-0.8021,-0.8007,-0.8018,-0.8018,-0.7997,-0.8024,-0.8035,-0.8038,-0.8233,-0.892,-0.9312,-0.9509,-0.9805,-1.0681,-1.1365,-1.1853,-1.2242,-1.2339,-1.2732,-1.3414,-1.3908,-1.41,-1.4202,-1.4298,-1.4298,-1.4298,-1.4298,-1.4298,-1.4298,-1.4298,-1.4298,-1.4298,-1.4298,-1.4298,-1.4298,-1.4286,-1.4262,-1.4244,-1.4238,-1.4256,-1.4238,-1.4147,-1.4117,-1.3996,-1.3776,-1.3854,-1.4111,-1.4195,-1.4274,-1.4298,-1.4183,-1.4177,-1.4285,-1.4008,-1.3833,-1.3673,-1.346,-1.2742,-1.1888,-1.0858,-1.0147,-0.9747,-0.9261,-0.8226,-0.8038,-0.8035,-0.8035,-0.0,-0.0,-0.0,-0.0,-0.0,-0.0,-0.0,-0.0,-0.0,-0.0,-0.0,-0.0,-0.0,-0.0,-0.0,-0.0,-0.0,-0.0,-0.5972,-0.6646,-0.6777,-0.6733,-0.665,-0.6873,-0.7203,-0.7591,-0.8103,-0.8646,-0.8799,-0.8876,-0.8808,-0.8716,-0.8608,-0.8547,-0.852,-0.8577,-0.8625,-0.8608,-0.8781,-0.857,-0.8191,-0.8319,-0.8323,-0.813,-0.8038,-0.8038,-0.8038,-0.8031,-0.7991,-0.8153,-0.8412,-0.8674,-0.8977,-0.9312,-0.9217,-0.9118,-0.9217,-0.9702,-1.0096,-1.0489,-1.0783,-1.1755,-1.2242,-1.2533,-1.2727,-1.2829,-1.3414,-1.41,-1.4106,-1.4298,-1.4298,-1.4298,-1.4298,-1.4298,-1.4298,-1.4298,-1.4298,-1.4298,-1.4298,-1.4298,-1.4298,-1.4298,-1.4298,-1.4298,-1.428,-1.428,-1.4298,-1.4298,-1.4298,-1.4298,-1.4298,-1.4268,-1.401,-1.3986,-1.4208,-1.4256,-1.4286,-1.4298,-1.4298,-1.428,-1.4333,-1.4165,-1.4016,-1.3481,-1.2929,-1.2149,-1.1215,-1.0186,-0.941,-0.8905,-0.8513,-0.8038,-0.8038,-0.8038,-0.8038,-0.0,-0.0,-0.0,-0.0,-0.0,-0.0,-0.0,-0.0,-0.0,-0.0,-0.0,-0.0,-0.0,-0.0,-0.0,-0.0,-0.0,-0.0,-0.5634,-0.666,-0.6749,-0.6868,-0.6942,-0.7186,-0.7472,-0.7988,-0.851,-0.8666,-0.893,-0.8872,-0.8798,-0.8737,-0.8682,-0.8635,-0.856,-0.8526,-0.8567,-0.8632,-0.8686,-0.8584,-0.8472,-0.8408,-0.8275,-0.8143,-0.8038,-0.8038,-0.8038,-0.8018,-0.7953,-0.8601,-0.9142,-0.96,-0.9955,-1.0293,-1.0293,-1.0096,-1.0391,-1.0877,-1.1268,-1.137,-1.2047,-1.263,-1.2823,-1.2926,-1.3119,-1.3511,-1.41,-1.4298,-1.4298,-1.4298,-1.4298,-1.4298,-1.4298,-1.4298,-1.4298,-1.4298,-1.4298,-1.4298,-1.4304,-1.4304,-1.431,-1.4316,-1.4322,-1.4322,-1.431,-1.431,-1.4304,-1.4298,-1.4298,-1.4298,-1.4298,-1.4298,-1.4232,-1.425,-1.4298,-1.4298,-1.4298,-1.4298,-1.4298,-1.4298,-1.419,-1.3837,-1.3431,-1.2978,-1.2318,-1.1336,-1.0462,-0.9604,-0.8825,-0.8336,-0.8137,-0.8038,-0.8038,-0.8038,-0.8038,-0.0,-0.0,-0.0,-0.0,-0.0,-0.0,-0.0,-0.0,-0.0,-0.0,-0.0,-0.0,-0.0,-0.0,-0.0,-0.0,-0.0,-0.3131,-0.5167,-0.655,-0.6687,-0.7012,-0.7226,-0.746,-0.7666,-0.817,-0.8587,-0.8835,-0.9127,-0.8944,-0.8815,-0.8979,-0.8604,-0.8632,-0.8815,-0.875,-0.8659,-0.8703,-0.8696,-0.8645,-0.8615,-0.8499,-0.8296,-0.816,-0.8038,-0.8038,-0.8038,-0.8038,-0.8513,-0.9272,-1.0223,-1.0733,-1.1049,-1.1272,-1.1272,-1.117,-1.1365,-1.1755,-1.2047,-1.2344,-1.2926,-1.3613,-1.3709,-1.3806,-1.3908,-1.3908,-1.4298,-1.4298,-1.4298,-1.4298,-1.4298,-1.4298,-1.4298,-1.4298,-1.4298,-1.4298,-1.4298,-1.4304,-1.4304,-1.4334,-1.4358,-1.4377,-1.4407,-1.4389,-1.4358,-1.4346,-1.431,-1.431,-1.4298,-1.4298,-1.431,-1.4298,-1.4298,-1.4298,-1.4298,-1.4298,-1.4298,-1.4298,-1.4298,-1.4196,-1.3902,-1.3318,-1.2829,-1.2047,-1.117,-1.0186,-0.9414,-0.8924,-0.8531,-0.8137,-0.8038,-0.8038,-0.8038,-0.8038,-0.8038]},{"header":{"parameterUnit":"m.s-1","parameterCategory":1,"la1":31.0,"la2":29.5877,"lo1":-88.7671,"lo2":-86.6584,"dy":0.0162,"dx":0.0185,"nx":115,"ny":88,"refTime":"2023-06-07T18:00:00:Z","depth":0,"parameterNumber":3,"parameterNumberName":"V-component_of_WINDS"},"data":[0.0,0.0,0.0,0.0,0.0,0.0,0.0,0.0,0.0,0.0,0.0,0.0,0.0,0.0,0.0,0.0,0.0,0.0,0.0,0.0,0.0,0.0,0.0,0.0,0.0,0.0,0.0,0.0,0.0,0.0,0.0,0.0,0.0,0.0,0.0,0.0,0.0,0.0,0.0,0.0,0.0,0.0,0.0,0.0,0.0,0.0,0.0,0.0,0.0,0.0,0.0,0.0,0.0,0.0,0.0,0.0,0.0,0.0,0.0,0.0,0.0,0.0,0.0,0.0,0.0,0.0,0.0,0.0,0.0,0.0,0.0,0.0,0.0,0.0,0.0,0.0,0.0,0.0,0.0,0.0,0.0,0.0,0.0,0.0,0.0,0.0,0.0,0.0,0.0,0.0,0.0,0.0,0.0,0.0,0.0,0.0,0.0,0.0,0.0,0.0,0.0,0.0,0.0,0.0,0.0,0.0,0.0,0.0,0.0,0.0,0.0,0.0,0.0,0.0,0.0,0.0,0.0,0.0,0.0,0.0,0.0,0.0,0.0,0.0,0.0,0.0,0.0,0.0,0.0,0.0,0.0,0.0,0.0,0.0,0.0,0.0,0.0,0.0,0.0,0.0,0.0,0.0,0.0,0.0,0.0,0.0,0.0,0.0,0.0,0.0,0.0,0.0,0.0,0.0,0.0,0.0,0.0,0.0,0.0,0.0,0.0,0.0,0.0,0.0,0.0,0.0,0.0,0.0,0.0,0.0,0.0,0.0,0.0,0.0,0.0,0.0,0.0,0.0,0.0,0.0,0.0,0.0,0.0,0.0,0.0,0.0,0.0,0.0,0.0,0.0,0.0,0.0,0.0,0.0,0.0,0.0,0.0,0.0,0.0,0.0,0.0,0.0,0.0,0.0,0.0,0.0,0.0,0.0,0.0,0.0,0.0,0.0,0.0,0.0,0.0,0.0,0.0,0.0,0.0,0.0,0.0,0.0,0.0,0.0,0.0,0.0,0.0,0.0,0.0,0.0,0.0,0.0,0.0,0.0,0.0,0.0,0.0,0.0,0.0,0.0,0.0,0.0,0.0,0.0,0.0,0.0,0.0,0.0,0.0,0.0,0.0,0.0,0.0,0.0,0.0,0.0,0.0,0.0,0.0,0.0,0.0,0.0,0.0,0.0,0.0,0.0,0.0,0.0,0.0,0.0,0.0,0.0,0.0,0.0,0.0,0.0,0.0,0.0,0.0,0.0,0.0,0.0,0.0,0.0,0.0,0.0,0.0,0.0,0.0,0.0,0.0,0.0,0.0,0.0,0.0,0.0,0.0,0.0,0.0,0.0,0.0,0.0,0.0,0.0,0.0,0.0,0.0,0.0,0.0,0.0,0.0,0.0,0.0,0.0,0.0,0.0,0.0,0.0,0.0,0.0,0.0,0.0,0.0,0.0,0.0,0.0,0.0,0.0,0.0,0.0,0.0,0.0,0.0,0.0,0.0,0.0,0.0,0.0,0.0,0.0,0.0,0.0,0.0,0.0,0.0,0.0,0.0,0.0,0.0,0.0,0.0,0.0,0.0,0.0,0.0,0.0,0.0,0.0,0.0,0.0,0.0,0.0,0.0,0.0,0.0,0.0,0.0,0.0,0.0,0.0,0.0,0.0,0.0,0.0,0.0,0.0,0.0,0.0,0.0,0.0,0.0,0.0,0.0,0.0,0.0,0.0,0.0,0.0,0.0,0.0,0.0,0.0,0.0,0.0,0.0,0.0,0.0,0.0,0.0,0.0,0.0,0.0,0.0,0.0,0.0,0.0,0.0,0.0,0.0,0.0,0.0,0.0,0.0,0.0,0.0,0.0,0.0,0.0,0.0,0.0,0.0,0.0,0.0,0.0,0.0,0.0,0.0,0.0,0.0,0.0,0.0,0.0,0.0,0.0,0.0,0.0,0.0,0.0,0.0,0.0,0.0,0.0,0.0,0.0,0.0,0.0,0.0,0.0,0.0,0.0,0.0,0.0,0.0,0.0,0.0,0.0,0.0,0.0,0.0,0.0,0.0,0.0,0.0,0.0,0.0,0.0,0.0,0.0,0.0,0.0,0.0,0.0,0.0,0.0,0.0,0.0,0.0,0.0,0.0,0.0,0.0,0.0,0.0,0.0,0.0,0.0,0.0,0.0,0.0,0.0,0.0,0.0,0.0,0.0,0.0,0.0,0.0,0.0,0.0,0.0,0.0,0.0,0.0,0.0,0.0,0.0,0.0,0.0,0.0,0.0,0.0,0.0,0.0,0.0,0.0,0.0,0.0,0.0,0.0,0.0,0.0,0.0,0.0,0.0,0.0,0.0,0.0,0.0,0.0,0.0,0.0,0.0,0.0,0.0,0.0,0.0,0.0,0.0,0.0,0.0,0.0,0.0,0.0,0.0,0.0,0.0,0.0,0.0,0.0,0.0,0.0,0.0,0.0,0.0,0.0,0.0,0.0,0.0,0.0,0.0,0.0,0.0,0.0,0.0,0.0,0.0,0.0,0.0,0.0,0.0,0.0,0.0,0.0,0.0,0.0,0.0,0.0,0.0,0.0,0.0,0.0,0.0,0.0,0.0,0.0,0.0,0.0,0.0,0.0,0.0,0.0,0.0,0.0,0.0,0.0,0.0,0.0,0.0,0.0,0.0,0.0,0.0,0.0,0.0,0.0,0.0,0.0,0.0,0.0,0.0,0.0,0.0,0.0,0.0,0.0,0.0,0.0,0.0,0.0,0.0,0.0,0.0,0.0,0.0,0.0,0.0,0.0,0.0,0.0,0.0,0.0,0.0,0.0,0.0,0.0,0.0,0.0,0.0,0.0,0.0,0.0,0.0,0.0,0.0,0.0,0.0,0.0,0.0,0.0,0.0,0.0,0.0,0.0,0.0,0.0,0.0,0.0,0.0,0.0,0.0,0.0,0.0,0.0,0.0,0.0,0.0,0.0,0.0,0.0,0.0,0.0,0.0,0.0,0.0,0.0,0.0,0.0,0.0,0.0,0.0,0.0,0.0,0.0,0.0,0.0,0.0,0.0,0.0,0.0,0.0,0.0,0.0,0.0,0.0,0.0,0.0,0.0,0.0,0.0,0.0,0.0,0.0,0.0,0.0,0.0,0.0,0.0,0.0,0.0,0.0,0.0,0.0,0.0,0.0,0.0,0.0,0.0,0.0,0.0,0.0,0.0,0.0,0.0,0.0,0.0,0.0,0.0,0.0,0.0,0.0,0.0,0.0,0.0,0.0,0.0,0.0,0.0,0.0,0.0,0.0,0.0,0.0,0.0,0.0,0.0,0.0,0.0,0.0,0.0,0.0,0.0,0.0,0.0,0.0,0.0,0.0,0.0,0.0,0.0,0.0,0.0,0.0,0.0,0.0,0.0,0.0,0.0,0.0,0.0,0.0,0.0,0.0,0.0,0.0,0.0,0.0,0.0,0.0,0.0,0.0,0.0,0.0,0.0,0.0,0.0,0.0,0.0,0.0,0.0,0.0,0.0,0.0,0.0,0.0,0.0,0.0,0.0,0.0,0.0,0.0,0.0,0.0,0.0,0.0,0.0,0.0,0.0,0.0,0.0,0.0,0.0,0.0,0.0,0.0,0.0,0.0,0.0,0.0,0.0,0.0,0.0,0.0,0.0,0.0,0.0,0.0,0.0,0.0,0.0,0.0,0.0,0.0,0.0,0.0,0.0,0.0,0.0,0.0,0.0,0.0,0.0,0.0,0.0,0.0,0.0,0.0,0.0,0.0,0.0,0.0,0.0,0.0,0.0,0.0,0.0,0.0,0.0,0.0,0.0,0.0,0.0,0.0,0.0,0.0,0.0,0.0,0.0,0.0,0.0,0.0,0.0,0.0,0.0,0.0,0.0,0.0,0.0,0.0,0.0,0.0,0.0,0.0,0.0,0.0,0.0,0.0,0.0,0.0,0.0,0.0,0.0,0.0,0.0,0.0,0.0,0.0,0.0,0.0,0.0,0.0,0.0,0.0,0.0,0.0,0.0,0.0,0.0,0.0,0.0,0.0,0.0,0.0,0.0,0.0,0.0,0.0,0.0,0.0,0.0,0.0,0.0,0.0,0.0,0.0,0.0,0.0,0.0,0.0,0.0,0.0,0.0,0.0,0.0,0.0,0.0,0.0,0.0,0.0,0.0,0.0,0.0,0.0,0.0,0.0,0.0,0.0,0.0,0.0,0.0,0.0,0.0,0.0,0.0,0.0,0.0,0.0,0.0,0.0,0.0,0.0,0.0,0.0,0.0,0.0,0.0,0.0,-0.8114,0.0,0.0,0.0,0.0,0.0,0.0,0.0,0.0,0.0,0.0,0.0,0.0,0.0,0.0,0.0,0.0,0.0,0.0,0.0,0.0,0.0,0.0,0.0,0.0,0.0,0.0,0.0,0.0,0.0,0.0,0.0,0.0,0.0,0.0,0.0,0.0,0.0,0.0,0.0,0.0,0.0,0.0,0.0,0.0,0.0,0.0,0.0,0.0,0.0,0.0,0.0,0.0,0.0,0.0,0.0,0.0,0.0,0.0,0.0,0.0,0.0,0.0,0.0,0.0,0.0,0.0,0.0,0.0,0.0,0.0,0.0,0.0,0.0,0.0,0.0,0.0,0.0,0.0,0.0,0.0,0.0,0.0,0.0,0.0,0.0,0.0,0.0,0.0,0.0,0.0,0.0,0.0,0.0,0.0,0.0,0.0,0.0,0.0,0.0,0.0,0.0,0.0,0.0,0.0,0.0,0.0,0.0,0.0,0.0,0.0,-0.9705,-0.9534,-0.9938,-0.9654,-0.8562,0.0,0.0,0.0,0.0,0.0,0.0,0.0,0.0,0.0,0.0,0.0,0.0,0.0,0.0,0.0,0.0,0.0,0.0,0.0,0.0,0.0,0.0,0.0,0.0,0.0,0.0,0.0,0.0,0.0,0.0,0.0,0.0,0.0,0.0,0.0,0.0,0.0,0.0,0.0,0.0,0.0,0.0,0.0,0.0,0.0,0.0,0.0,0.0,0.0,0.0,0.0,0.0,0.0,0.0,0.0,0.0,0.0,0.0,0.0,0.0,0.0,0.0,0.0,0.0,0.0,0.0,0.0,0.0,0.0,0.0,0.0,0.0,0.0,0.0,0.0,0.0,0.0,0.0,0.0,0.0,0.0,0.0,0.0,0.0,0.0,0.0,0.0,0.0,0.0,0.0,0.0,0.0,0.0,0.0,0.0,0.0,0.0,0.0,0.0,0.0,0.0,0.0,0.0,0.0,0.0,0.0,0.0,0.0,0.0,0.0,0.0,0.0,-1.001,-0.9835,-0.9858,0.0,0.0,0.0,0.0,0.0,0.0,0.0,0.0,0.0,0.0,0.0,0.0,0.0,0.0,0.0,0.0,0.0,0.0,0.0,0.0,0.0,0.0,0.0,0.0,0.0,0.0,0.0,0.0,0.0,0.0,0.0,0.0,0.0,0.0,0.0,0.0,0.0,0.0,0.0,0.0,0.0,0.0,0.0,0.0,0.0,0.0,0.0,0.0,0.0,0.0,0.0,0.0,0.0,0.0,0.0,0.0,0.0,0.0,0.0,0.0,0.0,0.0,0.0,0.0,0.0,0.0,0.0,0.0,0.0,0.0,0.0,0.0,0.0,0.0,0.0,0.0,0.0,0.0,0.0,0.0,0.0,0.0,0.0,0.0,0.0,0.0,0.0,0.0,0.0,0.0,0.0,0.0,0.0,0.0,0.0,0.0,0.0,0.0,0.0,0.0,0.0,0.0,0.0,0.0,0.0,0.0,0.0,0.0,0.0,0.0,-1.0585,-1.2609,-1.2296,0.0,-1.2305,0.0,0.0,0.0,0.0,0.0,0.0,0.0,0.0,0.0,0.0,0.0,0.0,0.0,0.0,0.0,0.0,0.0,0.0,0.0,0.0,0.0,0.0,0.0,0.0,0.0,0.0,0.0,0.0,0.0,0.0,0.0,0.0,0.0,0.0,0.0,0.0,0.0,0.0,0.0,0.0,0.0,0.0,0.0,0.0,0.0,0.0,0.0,0.0,0.0,0.0,0.0,0.0,0.0,0.0,0.0,0.0,0.0,0.0,0.0,0.0,0.0,0.0,0.0,0.0,0.0,0.0,0.0,0.0,0.0,0.0,0.0,0.0,0.0,0.0,0.0,0.0,0.0,0.0,0.0,0.0,0.0,0.0,0.0,0.0,0.0,0.0,0.0,0.0,0.0,0.0,0.0,0.0,0.0,0.0,0.0,0.0,0.0,0.0,0.0,0.0,0.0,0.0,0.0,0.0,0.0,0.0,0.0,0.0,0.0,0.0,-1.0685,-1.2939,-1.2793,-1.2113,0.0,0.0,0.0,0.0,0.0,0.0,0.0,0.0,0.0,0.0,0.0,0.0,0.0,0.0,0.0,0.0,0.0,0.0,0.0,0.0,0.0,0.0,0.0,0.0,0.0,0.0,0.0,0.0,0.0,0.0,0.0,0.0,0.0,0.0,0.0,0.0,0.0,0.0,0.0,0.0,0.0,0.0,0.0,0.0,0.0,0.0,0.0,0.0,0.0,0.0,0.0,0.0,0.0,0.0,0.0,0.0,0.0,0.0,0.0,0.0,0.0,0.0,0.0,0.0,0.0,0.0,0.0,0.0,0.0,0.0,0.0,0.0,0.0,0.0,0.0,0.0,0.0,0.0,0.0,0.0,0.0,0.0,0.0,0.0,0.0,0.0,0.0,0.0,0.0,0.0,0.0,0.0,0.0,0.0,0.0,0.0,0.0,0.0,0.0,0.0,0.0,0.0,0.0,0.0,0.0,0.0,0.0,0.0,0.0,0.0,-1.1095,-1.1719,-1.3744,-1.2674,-1.1523,-1.0485,0.0,0.0,0.0,0.0,0.0,0.0,0.0,0.0,0.0,0.0,0.0,0.0,0.0,0.0,0.0,0.0,0.0,0.0,0.0,0.0,0.0,0.0,0.0,0.0,0.0,0.0,0.0,0.0,0.0,0.0,0.0,0.0,0.0,0.0,0.0,0.0,0.0,0.0,0.0,0.0,0.0,0.0,0.0,0.0,0.0,0.0,0.0,0.0,0.0,0.0,0.0,0.0,0.0,0.0,0.0,0.0,0.0,0.0,0.0,0.0,0.0,0.0,0.0,0.0,0.0,0.0,0.0,0.0,0.0,0.0,0.0,0.0,0.0,0.0,0.0,0.0,0.0,0.0,0.0,0.0,0.0,0.0,0.0,0.0,0.0,0.0,0.0,0.0,0.0,0.0,0.0,0.0,0.0,0.0,0.0,0.0,0.0,0.0,0.0,0.0,0.0,0.0,0.0,0.0,0.0,0.0,0.0,0.0,0.0,-1.4448,-1.4264,-1.6077,-1.2129,-1.0792,0.0,0.0,0.0,0.0,0.0,0.0,0.0,0.0,0.0,0.0,0.0,0.0,0.0,0.0,0.0,0.0,0.0,0.0,0.0,0.0,0.0,0.0,0.0,0.0,0.0,0.0,0.0,0.0,0.0,0.0,0.0,0.0,0.0,0.0,0.0,0.0,0.0,0.0,0.0,0.0,0.0,0.0,0.0,0.0,0.0,0.0,0.0,0.0,0.0,0.0,0.0,0.0,0.0,0.0,0.0,0.0,0.0,0.0,0.0,0.0,0.0,0.0,0.0,0.0,0.0,0.0,0.0,0.0,0.0,0.0,0.0,0.0,0.0,0.0,0.0,0.0,0.0,0.0,0.0,0.0,0.0,0.0,0.0,0.0,0.0,0.0,0.0,0.0,0.0,0.0,0.0,0.0,0.0,0.0,0.0,0.0,0.0,0.0,0.0,0.0,0.0,0.0,0.0,0.0,0.0,0.0,0.0,0.0,0.0,-1.2549,-1.4241,-1.471,-1.38,-1.3756,-1.3432,0.0,0.0,0.0,0.0,0.0,0.0,0.0,0.0,0.0,0.0,0.0,0.0,0.0,0.0,0.0,0.0,0.0,0.0,0.0,0.0,0.0,0.0,0.0,0.0,0.0,0.0,0.0,0.0,0.0,0.0,0.0,0.0,0.0,0.0,0.0,0.0,0.0,0.0,0.0,0.0,0.0,0.0,0.0,0.0,0.0,0.0,0.0,0.0,0.0,0.0,0.0,0.0,0.0,0.0,0.0,0.0,0.0,0.0,0.0,0.0,0.0,0.0,0.0,0.0,0.0,0.0,0.0,0.0,0.0,0.0,0.0,0.0,0.0,0.0,0.0,0.0,0.0,0.0,0.0,0.0,0.0,0.0,0.0,0.0,0.0,0.0,0.0,0.0,0.0,0.0,0.0,0.0,0.0,0.0,0.0,0.0,0.0,0.0,0.0,0.0,0.0,0.0,0.0,0.0,0.0,0.0,0.0,0.0,0.0,-1.1729,0.0,-1.5451,0.0,-1.4608,-1.4182,0.0,0.0,0.0,0.0,0.0,0.0,0.0,0.0,0.0,0.0,0.0,0.0,0.0,0.0,0.0,0.0,0.0,0.0,0.0,0.0,0.0,0.0,0.0,0.0,0.0,0.0,0.0,0.0,0.0,0.0,0.0,0.0,0.0,0.0,0.0,0.0,0.0,0.0,0.0,0.0,0.0,0.0,0.0,0.0,0.0,0.0,0.0,0.0,0.0,0.0,0.0,0.0,0.0,0.0,0.0,0.0,0.0,0.0,0.0,0.0,0.0,0.0,0.0,0.0,0.0,0.0,0.0,0.0,0.0,0.0,0.0,0.0,0.0,0.0,0.0,0.0,0.0,0.0,0.0,0.0,0.0,0.0,0.0,0.0,0.0,0.0,0.0,0.0,0.0,0.0,0.0,0.0,0.0,0.0,0.0,0.0,0.0,0.0,0.0,0.0,0.0,0.0,0.0,0.0,0.0,0.0,0.0,0.0,-1.1846,-1.498,-1.5888,-1.6765,-1.7587,-1.4516,-1.2741,0.0,0.0,0.0,0.0,0.0,0.0,0.0,0.0,0.0,0.0,0.0,0.0,0.0,0.0,0.0,0.0,0.0,0.0,0.0,0.0,0.0,0.0,0.0,0.0,0.0,0.0,0.0,0.0,0.0,0.0,0.0,0.0,0.0,0.0,0.0,0.0,0.0,0.0,0.0,0.0,0.0,0.0,0.0,0.0,0.0,0.0,0.0,0.0,0.0,0.0,0.0,0.0,0.0,0.0,0.0,0.0,0.0,0.0,0.0,0.0,0.0,0.0,0.0,0.0,0.0,0.0,0.0,0.0,0.0,0.0,0.0,0.0,0.0,0.0,0.0,0.0,0.0,0.0,0.0,0.0,0.0,0.0,0.0,0.0,0.0,0.0,0.0,0.0,0.0,0.0,0.0,0.0,0.0,0.0,0.0,0.0,0.0,0.0,0.0,0.0,0.0,0.0,0.0,0.0,0.0,0.0,0.0,0.0,0.0,-1.4384,-1.637,-1.811,-1.9376,-1.6285,-1.5039,0.0,0.0,0.0,0.0,0.0,0.0,0.0,0.0,0.0,0.0,0.0,0.0,0.0,0.0,0.0,0.0,0.0,0.0,0.0,0.0,0.0,0.0,0.0,0.0,0.0,0.0,0.0,0.0,0.0,0.0,0.0,0.0,0.0,0.0,0.0,0.0,0.0,0.0,0.0,0.0,0.0,0.0,0.0,0.0,0.0,0.0,0.0,0.0,0.0,0.0,0.0,0.0,0.0,0.0,0.0,0.0,0.0,0.0,0.0,0.0,0.0,0.0,0.0,0.0,0.0,0.0,0.0,0.0,0.0,0.0,0.0,0.0,0.0,0.0,0.0,0.0,0.0,0.0,0.0,0.0,0.0,0.0,0.0,0.0,0.0,0.0,0.0,0.0,0.0,0.0,0.0,0.0,0.0,0.0,0.0,0.0,0.0,0.0,0.0,0.0,0.0,0.0,0.0,0.0,0.0,0.0,0.0,0.0,0.0,-1.6998,-1.8214,-1.9389,-2.0435,-1.8085,-1.6823,-1.6814,0.0,0.0,0.0,0.0,0.0,0.0,0.0,0.0,0.0,0.0,0.0,0.0,0.0,0.0,0.0,0.0,0.0,0.0,0.0,0.0,0.0,0.0,0.0,0.0,0.0,0.0,0.0,0.0,0.0,0.0,0.0,0.0,0.0,0.0,0.0,0.0,0.0,0.0,0.0,0.0,0.0,0.0,0.0,0.0,0.0,0.0,0.0,0.0,0.0,0.0,0.0,0.0,0.0,0.0,0.0,0.0,0.0,0.0,0.0,0.0,0.0,0.0,0.0,0.0,0.0,0.0,0.0,0.0,0.0,0.0,0.0,0.0,0.0,0.0,0.0,0.0,0.0,0.0,0.0,0.0,0.0,0.0,0.0,0.0,0.0,0.0,0.0,0.0,0.0,0.0,0.0,0.0,0.0,0.0,0.0,0.0,0.0,0.0,0.0,0.0,0.0,0.0,0.0,0.0,0.0,0.0,0.0,0.0,-2.1936,-2.1444,-2.1191,-2.1093,-1.9918,-1.8145,0.0,0.0,0.0,0.0,0.0,0.0,0.0,0.0,0.0,0.0,0.0,0.0,0.0,0.0,0.0,0.0,0.0,0.0,0.0,0.0,0.0,0.0,0.0,0.0,0.0,0.0,0.0,0.0,0.0,0.0,0.0,0.0,0.0,0.0,0.0,0.0,0.0,0.0,0.0,0.0,0.0,0.0,0.0,0.0,0.0,0.0,0.0,0.0,0.0,0.0,0.0,0.0,0.0,0.0,0.0,0.0,0.0,0.0,0.0,0.0,0.0,0.0,0.0,0.0,0.0,0.0,0.0,0.0,0.0,0.0,0.0,0.0,0.0,0.0,0.0,0.0,0.0,0.0,0.0,0.0,0.0,0.0,0.0,0.0,0.0,0.0,0.0,0.0,0.0,0.0,0.0,0.0,0.0,0.0,0.0,0.0,0.0,0.0,0.0,0.0,0.0,0.0,0.0,0.0,0.0,0.0,0.0,0.0,0.0,-2.3747,-2.6601,-2.7812,-2.707,-2.2613,-2.0136,0.0,0.0,0.0,0.0,0.0,0.0,0.0,0.0,0.0,0.0,0.0,0.0,0.0,0.0,0.0,0.0,0.0,0.0,0.0,0.0,0.0,0.0,0.0,0.0,0.0,0.0,0.0,0.0,0.0,0.0,0.0,0.0,0.0,0.0,0.0,0.0,0.0,0.0,0.0,0.0,0.0,0.0,0.0,0.0,0.0,0.0,0.0,0.0,0.0,0.0,0.0,0.0,0.0,0.0,0.0,0.0,0.0,0.0,0.0,0.0,0.0,0.0,0.0,0.0,0.0,0.0,0.0,0.0,0.0,0.0,0.0,0.0,0.0,0.0,0.0,0.0,0.0,0.0,0.0,0.0,0.0,0.0,0.0,0.0,0.0,0.0,0.0,0.0,0.0,0.0,0.0,0.0,0.0,0.0,0.0,0.0,0.0,0.0,0.0,0.0,0.0,0.0,0.0,0.0,0.0,0.0,0.0,0.0,-2.3877,-2.5996,-3.0556,-3.2528,-3.1658,-2.6887,-2.3114,0.0,0.0,0.0,0.0,0.0,0.0,0.0,0.0,0.0,0.0,0.0,0.0,0.0,0.0,0.0,0.0,0.0,0.0,0.0,0.0,0.0,0.0,0.0,0.0,0.0,0.0,0.0,0.0,0.0,0.0,0.0,0.0,0.0,0.0,0.0,0.0,0.0,0.0,0.0,0.0,0.0,0.0,0.0,0.0,0.0,0.0,0.0,0.0,0.0,0.0,0.0,0.0,0.0,0.0,0.0,0.0,0.0,0.0,0.0,0.0,0.0,0.0,0.0,0.0,0.0,0.0,0.0,0.0,0.0,0.0,0.0,0.0,0.0,0.0,0.0,0.0,0.0,0.0,0.0,0.0,0.0,0.0,0.0,0.0,0.0,0.0,0.0,0.0,0.0,0.0,0.0,0.0,0.0,0.0,0.0,0.0,0.0,0.0,0.0,0.0,0.0,0.0,0.0,0.0,0.0,0.0,0.0,0.0,-2.5525,-2.8285,-3.3289,-3.5479,-3.452,-3.1278,-2.6445,0.0,0.0,0.0,0.0,0.0,0.0,0.0,0.0,0.0,0.0,0.0,0.0,0.0,0.0,0.0,0.0,0.0,0.0,0.0,0.0,0.0,0.0,0.0,0.0,0.0,0.0,0.0,0.0,0.0,0.0,0.0,0.0,0.0,0.0,0.0,0.0,0.0,0.0,0.0,0.0,0.0,0.0,0.0,0.0,0.0,0.0,0.0,0.0,0.0,0.0,0.0,0.0,0.0,0.0,0.0,0.0,0.0,0.0,0.0,0.0,0.0,0.0,0.0,0.0,0.0,0.0,0.0,0.0,0.0,0.0,0.0,0.0,0.0,0.0,0.0,0.0,0.0,0.0,0.0,0.0,0.0,0.0,0.0,0.0,0.0,0.0,0.0,0.0,0.0,0.0,0.0,0.0,0.0,0.0,0.0,0.0,0.0,0.0,0.0,0.0,0.0,0.0,0.0,0.0,0.0,0.0,0.0,0.0,-2.5235,-2.9096,-3.3565,-3.5449,-3.4528,-3.1266,-2.7515,0.0,0.0,0.0,0.0,0.0,0.0,0.0,0.0,0.0,0.0,0.0,0.0,0.0,0.0,0.0,0.0,0.0,0.0,0.0,0.0,0.0,0.0,0.0,0.0,0.0,0.0,0.0,0.0,0.0,0.0,0.0,0.0,0.0,0.0,0.0,0.0,0.0,0.0,0.0,0.0,0.0,0.0,0.0,0.0,0.0,0.0,0.0,0.0,-0.8154,0.0,0.0,0.0,0.0,0.0,0.0,0.0,0.0,0.0,0.0,0.0,0.0,0.0,0.0,0.0,0.0,0.0,0.0,0.0,0.0,0.0,0.0,0.0,0.0,0.0,0.0,0.0,0.0,0.0,0.0,0.0,0.0,0.0,0.0,0.0,0.0,0.0,0.0,0.0,0.0,0.0,0.0,0.0,0.0,0.0,0.0,0.0,0.0,0.0,0.0,0.0,0.0,0.0,0.0,0.0,0.0,0.0,0.0,0.0,-2.6748,-3.0574,-3.4445,-3.602,-3.5061,-3.2636,-2.9082,0.0,0.0,0.0,0.0,0.0,0.0,0.0,0.0,0.0,0.0,0.0,0.0,0.0,0.0,0.0,0.0,0.0,0.0,0.0,0.0,0.0,0.0,0.0,0.0,0.0,0.0,0.0,0.0,0.0,0.0,0.0,0.0,0.0,0.0,0.0,0.0,0.0,0.0,0.0,0.0,0.0,0.0,0.0,0.0,0.0,0.0,0.0,0.0,0.0,0.0,0.0,0.0,0.0,0.0,0.0,0.0,0.0,0.0,0.0,0.0,0.0,0.0,0.0,0.0,0.0,0.0,0.0,0.0,0.0,0.0,0.0,0.0,0.0,0.0,0.0,0.0,0.0,0.0,0.0,0.0,0.0,0.0,0.0,0.0,0.0,0.0,0.0,0.0,0.0,0.0,0.0,0.0,0.0,0.0,0.0,0.0,0.0,0.0,0.0,0.0,0.0,0.0,0.0,0.0,0.0,0.0,0.0,-2.4669,-2.8107,-3.2108,-3.5158,-3.642,-3.5779,-3.4051,-3.0457,-2.4948,0.0,0.0,0.0,0.0,0.0,0.0,0.0,0.0,0.0,0.0,0.0,0.0,0.0,0.0,0.0,0.0,0.0,0.0,0.0,0.0,0.0,0.0,0.0,0.0,0.0,0.0,0.0,0.0,0.0,0.0,0.0,0.0,0.0,0.0,0.0,0.0,0.0,0.0,-0.9452,-1.2144,0.0,0.0,0.0,0.0,0.0,0.0,0.0,0.0,-1.0541,0.0,0.0,0.0,0.0,0.0,0.0,0.0,0.0,0.0,0.0,0.0,0.0,0.0,0.0,0.0,0.0,0.0,0.0,0.0,0.0,0.0,0.0,0.0,0.0,0.0,0.0,0.0,0.0,0.0,0.0,0.0,0.0,0.0,0.0,0.0,0.0,0.0,0.0,0.0,0.0,0.0,0.0,0.0,0.0,0.0,0.0,0.0,0.0,0.0,0.0,0.0,0.0,0.0,0.0,0.0,0.0,-2.2687,-2.2649,-2.599,-3.2885,-3.4284,-3.5197,-3.5702,-3.3468,-3.0377,-2.6539,0.0,0.0,0.0,0.0,0.0,0.0,0.0,0.0,0.0,0.0,0.0,0.0,0.0,0.0,0.0,0.0,0.0,0.0,0.0,0.0,0.0,0.0,0.0,0.0,0.0,0.0,0.0,0.0,0.0,0.0,0.0,0.0,0.0,0.0,0.0,0.0,0.0,0.0,0.0,-1.3238,-1.4267,0.0,0.0,0.0,0.0,0.0,0.0,0.0,0.0,-1.205,0.0,0.0,0.0,0.0,0.0,0.0,0.0,0.0,0.0,0.0,0.0,0.0,0.0,0.0,0.0,0.0,0.0,0.0,0.0,0.0,0.0,0.0,0.0,0.0,0.0,0.0,0.0,0.0,0.0,0.0,0.0,0.0,0.0,0.0,0.0,0.0,0.0,0.0,0.0,0.0,0.0,0.0,0.0,0.0,0.0,0.0,0.0,0.0,0.0,0.0,0.0,0.0,0.0,0.0,0.0,-2.2848,-2.4785,-2.7951,-3.2477,-3.3856,-3.4692,-3.508,-3.3075,-3.0548,0.0,0.0,0.0,0.0,0.0,0.0,0.0,0.0,0.0,0.0,0.0,0.0,0.0,0.0,0.0,0.0,0.0,0.0,0.0,0.0,0.0,0.0,0.0,0.0,0.0,0.0,0.0,0.0,0.0,0.0,0.0,0.0,0.0,0.0,0.0,0.0,0.0,0.0,0.0,0.0,-1.4846,-1.5818,-1.7105,0.0,0.0,0.0,0.0,0.0,0.0,-1.4084,-1.381,0.0,0.0,0.0,0.0,0.0,0.0,0.0,0.0,0.0,0.0,0.0,0.0,0.0,0.0,0.0,0.0,0.0,0.0,0.0,0.0,0.0,0.0,0.0,0.0,0.0,0.0,0.0,0.0,0.0,0.0,0.0,0.0,0.0,0.0,0.0,0.0,0.0,0.0,0.0,0.0,0.0,0.0,0.0,0.0,0.0,0.0,0.0,0.0,0.0,0.0,0.0,0.0,0.0,0.0,0.0,-2.3057,-2.6903,-2.9913,-3.1926,-3.3293,-3.4089,-3.4206,-3.2399,-3.0261,0.0,0.0,0.0,0.0,0.0,0.0,0.0,0.0,0.0,0.0,0.0,0.0,0.0,0.0,0.0,0.0,0.0,0.0,0.0,0.0,0.0,0.0,0.0,0.0,0.0,0.0,0.0,0.0,0.0,0.0,0.0,0.0,0.0,0.0,0.0,0.0,0.0,0.0,0.0,0.0,0.0,-1.7504,-1.8654,-1.8084,0.0,0.0,0.0,0.0,-1.6112,-1.6678,0.0,0.0,0.0,0.0,0.0,0.0,0.0,0.0,0.0,0.0,0.0,0.0,0.0,0.0,0.0,0.0,0.0,0.0,0.0,0.0,0.0,0.0,0.0,0.0,0.0,0.0,0.0,0.0,0.0,0.0,0.0,0.0,0.0,0.0,0.0,0.0,0.0,0.0,0.0,0.0,0.0,0.0,0.0,0.0,0.0,0.0,0.0,0.0,0.0,0.0,0.0,0.0,0.0,0.0,0.0,0.0,-2.2998,-2.5762,-2.8748,-3.1817,-3.2186,-3.2672,-3.3371,-3.1013,-2.8803,0.0,0.0,0.0,0.0,0.0,0.0,0.0,0.0,0.0,0.0,0.0,0.0,0.0,0.0,0.0,0.0,0.0,0.0,0.0,0.0,0.0,0.0,0.0,0.0,0.0,0.0,0.0,0.0,0.0,0.0,0.0,0.0,0.0,0.0,0.0,0.0,0.0,0.0,0.0,0.0,0.0,-1.8538,-1.8022,-1.7151,-1.6739,0.0,0.0,-1.952,-1.9525,-2.2045,0.0,0.0,0.0,0.0,0.0,0.0,0.0,0.0,0.0,0.0,0.0,0.0,0.0,0.0,0.0,0.0,0.0,0.0,0.0,0.0,0.0,0.0,0.0,0.0,0.0,0.0,0.0,0.0,0.0,0.0,0.0,0.0,0.0,0.0,0.0,0.0,0.0,0.0,0.0,0.0,0.0,0.0,0.0,0.0,0.0,0.0,0.0,0.0,0.0,0.0,0.0,0.0,0.0,0.0,0.0,-2.1405,-2.3062,-2.6495,-2.9272,-3.1195,-3.1739,-3.2178,-3.2555,-3.0447,-2.8501,0.0,0.0,0.0,0.0,0.0,0.0,0.0,0.0,0.0,0.0,0.0,0.0,0.0,0.0,0.0,0.0,0.0,0.0,0.0,0.0,0.0,0.0,0.0,0.0,0.0,0.0,0.0,0.0,0.0,0.0,0.0,0.0,0.0,0.0,0.0,0.0,0.0,0.0,0.0,0.0,0.0,0.0,-2.1236,-2.0604,0.0,0.0,0.0,-2.1933,-2.0977,0.0,0.0,0.0,0.0,0.0,0.0,0.0,0.0,0.0,0.0,0.0,0.0,0.0,0.0,0.0,0.0,0.0,0.0,0.0,0.0,0.0,0.0,0.0,0.0,0.0,0.0,0.0,0.0,0.0,0.0,0.0,0.0,0.0,0.0,0.0,0.0,0.0,0.0,0.0,0.0,0.0,0.0,0.0,0.0,0.0,0.0,0.0,0.0,0.0,0.0,0.0,0.0,0.0,0.0,0.0,0.0,0.0,-2.3057,-2.7233,-2.9816,-3.0671,-3.1331,-3.1681,-3.1642,-3.0149,0.0,0.0,0.0,0.0,0.0,0.0,0.0,0.0,0.0,0.0,0.0,0.0,0.0,0.0,0.0,0.0,0.0,0.0,0.0,0.0,0.0,0.0,0.0,0.0,0.0,0.0,0.0,-0.8162,0.0,0.0,0.0,0.0,0.0,0.0,0.0,0.0,0.0,0.0,0.0,0.0,0.0,0.0,-2.1914,-2.3523,-2.3368,-2.318,0.0,0.0,-2.3861,-2.2811,-2.4973,-2.5841,0.0,0.0,0.0,0.0,0.0,0.0,0.0,0.0,0.0,0.0,0.0,0.0,0.0,0.0,0.0,0.0,0.0,0.0,0.0,0.0,0.0,0.0,0.0,0.0,0.0,0.0,0.0,0.0,0.0,0.0,0.0,0.0,0.0,0.0,0.0,0.0,0.0,0.0,0.0,0.0,0.0,0.0,0.0,0.0,0.0,0.0,0.0,0.0,0.0,0.0,0.0,0.0,0.0,0.0,0.0,-2.3115,-2.7213,-2.9816,-3.0671,-3.0749,-3.0787,-3.0768,-2.9874,-2.8203,0.0,0.0,0.0,0.0,0.0,0.0,0.0,0.0,0.0,0.0,0.0,0.0,0.0,0.0,0.0,0.0,0.0,0.0,0.0,0.0,0.0,0.0,0.0,0.0,0.0,0.0,0.0,0.0,0.0,0.0,0.0,0.0,0.0,0.0,0.0,0.0,0.0,0.0,0.0,0.0,0.0,-2.3604,-2.2892,-2.3388,-2.4388,0.0,0.0,-2.5344,-2.5963,-2.8855,-2.9966,-2.6688,0.0,0.0,0.0,0.0,0.0,0.0,0.0,0.0,0.0,0.0,0.0,0.0,0.0,0.0,0.0,0.0,0.0,0.0,0.0,0.0,0.0,0.0,0.0,0.0,0.0,0.0,0.0,0.0,0.0,0.0,0.0,0.0,0.0,0.0,0.0,0.0,0.0,0.0,0.0,0.0,0.0,0.0,0.0,0.0,0.0,0.0,0.0,0.0,0.0,0.0,0.0,0.0,0.0,-2.2144,-2.3018,-2.6689,-2.9272,-3.0632,-3.069,-3.069,-3.069,-2.9855,-2.8417,0.0,0.0,0.0,0.0,0.0,0.0,0.0,0.0,0.0,0.0,0.0,0.0,0.0,0.0,0.0,0.0,0.0,0.0,0.0,0.0,0.0,0.0,0.0,0.0,0.0,0.0,0.0,0.0,-1.3197,-1.4456,-1.4676,0.0,0.0,0.0,0.0,0.0,0.0,0.0,0.0,0.0,0.0,-2.5091,-2.5753,-2.6082,0.0,0.0,-2.7395,-2.7465,-2.7287,-2.8811,-2.9245,-2.6914,-2.7131,0.0,0.0,0.0,0.0,0.0,0.0,0.0,0.0,0.0,0.0,0.0,0.0,0.0,0.0,0.0,0.0,0.0,0.0,0.0,0.0,0.0,0.0,0.0,0.0,0.0,0.0,0.0,0.0,0.0,0.0,0.0,0.0,0.0,0.0,0.0,0.0,0.0,0.0,0.0,0.0,0.0,0.0,0.0,0.0,0.0,0.0,0.0,0.0,0.0,0.0,0.0,0.0,-2.2377,-2.3018,-2.6611,-2.9214,-3.0671,-3.069,-3.069,-3.069,-3.0108,-2.8967,0.0,0.0,0.0,0.0,0.0,0.0,0.0,0.0,0.0,0.0,0.0,0.0,0.0,0.0,0.0,0.0,0.0,0.0,0.0,0.0,0.0,0.0,0.0,0.0,0.0,0.0,0.0,0.0,-1.51,-1.5699,-1.6405,0.0,0.0,0.0,0.0,0.0,0.0,0.0,0.0,0.0,0.0,-2.6754,-2.7643,-2.7929,-2.8052,-2.8045,-2.8594,-2.8817,-2.8248,-2.8702,-2.8633,-2.7242,0.0,0.0,0.0,0.0,0.0,0.0,0.0,0.0,0.0,0.0,0.0,0.0,0.0,0.0,0.0,0.0,0.0,0.0,0.0,0.0,0.0,0.0,0.0,0.0,0.0,0.0,0.0,0.0,0.0,0.0,-1.6081,0.0,0.0,0.0,0.0,0.0,0.0,0.0,0.0,0.0,0.0,0.0,0.0,0.0,0.0,0.0,0.0,0.0,0.0,0.0,0.0,0.0,0.0,-2.2979,-2.3057,-2.7174,-2.9797,-3.0671,-3.069,-3.069,-3.069,-3.0671,-2.9836,-2.8081,0.0,0.0,0.0,0.0,0.0,0.0,0.0,0.0,0.0,0.0,0.0,0.0,0.0,0.0,0.0,0.0,0.0,0.0,0.0,0.0,0.0,0.0,0.0,0.0,0.0,0.0,-1.3171,-1.4435,-1.6447,0.0,0.0,0.0,0.0,0.0,0.0,0.0,0.0,0.0,0.0,-2.793,-2.8687,-2.7822,-2.837,-2.8809,-2.8853,-2.8912,-2.8983,-2.8921,-2.9068,-2.8908,0.0,0.0,0.0,0.0,0.0,0.0,0.0,0.0,0.0,0.0,0.0,0.0,0.0,0.0,0.0,0.0,0.0,0.0,0.0,0.0,0.0,0.0,0.0,0.0,0.0,0.0,0.0,-1.6178,-1.6698,0.0,0.0,0.0,0.0,0.0,0.0,0.0,0.0,0.0,0.0,0.0,-2.8241,-2.9206,0.0,0.0,0.0,0.0,0.0,0.0,0.0,0.0,0.0,0.0,0.0,0.0,-2.3018,-2.3193,-2.7213,-2.9816,-3.0671,-3.069,-3.069,-3.069,-3.069,-2.9622,-2.7369,0.0,0.0,0.0,0.0,0.0,0.0,0.0,0.0,0.0,0.0,0.0,0.0,0.0,0.0,0.0,0.0,0.0,0.0,0.0,0.0,0.0,0.0,0.0,0.0,0.0,-1.8011,0.0,0.0,0.0,0.0,0.0,0.0,0.0,0.0,0.0,0.0,0.0,-2.6234,-2.7227,-2.7344,-2.7407,-2.7663,-2.7969,-2.8345,0.0,0.0,0.0,0.0,0.0,0.0,0.0,0.0,0.0,0.0,0.0,0.0,0.0,0.0,-2.6239,-2.3934,-2.4736,-2.5878,-2.6226,0.0,0.0,0.0,0.0,0.0,0.0,0.0,0.0,0.0,0.0,0.0,0.0,0.0,0.0,-1.8986,0.0,-1.9484,0.0,0.0,0.0,0.0,0.0,0.0,0.0,0.0,-2.6776,-2.9487,-3.1447,-3.2372,-3.3134,0.0,-3.3666,-3.1196,0.0,0.0,0.0,0.0,0.0,0.0,0.0,0.0,-2.4494,-2.4086,-2.7835,-3.0108,-3.0671,-3.069,-3.069,-3.069,-3.069,-2.9913,-2.8262,-2.6786,-2.5486,0.0,0.0,0.0,0.0,0.0,0.0,0.0,0.0,0.0,0.0,0.0,0.0,0.0,0.0,0.0,0.0,0.0,0.0,0.0,0.0,0.0,0.0,0.0,-2.1302,0.0,0.0,0.0,0.0,0.0,0.0,0.0,0.0,0.0,-2.4993,-2.6223,-2.7258,-2.773,-2.7542,-2.7332,-2.7321,0.0,0.0,0.0,0.0,0.0,0.0,0.0,-2.7325,-2.6801,-2.7672,-2.8673,-2.9437,-3.004,-3.0508,-3.079,0.0,0.0,-2.6976,-2.7918,-2.9184,-2.9244,-2.9525,-2.9893,-3.033,-3.0867,-3.141,0.0,0.0,0.0,0.0,0.0,0.0,0.0,0.0,-2.294,-2.341,0.0,-2.3228,0.0,0.0,0.0,0.0,0.0,-2.2282,0.0,0.0,-3.1746,-3.3847,-3.3408,-3.4232,-3.4648,-3.4628,-3.4664,-3.4206,-3.3215,-3.0824,0.0,0.0,0.0,0.0,0.0,0.0,-2.7246,-2.5776,-2.8961,-3.069,-3.069,-3.069,-3.069,-3.069,-3.069,-3.0671,-3.0593,-2.834,-2.7,-2.6864,-2.2207,0.0,0.0,0.0,0.0,0.0,0.0,0.0,0.0,0.0,0.0,0.0,0.0,0.0,0.0,0.0,0.0,0.0,0.0,0.0,0.0,-2.2227,0.0,0.0,0.0,0.0,0.0,0.0,0.0,0.0,0.0,0.0,-2.6523,-2.7206,-2.7783,-2.7844,0.0,0.0,0.0,0.0,-2.8433,-2.6814,-2.7267,-2.7528,-2.6738,-2.8019,-2.9107,-2.9136,0.0,0.0,-3.2788,-3.1621,-3.0917,-3.1679,-3.191,-3.1205,-2.9344,-3.0362,-3.1347,-3.0744,-3.1737,-3.2781,-3.2905,-3.2852,-3.299,-3.2422,0.0,0.0,0.0,0.0,-2.6237,-2.715,-2.8181,-2.83,-2.8463,-2.8598,-2.7131,0.0,0.0,0.0,0.0,0.0,0.0,-2.6534,-2.9504,-3.2288,-3.4417,-3.6004,-3.6859,-3.7286,-3.7286,-3.7275,-3.6828,-3.5974,-3.4625,-3.2043,-2.832,0.0,0.0,0.0,0.0,-2.6378,-2.6689,-2.9272,-3.069,-3.069,-3.069,-3.069,-3.069,-3.069,-3.069,-3.069,-2.9991,-2.9039,-2.7777,-2.5815,0.0,0.0,0.0,0.0,0.0,0.0,0.0,0.0,0.0,0.0,0.0,0.0,0.0,0.0,0.0,0.0,0.0,0.0,0.0,-2.3979,-2.573,-2.5866,0.0,0.0,0.0,0.0,0.0,0.0,0.0,0.0,0.0,-2.7366,-2.7098,-2.7359,0.0,0.0,-2.6598,-2.7347,-2.7388,-2.7341,-2.7424,0.0,0.0,0.0,-2.8315,-2.8483,-2.9023,-3.1039,-3.2851,-3.3673,-3.3949,-3.4122,-3.4372,-3.4397,-3.4186,-3.3686,-3.2917,-3.2878,-3.3576,-3.3393,-3.3105,-3.3566,-3.4171,-3.481,-3.9913,-3.5547,-3.2767,-3.1496,-3.1403,-3.1956,-3.2875,-3.4025,-3.4107,-3.4128,-3.3984,-3.1942,-3.0733,-3.0042,-2.734,0.0,0.0,0.0,-2.9796,-3.3141,-3.4628,-3.6323,-3.813,-3.8984,-3.9587,-3.9858,-3.9548,-3.912,-3.8576,-3.7411,-3.5371,-3.2438,0.0,0.0,-2.7421,-2.8223,-2.8748,-2.8981,-3.0418,-3.1215,-3.1215,-3.0884,-3.069,-3.069,-3.069,-3.069,-3.069,-3.069,-3.0205,-2.9156,-2.7699,-2.619,0.0,0.0,0.0,0.0,0.0,0.0,0.0,0.0,0.0,0.0,0.0,-1.9412,-2.0937,0.0,0.0,0.0,-2.3285,-2.4651,-2.6575,-2.7332,0.0,0.0,0.0,0.0,0.0,0.0,0.0,-2.5669,-2.6828,-2.7758,-2.7783,-2.7402,-2.7604,-2.8912,-2.7778,-2.7075,-2.7776,0.0,-2.7691,-2.7841,-2.7879,-2.8063,-2.8555,-2.8775,-2.9382,-3.0906,-3.2346,-3.368,-3.4564,-3.5161,-3.5488,-3.5507,-3.5507,-3.5507,-3.5507,-3.4609,-3.4131,-3.5089,-3.5128,-3.5062,-3.5441,-3.6449,-3.7439,-4.6123,-4.5634,-3.9174,-3.6876,-3.7492,-3.7513,-3.8431,-3.9874,-3.9881,-3.9874,-3.9611,-3.7193,-3.6033,-3.5646,-3.1727,0.0,-3.2424,-3.2499,-3.4293,-3.7424,-3.8287,-3.9159,-4.0014,-4.0694,-4.1451,-4.2267,-4.1471,-4.1102,-4.1024,-3.9489,-3.8227,-3.7256,-3.4905,-3.3177,-3.2205,-3.2788,-3.2807,-3.2011,-3.1992,-3.2011,-3.1992,-3.1156,-3.069,-3.069,-3.071,-3.071,-3.069,-3.071,-3.071,-3.062,-2.8463,-2.7181,-2.7025,0.0,0.0,0.0,0.0,0.0,0.0,0.0,0.0,0.0,0.0,0.0,0.0,0.0,0.0,0.0,-2.7124,0.0,-2.831,-2.7674,0.0,0.0,0.0,-2.723,-2.8018,-2.8051,-2.799,-2.7904,0.0,0.0,-2.801,0.0,-2.8325,-2.9201,-2.9234,-2.8958,-2.8277,-2.8762,-2.8888,-2.8142,-2.8082,-2.8121,-2.839,-2.9583,-3.1295,-3.3308,-3.4211,-3.4576,-3.5262,-3.5488,-3.5507,-3.5507,-3.5507,-3.5507,-3.5507,-3.5369,-3.5369,-3.5299,-3.6469,-3.7555,-3.7636,-3.8685,-3.9677,-4.8774,-4.8595,-4.6288,-4.4346,-4.2786,-4.2769,-4.3015,-4.3382,-4.3382,-4.3015,-4.228,-4.0423,-3.8856,-3.7541,-3.651,-3.6654,-3.7692,-3.8357,-3.9456,-4.0876,-4.1179,-4.1762,-4.2558,-4.2131,-4.2345,-4.3141,-4.2986,-4.2889,-4.285,-4.1801,-4.0538,-3.9082,-3.7819,-3.5779,-3.3079,-3.2555,-3.2205,-3.2011,-3.2011,-3.2011,-3.1992,-3.1156,-3.069,-3.069,-3.0645,-3.0645,-3.071,-3.0645,-3.0642,-3.0685,-3.0128,-2.9506,-2.8899,-2.6232,0.0,0.0,0.0,0.0,0.0,0.0,0.0,0.0,0.0,-2.4354,-2.5605,0.0,-2.649,0.0,-2.8149,-2.8981,-2.9205,-2.9015,0.0,0.0,-2.8093,-2.7982,-2.8092,-2.866,-2.8767,-2.8051,-2.856,-2.8931,-2.8988,-2.8996,-2.9323,-3.0046,-2.907,-2.8614,-2.9689,-2.9428,-2.9068,-2.892,-2.9371,-2.9813,-2.989,-3.1203,-3.2447,-3.3108,-3.4276,-3.5262,-3.5449,-3.5507,-3.5507,-3.5507,-3.5507,-3.5507,-3.5507,-3.5446,-3.5364,-3.532,-3.5665,-3.6304,-3.7446,-3.8076,-3.8744,-4.99,-5.0128,-4.8894,-4.7347,-4.5761,-4.6535,-4.6651,-4.6322,-4.6709,-4.6167,-4.4891,-4.3614,-4.2067,-4.05,-4.0474,-4.0738,-4.126,-4.1749,-4.223,-4.2682,-4.2752,-4.3044,-4.3471,-4.3005,-4.3238,-4.4054,-4.3685,-4.3704,-4.4015,-4.3199,-4.2325,-4.1393,-4.0519,-3.8771,-3.6187,-3.4536,-3.3876,-3.4264,-3.3507,-3.2749,-3.2023,-3.1525,-3.1072,-3.0653,-3.0233,-3.0051,-3.0071,-2.9671,-2.9474,-2.9525,-2.9531,-2.9344,-2.8882,-2.7542,-2.6967,0.0,0.0,0.0,0.0,0.0,0.0,0.0,0.0,0.0,0.0,0.0,-2.7567,-2.7576,-2.8786,-2.9391,-2.8996,-2.8962,-2.8923,-2.8881,-2.8886,-2.8993,-2.9221,-2.9684,-2.9916,-2.977,-3.0169,-3.0616,-3.0971,-3.073,-3.0794,-3.1581,-3.051,-2.9815,-3.0316,-3.0301,-3.0121,-2.9794,-3.0737,-3.1371,-3.1044,-3.1742,-3.2351,-3.2442,-3.3147,-3.389,-3.4199,-3.4299,-3.4422,-3.4693,-3.487,-3.5084,-3.5411,-3.5446,-3.5379,-3.533,-3.5324,-3.5911,-3.7368,-3.8018,-3.8707,-5.0268,-5.0751,-4.932,-4.829,-4.7705,-4.9204,-4.9049,-4.7811,-4.8566,-4.8101,-4.6728,-4.6071,-4.4987,-4.3653,-4.373,-4.3757,-4.3724,-4.3846,-4.3823,-4.374,-4.3694,-4.3724,-4.3821,-4.3724,-4.4112,-4.4909,-4.4171,-4.421,-4.4909,-4.419,-4.3724,-4.3491,-4.2733,-4.1529,-3.982,-3.7508,-3.644,-3.6751,-3.5371,-3.3895,-3.2361,-3.1992,-3.1445,-3.0632,-2.9655,-2.9132,-2.9132,-2.8396,-2.8039,-2.8107,-2.8107,-2.8146,-2.8269,-2.832,-2.8408,0.0,-2.8515,0.0,0.0,0.0,0.0,0.0,0.0,0.0,0.0,-2.8533,-2.8509,-2.8596,-2.9235,-2.933,-2.8672,-2.863,-2.8962,-2.9826,-2.9925,-3.0228,-3.0934,-3.1037,-3.1309,-3.2026,-3.2085,-3.2396,-3.297,-3.2555,-3.2376,-3.2859,-3.2338,-3.1583,-3.0991,-3.1371,-3.1525,-3.0814,-3.1936,-3.2474,-3.2013,-3.198,-3.2127,-3.2045,-3.2371,-3.2292,-3.2921,-3.3063,-3.3267,-3.3829,-3.415,-3.4526,-3.5353,-3.5446,-3.5374,-3.5307,-3.5308,-3.5796,-3.7137,-3.8078,-3.9032,-5.077,-5.0887,-5.0558,-5.0345,-5.021,-5.0538,-4.8217,-4.4291,-4.4446,-4.4717,-4.5123,-4.5587,-4.5626,-4.5374,-4.6065,-4.6054,-4.548,-4.6166,-4.613,-4.5498,-4.486,-4.4909,-4.5453,-4.487,-4.4986,-4.5725,-4.5589,-4.5608,-4.5763,-4.5608,-4.4831,-4.353,-4.3335,-4.2384,-4.0694,0.0,0.0,0.0,-3.5371,-3.5061,-3.4012,-3.1992,-3.0858,-3.0637,-2.909,0.0,-2.8313,-2.8113,-2.8058,-2.8182,-2.8139,0.0,0.0,0.0,0.0,0.0,0.0,0.0,0.0,0.0,0.0,0.0,-3.0359,-3.0146,-3.0288,-2.9737,-2.9635,-3.0235,-2.9884,-2.9806,-3.0274,-3.0331,-3.0682,-3.1504,-3.1621,-3.1951,-3.2755,-3.2869,-3.2962,-3.3091,-3.3119,-3.3145,-3.3284,-3.3122,-3.3037,-3.31,-3.2889,-3.2692,-3.2461,-3.2583,-3.2583,-3.2487,-3.2788,-3.2878,-3.2716,-3.3179,-3.3384,-3.3463,-3.4001,-3.408,-3.357,-3.3573,-3.3748,-3.404,-3.4166,-3.4468,-3.532,-3.5474,-3.5412,-3.5307,-3.53,-3.5595,-3.6525,-3.7205,-3.7879,-5.0906,0.0,-5.0906,-5.0445,0.0,-4.9653,-4.7715,-4.4639,-4.6322,-4.7076,-4.7154,-4.756,-4.7502,-4.7057,-4.6684,-4.6073,-4.5299,-4.4927,-4.4753,-4.4752,-4.4335,-4.4812,-4.5977,-4.5589,-4.5589,-4.5977,-4.5977,-4.5977,-4.5977,-4.5977,-4.5569,-4.4734,-4.4345,-4.3491,-4.2189,-4.0927,-3.9004,-3.644,-3.644,-3.6032,-3.51,-3.306,-3.1744,-3.1266,0.0,0.0,0.0,0.0,0.0,0.0,0.0,0.0,0.0,0.0,0.0,-3.1379,-3.1788,-3.2246,-3.2669,-3.2707,-3.2899,-3.3339,-3.3358,-3.2834,-3.155,-3.1448,-3.1641,-3.2012,-3.1328,-3.0997,-3.1387,-3.1446,-3.1599,-3.2068,-3.2494,-3.2921,-3.3301,-3.3392,-3.3567,-3.3984,-3.4046,-3.4129,-3.4438,-3.4107,-3.4013,-3.4154,-3.3832,-3.3735,-3.4039,-3.3814,-3.366,-3.4045,-3.373,-3.3442,-3.3347,-3.3624,-3.3712,-3.3197,-3.3052,-3.2919,-3.2536,-3.2575,-3.2798,-3.3234,-3.37,-3.4304,-3.4996,-3.5209,-3.5174,-3.5032,-3.5015,-3.5131,-3.5645,-3.6235,-3.6927,-5.0906,-5.0906,-5.0906,-5.0117,-4.8848,-4.8841,-4.8024,-4.6864,0.0,0.0,0.0,-4.9397,-4.9068,-4.8314,-4.7129,-4.6054,-4.5091,-4.3889,-4.3549,-4.3938,-4.3957,-4.4676,-4.5958,-4.5977,-4.5977,-4.5977,-4.5977,-4.5977,-4.5977,-4.5977,-4.5977,-4.5938,-4.5336,-4.4501,-4.3452,-4.1781,-4.0228,-3.8868,-3.7858,-3.6906,-3.6012,-3.4245,-3.292,-3.2143,-3.0463,-2.9482,-2.9338,-2.8798,-2.8468,-2.8462,-2.9269,-2.9796,-3.0006,-3.1457,-3.2402,-3.257,-3.3357,-3.4164,-3.4881,-3.494,-3.5232,-3.5971,-3.601,-3.5096,-3.2929,-3.33,-3.3632,-3.3632,-3.2829,-3.2321,-3.2324,-3.2343,-3.24,-3.2531,-3.3214,-3.3675,-3.384,-3.3847,-3.4222,-3.4796,-3.4932,-3.511,-3.5535,-3.5104,-3.4883,-3.5262,-3.4828,-3.4661,-3.5218,-3.482,-3.457,-3.4974,-3.4578,-3.414,-3.3941,-3.3923,-3.3583,-3.292,-3.2297,-3.1732,-3.1541,-3.1654,-3.2007,-3.2686,-3.3342,-3.4063,-3.4737,-3.4945,-3.4851,-3.4734,-3.4715,-3.4735,-3.4869,-3.5363,-3.6045,-5.0906,-5.0906,-5.0906,-5.0755,-5.0542,-5.0542,-5.0403,-5.0035,-4.8392,-4.7579,-4.7502,-4.8256,-4.8527,-4.843,-4.8929,-4.8333,-4.6913,-4.7377,-4.6922,0.0,-4.5647,-4.5763,-4.5977,-4.5977,-4.5977,-4.5977,-4.5977,-4.5977,-4.5977,-4.5977,-4.5977,-4.5977,-4.5861,-4.5045,-4.3471,-4.1762,-4.0791,-4.0519,-3.9004,-3.78,-3.6925,-3.4556,-3.3254,-3.3033,-3.1423,-3.0171,-2.9504,-3.0076,-3.0079,-2.9379,-3.0144,-3.0943,-3.1702,-3.2645,-3.3491,-3.4296,-3.5097,-3.5641,-3.5798,-3.5818,-3.5876,-3.5991,-3.601,-3.5815,-3.5486,-3.4881,-3.453,-3.4471,-3.3721,-3.321,-3.3219,-3.3216,-3.3487,-3.4176,-3.4429,-3.4775,-3.544,-3.5533,-3.5568,-3.571,-3.5836,-3.5722,-3.5659,-3.5566,-3.5449,-3.5488,-3.5315,-3.5339,-3.5383,-3.5364,-3.5177,-3.5067,-3.492,-3.4699,-3.4463,-3.447,-3.4258,-3.4087,-3.3998,-3.3573,-3.2854,-3.2921,-3.3145,-3.3373,-3.3581,-3.3998,-3.4718,-3.4908,-3.4831,-3.4733,-3.4736,-3.4737,-3.4694,-3.4832,-3.5207,-5.0906,-5.0906,-5.0906,-5.0906,-5.0906,-5.0906,-5.0906,-5.0809,-4.9668,-4.9184,-4.9223,-4.9571,-4.9765,-4.9707,-4.9266,-4.8363,-4.7185,-4.6713,-4.6318,-4.5977,-4.555,-4.5841,-4.6599,-4.623,-4.5977,-4.5977,-4.5977,-4.5977,-4.5977,-4.5977,-4.5977,-4.5958,-4.5569,-4.4715,-4.351,-4.2248,-4.1354,-4.0869,-3.9256,-3.8207,-3.7761,-3.5274,-3.3957,-3.3998,-3.2747,-3.1937,-3.1588,-3.1955,-3.1984,-3.1639,-3.246,-3.3104,-3.3514,-3.4297,-3.4941,-3.5332,-3.5739,-3.5966,-3.6013,-3.601,-3.601,-3.601,-3.601,-3.601,-3.601,-3.5642,-3.5408,-3.5369,-3.4622,-3.4114,-3.4095,-3.4114,-3.4267,-3.4644,-3.5103,-3.5552,-3.5864,-3.5981,-3.5977,-3.5919,-3.5904,-3.5825,-3.5671,-3.5651,-3.5603,-3.5526,-3.5507,-3.5465,-3.5304,-3.5254,-3.5184,-3.5076,-3.4942,-3.4752,-3.4562,-3.4544,-3.4442,-3.4221,-3.3962,-3.3702,-3.3275,-3.3387,-3.3447,-3.3504,-3.3786,-3.4179,-3.4548,-3.4524,-3.448,-3.4458,-3.4551,-3.4595,-3.4612,-3.4756,-3.5204,-5.0906,-5.0906,-5.0906,-5.0906,-5.0906,-5.0906,-5.0906,-5.0906,-5.0887,-5.0906,-5.0906,-5.0906,-5.0906,-5.079,-4.9618,-4.8619,-4.7708,-4.6504,-4.6189,-4.6482,-4.5938,-4.6346,-4.7395,-4.6696,-4.6288,-4.626,-4.6104,-4.5977,-4.5977,-4.5977,-4.5977,-4.5899,-4.5181,-4.4365,-4.351,-4.2636,-4.1762,-4.0869,-3.9457,-3.8583,-3.8333,-3.6056,-3.4847,-3.4856,-3.4242,-3.3799,-3.3643,-3.3803,-3.3847,-3.3749,-3.4529,-3.4998,-3.5018,-3.5613,-3.5962,-3.5934,-3.5964,-3.601,-3.601,-3.601,-3.601,-3.601,-3.601,-3.601,-3.601,-3.601,-3.601,-3.5932,-3.5386,-3.4992,-3.4992,-3.4992,-3.4989,-3.5026,-3.5584,-3.5939,-3.5942,-3.5958,-3.5914,-3.5821,-3.5791,-3.5723,-3.565,-3.5616,-3.5565,-3.5526,-3.5507,-3.5403,-3.519,-3.5088,-3.5037,-3.4946,-3.4831,-3.4586,-3.4389,-3.4362,-3.4293,-3.4105,-3.3757,-3.3612,-3.3574,-3.3561,-3.3564,-3.3674,-3.4027,-3.4319,-3.4227,-3.4221,-3.4221,-3.4197,-3.4389,-3.4582,-3.4735,-3.498,-3.5444,-5.0906,-5.0906,-5.0906,-5.0906,-5.0906,-5.0906,-5.0906,-5.0906,-5.0906,-5.0921,-5.0971,-5.0941,-5.0941,-5.099,-5.0863,-5.0308,-4.955,-4.9458,-4.8996,-4.8405,-4.8289,-4.8327,-4.8386,-4.7589,-4.7162,-4.7056,-4.6396,-4.6055,-4.5977,-4.5977,-4.5977,-4.5899,-4.52,-4.4365,-4.3491,-4.2636,-4.1781,-4.0888,-4.0018,-3.9188,-3.8341,-3.669,-3.5786,-3.5772,-3.5708,-3.5312,-3.4609,-3.5345,-3.5374,-3.4727,-3.5372,-3.586,-3.5879,-3.5955,-3.5994,-3.5977,-3.5994,-3.601,-3.601,-3.601,-3.601,-3.601,-3.601,-3.601,-3.601,-3.601,-3.601,-3.5971,-3.5926,-3.5828,-3.5874,-3.5848,-3.5789,-3.577,-3.591,-3.6007,-3.5974,-3.5904,-3.5811,-3.5802,-3.5753,-3.5684,-3.5618,-3.5611,-3.5565,-3.5507,-3.5507,-3.5417,-3.5193,-3.5037,-3.4851,-3.4689,-3.4539,-3.4348,-3.4141,-3.4111,-3.4154,-3.413,-3.4284,-3.4222,-3.412,-3.4203,-3.4408,-3.4004,-3.4139,-3.4227,-3.4221,-3.4216,-3.4216,-3.4197,-3.4399,-3.466,-3.4977,-3.5162,-3.5551,-5.0906,-5.0906,-5.0906,-5.0906,-5.0906,-5.0906,-5.0906,-5.0906,-5.0941,-5.0971,-5.0986,-5.1005,-5.1039,-5.1053,-5.1078,-5.0893,-5.0571,-5.0635,-5.0503,-5.0095,-4.9629,-4.9376,-4.926,-4.8483,-4.7822,-4.7317,-4.6929,-4.6502,-4.6074,-4.5977,-4.5977,-4.5977,-4.5647,-4.4851,-4.3588,-4.3141,-4.2334,-4.0984,-4.0124,-3.9544,-3.9087,-3.7546,-3.6668,-3.6606,-3.619,-3.58,-3.554,-3.5823,-3.5837,-3.5525,-3.5798,-3.601,-3.601,-3.601,-3.601,-3.601,-3.601,-3.5985,-3.5942,-3.5981,-3.5985,-3.5942,-3.5981,-3.601,-3.601,-3.601,-3.601,-3.601,-3.6007,-3.6007,-3.6004,-3.6007,-3.6004,-3.602,-3.6004,-3.5981,-3.5885,-3.585,-3.5833,-3.5721,-3.5657,-3.5609,-3.556,-3.5545,-3.5526,-3.5507,-3.5488,-3.5383,-3.5089,-3.4964,-3.4752,-3.4454,-3.4316,-3.425,-3.4141,-3.4136,-3.4148,-3.4154,-3.425,-3.4293,-3.4288,-3.4269,-3.4316,-3.4197,-3.4197,-3.4216,-3.4216,-3.4216,-3.4216,-3.4282,-3.4498,-3.4829,-3.5209,-3.5281,-3.5503,-5.0906,-5.0906,-5.0906,-5.0906,-5.0906,-5.0906,-5.0906,-5.0906,-5.0956,-5.0986,-5.102,-5.1073,-5.1101,-5.1095,-5.1081,-5.1108,-5.1127,-5.119,-5.1202,-5.1144,-5.0542,-5.025,-5.0173,-4.9376,-4.8502,-4.7745,-4.7395,-4.6851,-4.6074,-4.5977,-4.5977,-4.5977,-4.5977,-4.5297,-4.4015,-4.3841,-4.3155,-4.1773,-4.0872,-4.0457,-4.0281,-3.8803,-3.7674,-3.7207,-3.662,-3.6205,-3.6013,-3.601,-3.601,-3.601,-3.601,-3.601,-3.601,-3.601,-3.601,-3.601,-3.601,-3.5958,-3.5894,-3.5942,-3.5942,-3.5858,-3.5934,-3.5978,-3.5981,-3.5988,-3.601,-3.601,-3.601,-3.601,-3.6004,-3.6007,-3.6007,-3.6013,-3.5978,-3.5923,-3.5864,-3.582,-3.5757,-3.5631,-3.5601,-3.556,-3.5522,-3.5507,-3.5507,-3.5507,-3.5474,-3.5354,-3.5019,-3.4908,-3.4713,-3.4274,-3.4197,-3.4197,-3.4216,-3.4216,-3.4216,-3.4216,-3.4221,-3.4221,-3.4216,-3.4197,-3.4197,-3.4197,-3.4216,-3.4216,-3.4216,-3.4216,-3.4253,-3.4367,-3.4558,-3.487,-3.5219,-3.5258,-3.5258,-5.0906,-5.0906,-5.0906,-5.0906,-5.0906,-5.0906,-5.0906,-5.0906,-5.0906,-5.099,-5.1067,-5.102,-5.1048,-5.1082,-5.1095,-5.116,-5.1171,-5.119,-5.119,-5.1183,-5.1105,-5.1125,-5.1086,-5.0231,-4.9376,-4.8541,-4.7764,-4.6909,-4.6035,-4.5977,-4.5977,-4.5977,-4.5977,-4.5569,-4.4773,-4.4651,-4.4286,-4.3259,-4.2466,-4.2187,-4.1992,-4.0519,-3.886,-3.7519,-3.7218,-3.6816,-3.615,-3.601,-3.601,-3.601,-3.601,-3.601,-3.601,-3.601,-3.601,-3.601,-3.601,-3.5958,-3.5919,-3.5914,-3.5852,-3.5753,-3.5827,-3.5894,-3.5924,-3.5974,-3.601,-3.601,-3.601,-3.601,-3.5988,-3.6004,-3.5988,-3.5985,-3.5938,-3.5894,-3.5883,-3.5704,-3.563,-3.5609,-3.5558,-3.5522,-3.5488,-3.5507,-3.5507,-3.5507,-3.5507,-3.5354,-3.5019,-3.4908,-3.4691,-3.4363,-3.4216,-3.4216,-3.4216,-3.4216,-3.4216,-3.4216,-3.4216,-3.4216,-3.4216,-3.4216,-3.4216,-3.4216,-3.4216,-3.4216,-3.4216,-3.4253,-3.4351,-3.4423,-3.4529,-3.481,-3.5115,-3.5145,-3.5157,-5.0906,-5.0906,-5.0906,-5.0906,-5.0906,-5.0906,-5.0906,-5.0906,-5.0956,-5.1005,-5.102,-5.1053,-5.1081,-5.1075,-5.1081,-5.1114,-5.1147,-5.114,-5.1153,-5.1127,-5.1127,-5.1159,-5.1163,-5.0853,-5.027,-4.9396,-4.8561,-4.7395,-4.6113,-4.5977,-4.5977,-4.5977,-4.5977,-4.56,-4.4943,-4.4798,-4.4406,-4.3637,-4.2811,-4.2382,-4.2334,-4.1231,-4.0059,-3.8914,-3.7834,-3.7165,-3.6833,-3.6303,-3.601,-3.601,-3.601,-3.601,-3.601,-3.601,-3.601,-3.601,-3.601,-3.5978,-3.5919,-3.5889,-3.584,-3.5737,-3.5814,-3.5908,-3.5899,-3.597,-3.601,-3.601,-3.601,-3.6004,-3.5942,-3.5938,-3.5938,-3.5929,-3.5846,-3.5764,-3.5706,-3.563,-3.5585,-3.5553,-3.5515,-3.5507,-3.5507,-3.5507,-3.5507,-3.5507,-3.5507,-3.5324,-3.5019,-3.4908,-3.4732,-3.4321,-3.4216,-3.4216,-3.4216,-3.4216,-3.4216,-3.4216,-3.4216,-3.4216,-3.4216,-3.4216,-3.4216,-3.4216,-3.4216,-3.4216,-3.4216,-3.4216,-3.4333,-3.4474,-3.4558,-3.4648,-3.4943,-3.5021,-3.5091,-5.0906,-5.0906,-5.0906,-5.0906,-5.0906,-5.0906,-5.0906,-5.0906,-5.0956,-5.099,-5.1005,-5.102,-5.1053,-5.1053,-5.1092,-5.1078,-5.1039,-5.1058,-5.1101,-5.1095,-5.1076,-5.1159,-5.1202,-5.1202,-5.0736,-4.9815,-4.8739,-4.766,-4.6951,-4.6589,-4.645,-4.645,-4.645,-4.6045,-4.539,-4.5255,-4.4982,-4.4414,-4.367,-4.3156,-4.2789,-4.1967,-4.1108,-4.0171,-3.8824,-3.7828,-3.734,-3.6735,-3.6264,-3.6049,-3.601,-3.601,-3.601,-3.601,-3.601,-3.601,-3.601,-3.5978,-3.5919,-3.5889,-3.584,-3.571,-3.5827,-3.5986,-3.6226,-3.613,-3.6102,-3.6231,-3.6068,-3.5934,-3.5852,-3.582,-3.5813,-3.582,-3.5729,-3.567,-3.5618,-3.5593,-3.5521,-3.5515,-3.5488,-3.5507,-3.5507,-3.5507,-3.5507,-3.5507,-3.5451,-3.5264,-3.4982,-3.4831,-3.467,-3.4293,-3.4216,-3.4216,-3.4216,-3.4216,-3.4216,-3.4216,-3.4216,-3.4216,-3.4216,-3.4216,-3.4216,-3.4216,-3.4216,-3.4216,-3.4216,-3.4216,-3.4314,-3.4468,-3.446,-3.4475,-3.4711,-3.492,-3.5002,-5.0906,-5.0906,-5.0906,-5.0906,-5.0906,-5.0906,-5.0906,-5.0906,-5.0906,-5.0941,-5.099,-5.0941,-5.0975,-5.101,-5.1091,-5.1057,-5.0971,-5.1072,-5.1116,-5.1082,-5.1095,-5.1139,-5.1214,-5.1206,-5.077,-4.9886,-4.8319,-4.7949,-4.8412,-4.7766,-4.7396,-4.7409,-4.7307,-4.6878,-4.6202,-4.6127,-4.6113,-4.5839,-4.5145,-4.4449,-4.3704,-4.2747,-4.1849,-4.103,-4.0151,-3.9019,-3.7516,-3.7301,-3.6813,-3.6108,-3.601,-3.601,-3.601,-3.601,-3.601,-3.601,-3.601,-3.5955,-3.5924,-3.5894,-3.584,-3.5779,-3.5853,-3.6298,-3.6752,-3.6454,-3.6345,-3.6743,-3.6326,-3.584,-3.5721,-3.5766,-3.5747,-3.5668,-3.5631,-3.5596,-3.5593,-3.5528,-3.5488,-3.5507,-3.5507,-3.5526,-3.5512,-3.5628,-3.5685,-3.5638,-3.553,-3.5276,-3.4964,-3.4791,-3.4539,-3.4311,-3.4216,-3.4216,-3.4216,-3.4216,-3.4216,-3.4216,-3.4216,-3.4216,-3.4216,-3.4216,-3.4216,-3.4216,-3.4216,-3.4216,-3.4216,-3.4216,-3.4216,-3.4314,-3.4301,-3.4325,-3.4502,-3.472,-3.4888,-5.0906,-5.0906,-5.0906,-5.0906,-5.0906,-5.0906,-5.0906,-5.0906,-5.0906,-5.0906,-5.0941,-5.1003,-5.1041,-5.1095,-5.1119,-5.1139,-5.1111,-5.1159,-5.1145,-5.1095,-5.1089,-5.1125,-5.1201,-5.1219,-5.0766,-5.0004,-4.9425,-4.8938,-4.8694,-4.8435,-4.8298,-4.8213,-4.767,-4.7308,-4.7009,-4.6523,-4.6229,-4.6178,-4.5447,-4.4582,-4.3704,-4.2864,-4.2006,-4.1186,-4.0815,-4.0132,-3.9078,-3.7926,-3.6911,-3.6088,-3.601,-3.601,-3.601,-3.601,-3.601,-3.601,-3.601,-3.5991,-3.5958,-3.5909,-3.5883,-3.5943,-3.6345,-3.6785,-3.7058,-3.6899,-3.6845,-3.7013,-3.6287,-3.5713,-3.5757,-3.619,-3.6198,-3.5718,-3.557,-3.5554,-3.5534,-3.5515,-3.5488,-3.5507,-3.5507,-3.5738,-3.6166,-3.632,-3.6267,-3.632,-3.6228,-3.5946,-3.5153,-3.4849,-3.4628,-3.4316,-3.4269,-3.4216,-3.4216,-3.4216,-3.4216,-3.4216,-3.4216,-3.4216,-3.4216,-3.4216,-3.4216,-3.4216,-3.4216,-3.4216,-3.4216,-3.4216,-3.4216,-3.4216,-3.424,-3.4301,-3.4338,-3.4532,-3.4792,-5.0906,-5.0906,-5.0906,-5.0906,-5.0906,-5.0906,-5.0906,-5.0906,-5.0964,-5.0983,-5.1003,-5.108,-5.1136,-5.1153,-5.1218,-5.1231,-5.1209,-5.1224,-5.1189,-5.1132,-5.1136,-5.1181,-5.1232,-5.1211,-5.0969,-5.0472,-5.0114,-4.9864,-4.968,-4.9355,-4.9072,-4.867,-4.8182,-4.7578,-4.7106,-4.6539,-4.6258,-4.6206,-4.5753,-4.5051,-4.427,-4.3645,-4.2786,-4.1791,-4.1576,-4.0971,-3.9878,-3.8746,-3.7692,-3.6677,-3.6205,-3.601,-3.601,-3.601,-3.601,-3.601,-3.601,-3.5988,-3.5955,-3.5942,-3.5929,-3.6055,-3.6689,-3.7342,-3.7479,-3.7459,-3.7259,-3.7409,-3.6428,-3.5678,-3.5725,-3.6335,-3.6388,-3.5654,-3.5849,-3.5795,-3.5622,-3.5507,-3.5507,-3.5507,-3.5507,-3.5897,-3.6454,-3.6709,-3.6882,-3.7051,-3.6834,-3.6419,-3.5495,-3.502,-3.4658,-3.4358,-3.4245,-3.4216,-3.4216,-3.4216,-3.4216,-3.4216,-3.4216,-3.4216,-3.4216,-3.4216,-3.4216,-3.4216,-3.4216,-3.4216,-3.4216,-3.4216,-3.4216,-3.4216,-3.4216,-3.4258,-3.4325,-3.4583,-3.4831,-5.0906,-5.0906,-5.0906,-5.0906,-5.0906,-5.0906,-5.0906,-5.0925,-5.1041,-5.1076,-5.1106,-5.1154,-5.1205,-5.122,-5.1272,-5.1277,-5.1228,-5.1275,-5.128,-5.1219,-5.1222,-5.1271,-5.1293,-5.1255,-5.118,-5.1028,-5.0458,-5.0516,-5.0964,-5.043,-4.9739,-4.9199,-4.8847,-4.806,-4.697,-4.644,-4.6284,-4.6284,-4.6241,-4.5773,-4.4972,-4.4894,-4.4055,-4.2435,-4.2259,-4.1576,-4.0229,-3.9566,-3.8765,-3.7419,-3.644,-3.601,-3.601,-3.601,-3.601,-3.601,-3.601,-3.5974,-3.5934,-3.5942,-3.5947,-3.5972,-3.685,-3.7708,-3.83,-3.8025,-3.7868,-3.8273,-3.6973,-3.596,-3.6049,-3.664,-3.6656,-3.6026,-3.6219,-3.6142,-3.5705,-3.5641,-3.5762,-3.5815,-3.5738,-3.6007,-3.6954,-3.7079,-3.742,-3.7709,-3.7364,-3.6831,-3.6064,-3.5493,-3.4767,-3.4493,-3.4418,-3.4327,-3.4364,-3.4216,-3.4216,-3.4216,-3.4216,-3.4234,-3.4216,-3.4216,-3.4216,-3.4216,-3.4216,-3.4216,-3.4216,-3.4216,-3.4216,-3.4216,-3.4216,-3.4216,-3.4316,-3.4524,-3.4771,-5.0906,-5.0906,-5.0906,-5.0906,-5.0906,-5.0906,-5.0906,-5.0925,-5.1041,-5.1081,-5.1117,-5.1222,-5.1268,-5.1269,-5.1348,-5.1366,-5.1348,-5.1367,-5.1369,-5.1355,-5.1333,-5.1369,-5.1365,-5.1367,-5.1328,-5.1267,-5.1011,-5.1062,-5.1325,-5.1034,-5.0761,-5.0672,-4.9384,-4.8623,-4.8057,-4.6885,-4.6339,-4.63,-4.63,-4.589,-4.5187,-4.5051,-4.4153,-4.2591,-4.2454,-4.1888,-4.0737,-3.9546,-3.8453,-3.7379,-3.6482,-3.601,-3.6069,-3.6108,-3.6147,-3.6088,-3.6069,-3.5997,-3.5982,-3.5997,-3.5933,-3.5969,-3.7261,-3.8312,-3.8961,-3.8941,-3.8937,-3.8955,-3.8032,-3.7328,-3.7481,-3.8017,-3.8296,-3.8161,-3.6988,-3.6122,-3.6276,-3.6416,-3.6589,-3.7199,-3.7228,-3.7618,-3.818,-3.8473,-3.8593,-3.8781,-3.852,-3.7923,-3.6973,-3.6463,-3.5953,-3.5079,-3.4773,-3.4623,-3.4476,-3.429,-3.4216,-3.4216,-3.4216,-3.4253,-3.4253,-3.4253,-3.4234,-3.4216,-3.4216,-3.4216,-3.4216,-3.4216,-3.4216,-3.4216,-3.4216,-3.4216,-3.4197,-3.4363,-3.4666,-5.0906,-5.0906,-5.0906,-5.0906,-5.0906,-5.0906,-5.0906,-5.0945,-5.108,-5.1134,-5.118,-5.1284,-5.1316,-5.1348,-5.1387,-5.1387,-5.1387,-5.1387,-5.1387,-5.1382,-5.1384,-5.1386,-5.1398,-5.1402,-5.1389,-5.1367,-5.1313,-5.1312,-5.1366,-5.1316,-5.115,-5.0679,-4.9872,-4.9013,-4.8154,-4.7432,-4.6612,-4.6378,-4.628,-4.6007,-4.5597,-4.5539,-4.4855,-4.3743,-4.345,-4.2962,-4.1654,-4.0015,-3.8707,-3.7887,-3.7067,-3.654,-3.6579,-3.6931,-3.6931,-3.6635,-3.6817,-3.7001,-3.6911,-3.689,-3.6849,-3.7012,-3.8092,-3.8808,-3.9252,-3.9413,-3.9439,-3.9323,-3.8556,-3.8125,-3.8097,-3.8493,-3.8873,-3.8892,-3.7642,-3.6622,-3.6757,-3.7012,-3.7238,-3.7522,-3.781,-3.833,-3.9176,-3.93,-3.9492,-3.9604,-3.9373,-3.8646,-3.7861,-3.7547,-3.7045,-3.6095,-3.5362,-3.5157,-3.4829,-3.4569,-3.4271,-3.4234,-3.4606,-3.4569,-3.4327,-3.4346,-3.4401,-3.4383,-3.429,-3.4216,-3.4216,-3.4216,-3.4216,-3.4216,-3.4216,-3.4216,-3.4216,-3.4512,-3.4795,-5.0906,-5.0906,-5.0906,-5.0906,-5.0906,-5.0906,-5.0925,-5.0964,-5.1119,-5.1205,-5.1228,-5.1333,-5.1387,-5.1387,-5.1387,-5.1387,-5.1387,-5.1387,-5.1387,-5.1387,-5.1402,-5.1391,-5.1389,-5.1385,-5.1382,-5.1343,-5.1385,-5.138,-5.1388,-5.1385,-5.1003,-5.0543,-5.0204,-4.9228,-4.8213,-4.7647,-4.712,-4.6436,-4.63,-4.6261,-4.6144,-4.6105,-4.5617,-4.4836,-4.4426,-4.3704,-4.2298,-4.0815,-3.9605,-3.8924,-3.7965,-3.7477,-3.7516,-3.8199,-3.8135,-3.7636,-3.7848,-3.8135,-3.8207,-3.8025,-3.8151,-3.8191,-3.8866,-3.9529,-3.9626,-3.9691,-3.9691,-3.9699,-3.8841,-3.864,-3.8575,-3.845,-3.883,-3.9296,-3.8681,-3.793,-3.7373,-3.7661,-3.7849,-3.7271,-3.7882,-3.8593,-3.9108,-3.9488,-3.9685,-4.0065,-3.9854,-3.9346,-3.8738,-3.8385,-3.7769,-3.6917,-3.6274,-3.5764,-3.533,-3.4866,-3.4513,-3.4327,-3.4959,-3.5052,-3.4531,-3.4494,-3.4624,-3.4606,-3.4327,-3.4197,-3.4197,-3.4197,-3.424,-3.429,-3.437,-3.4309,-3.4314,-3.4836,-3.5203,-5.0906,-5.0906,-5.0906,-5.0906,-5.0906,-5.0906,-5.0964,-5.108,-5.1157,-5.1223,-5.1287,-5.1371,-5.1387,-5.1387,-5.1387,-5.1387,-5.1387,-5.1387,-5.1387,-5.1387,-5.1386,-5.1402,-5.1396,-5.1394,-5.1381,-5.1367,-5.1347,-5.1347,-5.1384,-5.134,-5.126,-5.1062,-5.0403,-4.9579,-4.8623,-4.79,-4.7178,-4.6456,-4.63,-4.63,-4.63,-4.628,-4.5909,-4.5109,-4.4445,-4.3548,-4.2494,-4.14,-4.0756,-4.0249,-3.9234,-3.8391,-3.8369,-3.8482,-3.8458,-3.8305,-3.8272,-3.8355,-3.8216,-3.8319,-3.833,-3.8747,-3.9166,-3.9629,-4.0246,-4.024,-4.026,-4.0265,-4.0102,-3.9817,-3.9779,-3.9903,-3.9927,-3.9988,-3.9931,-3.9527,-3.8969,-3.8888,-3.9099,-3.9427,-3.9642,-4.0027,-4.0196,-4.0142,-4.0296,-4.0466,-4.0258,-3.9935,-3.9574,-3.9185,-3.8531,-3.7775,-3.7186,-3.6656,-3.6073,-3.5553,-3.5076,-3.484,-3.5306,-3.5671,-3.5151,-3.4847,-3.507,-3.4773,-3.4271,-3.4197,-3.4197,-3.4335,-3.44,-3.446,-3.4481,-3.4431,-3.4545,-3.5096,-3.5757,-5.0906,-5.0906,-5.0906,-5.0945,-5.1003,-5.1003,-5.1061,-5.1157,-5.1215,-5.1254,-5.1308,-5.1381,-5.1387,-5.1387,-5.1387,-5.1387,-5.1387,-5.1387,-5.1387,-5.1387,-5.1387,-5.1386,-5.1386,-5.1385,-5.1385,-5.1387,-5.1365,-5.1365,-5.1367,-5.1367,-5.1343,-5.1398,-5.0894,-5.0028,-4.8974,-4.833,-4.751,-4.6534,-4.63,-4.63,-4.63,-4.628,-4.6163,-4.5539,-4.4797,-4.4036,-4.3645,-4.2376,-4.183,-4.1397,-4.0446,-3.9496,-3.9282,-3.9413,-3.9396,-3.9004,-3.9287,-3.937,-3.934,-3.9264,-3.9364,-3.9542,-3.9758,-4.0027,-4.0373,-4.0489,-4.0489,-4.0489,-4.0485,-4.0469,-4.0489,-4.0469,-4.0489,-4.0489,-4.0489,-4.0292,-3.9965,-3.9869,-3.9792,-4.0081,-4.0119,-4.0335,-4.0489,-4.0489,-4.0489,-4.0469,-4.0469,-4.0185,-4.0104,-3.9719,-3.939,-3.8757,-3.8116,-3.7511,-3.6909,-3.6315,-3.5727,-3.5591,-3.5752,-3.6037,-3.5938,-3.5727,-3.5609,-3.5033,-3.4383,-3.4216,-3.424,-3.44,-3.4544,-3.4601,-3.4586,-3.4535,-3.4787,-3.5447,-3.6138,-5.0906,-5.0906,-5.0925,-5.1003,-5.1099,-5.1121,-5.1145,-5.1215,-5.1273,-5.1286,-5.1326,-5.1382,-5.1387,-5.1387,-5.1387,-5.1387,-5.1387,-5.1387,-5.1387,-5.1387,-5.1387,-5.1387,-5.1387,-5.1387,-5.1387,-5.1387,-5.1387,-5.1387,-5.1387,-5.1387,-5.1387,-5.1398,-5.1382,-5.0535,-4.9345,-4.8779,-4.8057,-4.6807,-4.6417,-4.63,-4.63,-4.63,-4.6241,-4.6011,-4.5594,-4.5004,-4.4473,-4.3423,-4.2513,-4.2354,-4.1515,-4.0682,-4.0273,-4.0395,-4.0645,-3.9714,-4.0169,-4.0308,-4.0301,-4.0367,-4.035,-4.0489,-4.0469,-4.0469,-4.0489,-4.0489,-4.0489,-4.0489,-4.0489,-4.0489,-4.0489,-4.0489,-4.0489,-4.0489,-4.0489,-4.0489,-4.0489,-4.0489,-4.0177,-3.9869,-4.0177,-4.045,-4.0489,-4.0489,-4.0489,-4.0489,-4.0489,-4.0473,-4.0372,-4.0193,-3.9813,-3.9488,-3.8863,-3.8111,-3.7456,-3.6419,-3.5906,-3.5938,-3.6068,-3.6211,-3.631,-3.5931,-3.5535,-3.5052,-3.4569,-3.4439,-3.4338,-3.4381,-3.4517,-3.4652,-3.4918,-3.5105,-3.5445,-3.5853,-3.6613,-5.0906,-5.0925,-5.1022,-5.1099,-5.1106,-5.1147,-5.1222,-5.1285,-5.13,-5.1316,-5.1387,-5.1387,-5.1387,-5.1387,-5.1387,-5.1387,-5.1387,-5.1387,-5.1387,-5.1387,-5.1387,-5.1387,-5.1387,-5.1387,-5.1387,-5.1387,-5.1387,-5.1387,-5.1387,-5.1387,-5.1387,-5.1398,-5.1385,-5.077,-4.9872,-4.9189,-4.8427,-4.7295,-4.6729,-4.6436,-4.63,-4.6277,-4.6221,-4.6156,-4.5943,-4.5606,-4.485,-4.4016,-4.3157,-4.2412,-4.151,-4.0948,-4.0643,-4.0683,-4.061,-4.0486,-4.0461,-4.0545,-4.0549,-4.0519,-4.0489,-4.0489,-4.0489,-4.0489,-4.0489,-4.0489,-4.0489,-4.0489,-4.0489,-4.0489,-4.0489,-4.0489,-4.0489,-4.0489,-4.0489,-4.0489,-4.0489,-4.0566,-4.0489,-4.0215,-4.0373,-4.0489,-4.0489,-4.0489,-4.0489,-4.0489,-4.0489,-4.0489,-4.0457,-4.0285,-4.0024,-3.9762,-3.9496,-3.8721,-3.7973,-3.6723,-3.588,-3.5962,-3.6061,-3.6136,-3.611,-3.5757,-3.5367,-3.5497,-3.5163,-3.481,-3.4679,-3.4526,-3.4773,-3.5123,-3.5446,-3.5756,-3.6159,-3.6597,-3.7601,-5.1003,-5.1022,-5.1119,-5.1166,-5.1198,-5.1217,-5.1278,-5.1347,-5.1355,-5.1377,-5.1387,-5.1387,-5.1387,-5.1387,-5.1387,-5.1387,-5.1387,-5.1387,-5.1387,-5.1387,-5.1387,-5.1387,-5.1387,-5.1387,-5.1387,-5.1387,-5.1387,-5.1387,-5.1387,-5.1387,-5.1398,-5.1396,-5.1385,-5.0965,-5.0243,-4.9696,-4.8779,-4.7842,-4.7198,-4.671,-4.6335,-4.6225,-4.615,-4.6138,-4.6098,-4.5857,-4.541,-4.415,-4.3451,-4.2841,-4.1682,-4.1012,-4.0759,-4.07,-4.0626,-4.0612,-4.0534,-4.0489,-4.0489,-4.0489,-4.0489,-4.0489,-4.0489,-4.0489,-4.0489,-4.0489,-4.0489,-4.0489,-4.0489,-4.0489,-4.0489,-4.0489,-4.0489,-4.0489,-4.0508,-4.0527,-4.0604,-4.0931,-4.0854,-4.0623,-4.0508,-4.0489,-4.0489,-4.0489,-4.0489,-4.0489,-4.0489,-4.0489,-4.0489,-4.0356,-4.0177,-3.9941,-3.9622,-3.9015,-3.8353,-3.7485,-3.6474,-3.6408,-3.6345,-3.6419,-3.6549,-3.65,-3.663,-3.6816,-3.6259,-3.5237,-3.5076,-3.4958,-3.5286,-3.56,-3.5844,-3.6151,-3.6749,-3.7433,-3.8384,-5.1119,-5.1119,-5.1196,-5.1259,-5.1296,-5.1306,-5.1359,-5.1387,-5.1387,-5.1387,-5.1387,-5.1387,-5.1387,-5.1387,-5.1387,-5.1387,-5.1387,-5.1387,-5.1387,-5.1387,-5.1387,-5.1387,-5.1387,-5.1387,-5.1387,-5.1387,-5.1387,-5.1387,-5.1387,-5.1394,-5.1385,-5.1389,-5.1398,-5.1121,-5.0496,-5.0145,-4.9169,-4.8505,-4.7666,-4.7155,-4.6455,-4.617,-4.6076,-4.6041,-4.5949,-4.594,-4.5754,-4.4347,-4.3596,-4.2957,-4.1907,-4.074,-4.0713,-4.0752,-4.0773,-4.0739,-4.0604,-4.0508,-4.0489,-4.0489,-4.0489,-4.0489,-4.0489,-4.0489,-4.0489,-4.0489,-4.0489,-4.0489,-4.0489,-4.0489,-4.0489,-4.0489,-4.0489,-4.0566,-4.0662,-4.0816,-4.1008,-4.1184,-4.1248,-4.0995,-4.0665,-4.0473,-4.0457,-4.0398,-4.0382,-4.0441,-4.0422,-4.0457,-4.0457,-4.0425,-4.0232,-4.0002,-3.9652,-3.9133,-3.8678,-3.8432,-3.7625,-3.7307,-3.7188,-3.7143,-3.7384,-3.7596,-3.7708,-3.7652,-3.6445,-3.5553,-3.5442,-3.546,-3.5721,-3.5973,-3.6179,-3.6653,-3.7385,-3.8156,-3.9011,-5.1138,-5.1196,-5.125,-5.1298,-5.1308,-5.1367,-5.1387,-5.1387,-5.1387,-5.1387,-5.1387,-5.1387,-5.1387,-5.1387,-5.1387,-5.1387,-5.1387,-5.1387,-5.1387,-5.1387,-5.1387,-5.1387,-5.1387,-5.1387,-5.1387,-5.1387,-5.1387,-5.1387,-5.1387,-5.1391,-5.1394,-5.1398,-5.1398,-5.1316,-5.1043,-5.0555,-5.0028,-4.956,-4.833,-4.7123,-4.63,-4.6105,-4.6017,-4.5894,-4.5852,-4.5875,-4.5685,-4.4422,-4.3578,-4.3306,-4.1776,-4.0834,-4.0804,-4.135,-4.1582,-4.1412,-4.1008,-4.0508,-4.0604,-4.0527,-4.0604,-4.0623,-4.0623,-4.0527,-4.0623,-4.0642,-4.0623,-4.0489,-4.0489,-4.0489,-4.0489,-4.0489,-4.0489,-4.0796,-4.1143,-4.145,-4.17,-4.1673,-4.1696,-4.1238,-4.0854,-4.0562,-4.0408,-4.0329,-4.0271,-4.0327,-4.0372,-4.0389,-4.0356,-4.0285,-4.0157,-3.9901,-3.9724,-3.9227,-3.892,-3.8674,-3.8488,-3.8088,-3.7856,-3.7755,-3.7959,-3.8172,-3.8339,-3.7986,-3.6853,-3.6296,-3.6408,-3.6433,-3.6335,-3.6541,-3.6956,-3.7526,-3.8192,-3.8912,-3.9562,-5.1215,-5.1266,-5.1327,-5.1351,-5.1367,-5.1387,-5.1387,-5.1387,-5.1387,-5.1387,-5.1387,-5.1387,-5.1387,-5.1387,-5.1387,-5.1387,-5.1387,-5.1387,-5.1387,-5.1387,-5.1387,-5.1387,-5.1387,-5.1387,-5.1387,-5.1387,-5.1387,-5.1387,-5.1387,-5.14,-5.1385,-5.1394,-5.1394,-5.1394,-5.1394,-5.1043,-5.0555,-4.9774,-4.8502,-4.7133,-4.6365,-4.6033,-4.5919,-4.5794,-4.5761,-4.5747,-4.5485,-4.4738,-4.4039,-4.3807,-4.2699,-4.213,-4.2131,-4.2364,-4.2527,-4.2508,-4.222,-4.1777,-4.1296,-4.0816,-4.0873,-4.1162,-4.1239,-4.1277,-4.1239,-4.1219,-4.0969,-4.0527,-4.0508,-4.0508,-4.0508,-4.0489,-4.0835,-4.1181,-4.1514,-4.1937,-4.2172,-4.2256,-4.2162,-4.157,-4.0997,-4.0559,-4.0177,-4.0039,-3.9989,-4.008,-4.0139,-4.0177,-4.012,-4.0003,-3.9861,-3.9668,-3.9543,-3.9371,-3.9107,-3.8915,-3.8897,-3.8544,-3.8025,-3.8044,-3.8368,-3.8581,-3.8655,-3.8767,-3.8265,-3.7838,-3.7596,-3.7206,-3.6961,-3.7333,-3.7824,-3.8278,-3.8761,-3.9248,-3.9853,-5.1325,-5.1334,-5.1385,-5.1387,-5.1387,-5.1387,-5.1387,-5.1387,-5.1387,-5.1387,-5.1387,-5.1387,-5.1387,-5.1387,-5.1387,-5.1387,-5.1387,-5.1387,-5.1387,-5.1387,-5.1387,-5.1387,-5.1387,-5.1387,-5.1387,-5.1387,-5.1387,-5.1387,-5.1387,-5.1402,-5.1391,-5.1394,-5.1394,-5.1394,-5.1394,-5.1277,-5.0926,-5.0024,-4.8703,-4.7482,-4.6575,-4.6065,-4.5873,-4.5737,-4.5687,-4.5654,-4.5611,-4.4892,-4.4428,-4.4216,-4.3506,-4.2907,-4.2945,-4.3179,-4.3355,-4.3374,-4.3258,-4.3047,-4.245,-4.195,-4.1643,-4.1873,-4.2143,-4.2124,-4.2124,-4.2104,-4.1777,-4.1008,-4.0931,-4.0796,-4.0604,-4.0662,-4.0899,-4.1308,-4.1733,-4.2176,-4.2467,-4.224,-4.1873,-4.1258,-4.064,-4.0144,-3.9834,-3.9693,-3.9679,-3.9816,-3.988,-3.9941,-3.988,-3.9797,-3.969,-3.9552,-3.9494,-3.9383,-3.9173,-3.9064,-3.9082,-3.899,-3.847,-3.8359,-3.8665,-3.8729,-3.8729,-3.8878,-3.9064,-3.8878,-3.8339,-3.7912,-3.7578,-3.8069,-3.8503,-3.8845,-3.9267,-3.9728,-4.0253,-5.1395,-5.1385,-5.1387,-5.1387,-5.1387,-5.1387,-5.1387,-5.1387,-5.1387,-5.1387,-5.1387,-5.1387,-5.1387,-5.1387,-5.1387,-5.1387,-5.1387,-5.1387,-5.1387,-5.1387,-5.1387,-5.1387,-5.1387,-5.1387,-5.1387,-5.1387,-5.1387,-5.1387,-5.1387,-5.1402,-5.1391,-5.1398,-5.1394,-5.1394,-5.1394,-5.1355,-5.0918,-5.0108,-4.9067,-4.8082,-4.7077,-4.6351,-4.5849,-4.5651,-4.5603,-4.5584,-4.5563,-4.4886,-4.4501,-4.4482,-4.3885,-4.35,-4.366,-4.3989,-4.4201,-4.422,-4.422,-4.4105,-4.3758,-4.3104,-4.2912,-4.2951,-4.3066,-4.3104,-4.2989,-4.3008,-4.2585,-4.1873,-4.1739,-4.1393,-4.1181,-4.1088,-4.137,-4.1453,-4.1877,-4.2181,-4.2235,-4.1768,-4.1389,-4.0839,-4.0495,-4.0297,-3.9989,-3.9951,-3.9552,-3.9623,-3.9585,-3.9632,-3.9747,-3.9705,-3.9618,-3.9524,-3.9489,-3.9357,-3.9165,-3.9101,-3.9101,-3.9101,-3.8813,-3.8795,-3.8971,-3.8952,-3.8841,-3.8934,-3.9101,-3.9101,-3.9064,-3.8618,-3.8432,-3.8804,-3.9133,-3.9288,-3.984,-4.0463,-4.0975,-5.1398,-5.1387,-5.1387,-5.1387,-5.1387,-5.1387,-5.1387,-5.1387,-5.1387,-5.1387,-5.1387,-5.1387,-5.1387,-5.1387,-5.1387,-5.1387,-5.1387,-5.1387,-5.1387,-5.1387,-5.1387,-5.1387,-5.1387,-5.1367,-5.1387,-5.1367,-5.1367,-5.1384,-5.1387,-5.1396,-5.1391,-5.1402,-5.139,-5.1394,-5.1394,-5.1351,-5.085,-5.0173,-4.9496,-4.871,-4.7262,-4.679,-4.6248,-4.5622,-4.5586,-4.5586,-4.5565,-4.5315,-4.5143,-4.4989,-4.472,-4.4566,-4.447,-4.4855,-4.497,-4.5009,-4.4989,-4.5009,-4.4778,-4.3989,-4.3335,-4.3932,-4.4239,-4.4374,-4.3912,-4.3838,-4.3415,-4.2915,-4.2604,-4.2297,-4.2316,-4.2234,-4.2221,-4.2011,-4.2063,-4.2354,-4.2162,-4.1723,-4.1623,-4.1399,-4.121,-4.1041,-4.0672,-4.0319,-3.9823,-3.9444,-3.9362,-3.9324,-3.9464,-3.9537,-3.9445,-3.9396,-3.9357,-3.9305,-3.911,-3.9101,-3.9101,-3.9101,-3.9101,-3.9101,-3.9101,-3.9082,-3.9008,-3.9082,-3.9101,-3.9101,-3.9101,-3.9101,-3.9082,-3.9082,-3.9261,-3.9529,-4.0228,-4.1088,-4.1577,-5.1387,-5.1387,-5.1387,-5.1387,-5.1387,-5.1387,-5.1387,-5.1387,-5.1387,-5.1387,-5.1387,-5.1387,-5.1387,-5.1387,-5.1387,-5.1387,-5.1289,-5.1152,-5.123,-5.1211,-5.1152,-5.1094,-5.1133,-5.123,-5.125,-5.1191,-5.1348,-5.1384,-5.1402,-5.1389,-5.1385,-5.1375,-5.1362,-5.1357,-5.139,-5.1318,-5.0959,-5.0412,-4.9479,-4.8952,-4.7478,-4.6746,-4.6333,-4.5642,-4.5586,-4.5586,-4.5586,-4.549,-4.5509,-4.549,-4.5451,-4.5528,-4.5547,-4.5586,-4.5586,-4.5586,-4.5586,-4.5586,-4.524,-4.4759,-4.4105,-4.4682,-4.5086,-4.5086,-4.4874,-4.4664,-4.4335,-4.3585,-4.3431,-4.3357,-4.3246,-4.2929,-4.2595,-4.2316,-4.2503,-4.2718,-4.2309,-4.189,-4.2044,-4.2089,-4.1809,-4.1418,-4.1091,-4.0632,-3.9937,-3.948,-3.9229,-3.9219,-3.9272,-3.9305,-3.9227,-3.9173,-3.9165,-3.9137,-3.9101,-3.9101,-3.9101,-3.9101,-3.9101,-3.9101,-3.9101,-3.9101,-3.9101,-3.9101,-3.9101,-3.9101,-3.9101,-3.9101,-3.9101,-3.9082,-3.9514,-4.0121,-4.0745,-4.1567,-4.2055,-5.1387,-5.1387,-5.1387,-5.1387,-5.1387,-5.1387,-5.1387,-5.1387,-5.1387,-5.1348,-5.1289,-5.1328,-5.1328,-5.1308,-5.1191,-5.1191,-5.1035,-5.0547,-5.0488,-5.0781,-5.0644,-5.0351,-5.0547,-5.082,-5.1016,-5.0605,-5.084,-5.1206,-5.1367,-5.1357,-5.1357,-5.1327,-5.1252,-5.1271,-5.1381,-5.1278,-5.1183,-5.0886,-4.9349,-4.8604,-4.7878,-4.6728,-4.6025,-4.5642,-4.5586,-4.5586,-4.5586,-4.5586,-4.5586,-4.5586,-4.5586,-4.5586,-4.5586,-4.5586,-4.5586,-4.5586,-4.5586,-4.5586,-4.5547,-4.547,-4.5374,-4.5316,-4.5528,-4.5451,-4.549,-4.5413,-4.5163,-4.4355,-4.4263,-4.3789,-4.3522,-4.3306,-4.3008,-4.2724,-4.2919,-4.2835,-4.2436,-4.2221,-4.238,-4.2745,-4.2182,-4.1579,-4.1345,-4.0926,-4.0094,-3.9575,-3.9212,-3.9129,-3.9156,-3.9156,-3.9101,-3.9101,-3.9101,-3.9101,-3.9101,-3.9101,-3.9101,-3.9101,-3.9101,-3.9101,-3.9101,-3.9101,-3.9101,-3.9101,-3.9101,-3.9101,-3.9101,-3.9101,-3.9341,-3.9642,-4.0333,-4.0959,-4.1532,-4.2123,-4.2727,-5.1387,-5.1387,-5.1387,-5.1387,-5.1387,-5.1387,-5.1387,-5.1387,-5.1367,-5.1113,-5.0801,-5.1113,-5.1055,-5.0781,-5.0605,-5.0605,-5.0449,-4.9746,-4.9648,-4.9766,-4.9941,-5.0215,-5.0332,-5.0488,-5.0742,-5.084,-5.0957,-5.0984,-5.1253,-5.1265,-5.12,-5.1142,-5.1113,-5.1103,-5.1123,-5.1083,-5.1042,-5.0823,-4.9809,-4.8883,-4.8116,-4.7045,-4.6144,-4.5643,-4.5643,-4.5586,-4.5586,-4.5586,-4.5586,-4.5586,-4.5586,-4.5586,-4.5586,-4.5586,-4.5586,-4.5586,-4.5586,-4.5586,-4.5586,-4.5547,-4.5566,-4.5586,-4.5586,-4.5586,-4.5586,-4.5586,-4.5374,-4.5166,-4.4882,-4.4536,-4.459,-4.4199,-4.3773,-4.3085,-4.3006,-4.2855,-4.2597,-4.2597,-4.272,-4.3297,-4.3206,-4.2374,-4.1898,-4.1661,-4.0948,-4.0011,-3.9621,-3.9231,-3.9166,-3.9147,-3.912,-3.9101,-3.9101,-3.9101,-3.9138,-3.9435,-3.9528,-3.9528,-3.9324,-3.9101,-3.9101,-3.9175,-3.9101,-3.9101,-3.9101,-3.9101,-3.9184,-3.9378,-3.987,-4.0352,-4.1098,-4.1622,-4.2029,-4.2808,-4.3705,-5.1387,-5.1387,-5.1387,-5.1387,-5.1387,-5.1387,-5.1387,-5.1387,-5.1387,-5.1094,-5.0781,-5.0918,-5.0723,-5.0234,-4.9902,-4.9766,-4.9668,-4.8867,-4.916,-4.916,-4.916,-4.9629,-4.9961,-5.0195,-5.043,-5.075,-5.0836,-5.0821,-5.115,-5.1132,-5.1088,-5.1017,-5.0953,-5.0945,-5.0945,-5.0918,-5.0945,-5.0569,-4.9679,-4.8846,-4.818,-4.7336,-4.6297,-4.6028,-4.5836,-4.5586,-4.5586,-4.5586,-4.5586,-4.5586,-4.5586,-4.5586,-4.5586,-4.5586,-4.5586,-4.5586,-4.5586,-4.5586,-4.5586,-4.5586,-4.5586,-4.5586,-4.5586,-4.5586,-4.5586,-4.5586,-4.5532,-4.54,-4.5279,-4.5052,-4.4858,-4.4493,-4.413,-4.3446,-4.3322,-4.3181,-4.3169,-4.3169,-4.3206,-4.3801,-4.3856,-4.3111,-4.2545,-4.23,-4.1943,-4.0958,-4.003,-3.9677,-3.9361,-3.9361,-3.938,-3.9361,-3.9472,-3.9621,-3.9825,-4.0123,-4.0141,-3.9993,-3.977,-3.9547,-3.938,-3.9491,-3.9287,-3.9101,-3.9138,-3.9203,-3.9351,-3.9664,-4.0503,-4.1213,-4.1876,-4.2297,-4.2576,-4.3395,-4.4355,-5.1387,-5.1387,-5.1387,-5.1387,-5.1387,-5.1387,-5.1387,-5.1387,-5.1387,-5.1308,-5.1172,-5.0391,-5.0078,-4.9844,-4.9199,-4.8965,-4.8789,-4.8027,-4.8535,-4.9023,-4.8535,-4.9062,-4.9609,-4.998,-5.0199,-5.039,-5.0542,-5.0713,-5.1023,-5.1,-5.0937,-5.079,-5.079,-5.0571,-5.048,-5.0651,-5.0677,-5.0207,-4.9464,-4.8757,-4.8202,-4.7009,-4.6374,-4.6124,-4.5932,-4.5643,-4.5586,-4.5586,-4.5586,-4.5586,-4.5586,-4.5586,-4.5586,-4.5586,-4.5586,-4.5586,-4.5586,-4.5586,-4.5586,-4.5586,-4.5586,-4.5586,-4.5531,-4.5586,-4.5531,-4.5495,-4.54,-4.5222,-4.5071,-4.4776,-4.4519,-4.4402,-4.4231,-4.3983,-4.3881,-4.3856,-4.3856,-4.3856,-4.3856,-4.4005,-4.4005,-4.3608,-4.3292,-4.3039,-4.2649,-4.1813,-4.0996,-4.0754,-4.042,-3.9974,-3.9955,-3.9844,-4.0011,-4.029,-4.0531,-4.081,-4.0847,-4.0736,-4.0587,-4.0364,-4.0141,-3.9937,-3.9825,-3.9658,-3.9324,-3.9407,-3.9956,-4.0686,-4.1493,-4.2166,-4.2745,-4.3139,-4.3455,-4.3934,-4.4624,-5.1387,-5.1387,-5.1387,-5.1387,-5.1387,-5.1387,-5.1387,-5.1387,-5.1367,-5.082,-4.9609,-5.0058,-4.9492,-4.8359,-4.8086,-4.8359,-4.8105,-4.7676,-4.7578,-4.7676,-4.7851,-4.8418,-4.8926,-4.9361,-4.9865,-5.0395,-5.0615,-5.0601,-5.0846,-5.0868,-5.0389,-4.9949,-5.0428,-5.0009,-4.9835,-5.0123,-5.0103,-4.9872,-4.9143,-4.872,-4.8048,-4.6951,-4.6471,-4.6105,-4.5855,-4.5605,-4.5586,-4.5586,-4.5566,-4.5528,-4.5566,-4.5586,-4.5586,-4.5586,-4.5586,-4.5586,-4.5586,-4.5586,-4.5586,-4.5586,-4.5586,-4.5513,-4.5438,-4.5303,-4.5322,-4.5282,-4.518,-4.4988,-4.4825,-4.4546,-4.4374,-4.425,-4.4151,-4.4079,-4.4005,-4.4005,-4.4005,-4.4005,-4.4005,-4.4005,-4.4005,-4.3825,-4.3584,-4.3639,-4.3225,-4.25,-4.1999,-4.1776,-4.1441,-4.0977,-4.0606,-4.0494,-4.0661,-4.0977,-4.1219,-4.1449,-4.1468,-4.1479,-4.1349,-4.1256,-4.1144,-4.0921,-4.0587,-4.0346,-4.0197,-4.0457,-4.094,-4.1724,-4.2578,-4.3061,-4.3576,-4.3963,-4.4359,-4.4739,-4.5028,-5.1113,-5.1289,-5.0664,-5.0586,-5.0957,-5.1269,-5.123,-5.0976,-5.0918,-5.0137,-4.9004,-4.9062,-4.8594,-4.7734,-4.7324,-4.7324,-4.7637,-4.6973,-4.6894,-4.7461,-4.7231,-4.8223,-4.8691,-4.8973,-4.9711,-5.0345,-5.0692,-5.0583,-5.074,-5.0683,-5.0298,-4.9586,-5.0029,-4.949,-4.9278,-4.9605,-4.9548,-4.9336,-4.899,-4.8682,-4.8009,-4.7182,-4.6567,-4.6124,-4.5836,-4.5605,-4.5586,-4.5586,-4.5451,-4.5297,-4.5278,-4.5374,-4.5355,-4.5316,-4.5566,-4.5586,-4.5586,-4.5513,-4.5476,-4.5549,-4.5513,-4.5419,-4.5282,-4.5161,-4.5055,-4.5011,-4.4872,-4.4701,-4.4519,-4.4374,-4.4221,-4.414,-4.4067,-4.4005,-4.4005,-4.4005,-4.4005,-4.4005,-4.4005,-4.4005,-4.3931,-4.3751,-4.3732,-4.3931,-4.3763,-4.3002,-4.2705,-4.276,-4.2407,-4.1943,-4.1497,-4.12,-4.1423,-4.172,-4.1932,-4.2229,-4.2451,-4.2482,-4.224,-4.2147,-4.2092,-4.172,-4.1219,-4.1144,-4.1219,-4.1518,-4.1828,-4.281,-4.3606,-4.3964,-4.4267,-4.4708,-4.4953,-4.5143,-4.5393,-5.0625,-5.1172,-4.9707,-4.9629,-5.0176,-5.0996,-5.0859,-5.0058,-5.0039,-4.9609,-4.8711,-4.7988,-4.7656,-4.7246,-4.6797,-4.666,-4.6836,-4.6543,-4.6891,-4.7481,-4.6725,-4.7475,-4.8719,-4.9021,-4.9181,-5.0178,-5.0715,-5.0411,-5.0605,-5.0452,-4.999,-4.9413,-4.9279,-4.9029,-4.9029,-4.9356,-4.9317,-4.899,-4.9183,-4.9202,-4.8432,-4.7625,-4.6913,-4.6567,-4.6067,-4.5586,-4.5586,-4.5451,-4.522,-4.4989,-4.4951,-4.5182,-4.5124,-4.5182,-4.549,-4.5586,-4.5586,-4.5457,-4.5362,-4.54,-4.5342,-4.5243,-4.514,-4.4943,-4.4825,-4.4757,-4.4624,-4.4457,-4.4279,-4.4221,-4.4109,-4.4048,-4.4036,-4.4005,-4.4005,-4.4005,-4.4005,-4.4005,-4.4005,-4.4005,-4.3986,-4.3825,-4.3844,-4.4005,-4.3931,-4.3318,-4.3225,-4.3448,-4.3262,-4.2797,-4.2482,-4.2036,-4.2073,-4.2352,-4.2835,-4.315,-4.3578,-4.3559,-4.315,-4.3002,-4.2878,-4.2407,-4.1776,-4.1991,-4.2273,-4.2361,-4.2733,-4.3655,-4.4269,-4.4383,-4.4764,-4.534,-4.5566,-4.5547,-4.5547,-5.0312,-5.0527,-5.0723,-5.0234,-4.9453,-5.0781,-5.0137,-4.834,-4.8945,-4.873,-4.7988,-4.7656,-4.7226,-4.668,-4.6484,-4.6523,-4.6953,-4.6534,-4.7195,-4.739,-4.6864,-4.7345,-4.8509,-4.8366,-4.8474,-4.8922,-4.9556,-5.0276,-5.051,-5.0183,-4.9683,-4.9336,-4.899,-4.8682,-4.8586,-4.8952,-4.9086,-4.8798,-4.949,-4.8759,-4.7105,-4.7509,-4.7394,-4.6432,-4.5586,-4.5586,-4.5586,-4.5547,-4.549,-4.5413,-4.547,-4.547,-4.5355,-4.5509,-4.5566,-4.5586,-4.5531,-4.5362,-4.5263,-4.5222,-4.5159,-4.4919,-4.4751,-4.4624,-4.4519,-4.4493,-4.4402,-4.4221,-4.4109,-4.4048,-4.4036,-4.4005,-4.4005,-4.4005,-4.4005,-4.4005,-4.4005,-4.4005,-4.4005,-4.4005,-4.4005,-4.4005,-4.4005,-4.3968,-4.3893,-4.3838,-4.3819,-4.3875,-4.3819,-4.354,-4.3448,-4.3076,-4.2716,-4.2958,-4.3429,-4.3689,-4.3931,-4.4005,-4.3652,-4.3633,-4.3639,-4.3113,-4.2575,-4.3036,-4.3349,-4.3362,-4.3604,-4.4374,-4.4843,-4.4891,-4.5014,-4.5493,-4.5586,-4.5566,-4.5566,-4.9258,-4.9648,-5.0098,-4.9531,-4.8691,-4.9746,-4.9238,-4.791,-4.8125,-4.7832,-4.7109,-4.6992,-4.6738,-4.6308,-4.6308,-4.6465,-4.6933,-4.6484,-4.6946,-4.7289,-4.7468,-4.7908,-4.8077,-4.8145,-4.8926,-4.9321,-4.9755,-5.0317,-5.0548,-5.0337,-4.9952,-4.9433,-4.8817,-4.8471,-4.8317,-4.8644,-4.8913,-4.8817,-4.9798,-4.8606,-4.6451,-4.7182,-4.7201,-4.6105,-4.5586,-4.5586,-4.5586,-4.5547,-4.5316,-4.5089,-4.4843,-4.5151,-4.5131,-4.5263,-4.5302,-4.5322,-4.5302,-4.5161,-4.5074,-4.4985,-4.4915,-4.465,-4.4519,-4.4438,-4.4383,-4.4374,-4.4221,-4.4048,-4.4067,-4.4005,-4.4005,-4.4005,-4.4005,-4.4005,-4.4005,-4.4005,-4.4005,-4.4005,-4.4005,-4.4005,-4.4005,-4.4005,-4.4005,-4.4005,-4.3949,-4.3949,-4.4005,-4.4005,-4.4005,-4.4005,-4.4005,-4.3912,-4.3441,-4.3367,-4.3726,-4.3875,-4.3968,-4.4005,-4.4005,-4.3949,-4.3788,-4.3596,-4.346,-4.3751,-4.3999,-4.418,-4.4567,-4.5014,-4.5243,-4.5285,-4.538,-4.5586,-4.5586,-4.5586,-4.5586,-4.8086,-4.8691,-4.8887,-4.834,-4.7656,-4.8535,-4.834,-4.7539,-4.7539,-4.7148,-4.6445,-4.6367,-4.6289,-4.6289,-4.6289,-4.6289,-4.6289,-4.625,-4.6732,-4.7386,-4.7274,-4.8106,-4.8628,-4.881,-4.9261,-4.9734,-5.0182,-5.0433,-5.0644,-5.0317,-4.9894,-4.9548,-4.924,-4.8971,-4.8548,-4.8355,-4.8586,-4.8952,-4.926,-4.8682,-4.8048,-4.7682,-4.6932,-4.6182,-4.5586,-4.5586,-4.5586,-4.547,-4.5105,-4.4767,-4.444,-4.4683,-4.4906,-4.503,-4.503,-4.5074,-4.5007,-4.4872,-4.4776,-4.477,-4.4572,-4.4411,-4.4355,-4.4346,-4.4289,-4.4192,-4.4048,-4.4005,-4.4005,-4.4005,-4.4005,-4.4005,-4.4005,-4.4005,-4.4005,-4.4005,-4.4005,-4.4005,-4.4023,-4.4023,-4.4042,-4.4061,-4.4079,-4.4079,-4.4042,-4.4042,-4.4023,-4.4005,-4.4005,-4.4005,-4.4005,-4.4005,-4.3801,-4.3856,-4.4005,-4.4005,-4.4005,-4.4005,-4.4005,-4.4005,-4.3999,-4.3886,-4.393,-4.4168,-4.4417,-4.4638,-4.4871,-4.5182,-4.54,-4.5532,-4.5568,-4.5586,-4.5586,-4.5586,-4.5586,-4.7695,-4.7891,-4.8594,-4.8008,-4.6933,-4.8183,-4.8008,-4.6816,-4.7285,-4.7109,-4.6465,-4.6289,-4.6289,-4.6289,-4.6289,-4.6289,-4.6289,-4.6222,-4.7179,-4.813,-4.7579,-4.8361,-4.908,-4.9183,-4.9092,-4.9486,-4.9971,-5.0106,-5.047,-5.0086,-4.999,-5.0279,-4.8798,-4.8952,-4.999,-4.9625,-4.9106,-4.9356,-4.9317,-4.9029,-4.8856,-4.8202,-4.7048,-4.6278,-4.5586,-4.5586,-4.5586,-4.5586,-4.538,-4.5072,-4.4725,-4.4706,-4.473,-4.4795,-4.4795,-4.48,-4.4751,-4.465,-4.4572,-4.4511,-4.4346,-4.4181,-4.4151,-4.4121,-4.4109,-4.4109,-4.4005,-4.4005,-4.4005,-4.4005,-4.4005,-4.4005,-4.4005,-4.4005,-4.4005,-4.4005,-4.4005,-4.4023,-4.4023,-4.4116,-4.4191,-4.4246,-4.4339,-4.4283,-4.4191,-4.4153,-4.4042,-4.4042,-4.4005,-4.4005,-4.4042,-4.4005,-4.4005,-4.4005,-4.4005,-4.4005,-4.4005,-4.4005,-4.4005,-4.4017,-4.4091,-4.425,-4.4374,-4.4572,-4.48,-4.5014,-4.5262,-4.5381,-4.5476,-4.5568,-4.5586,-4.5586,-4.5586,-4.5586,-4.5586]}]]